[[{"header":{"parameterUnit":"m.s-1","parameterCategory":1,"la1":30.6,"la2":29.2853,"lo1":-89.7004,"lo2":-87.6739,"dy":0.0162,"dx":0.0183,"nx":112,"ny":82,"refTime":"2024-05-17T06:00:00:Z","depth":0,"parameterNumber":2,"parameterNumberName":"U-component_of_WINDS"},"data":[0.0,0.0,0.0,0.0,0.0,0.0,0.0,0.0,0.0,0.0,0.0,0.0,0.0,0.0,0.0,0.0,0.0,0.0,0.0,0.0,0.0,0.0,0.0,0.0,0.0,0.0,0.0,0.0,0.0,0.0,0.0,0.0,0.0,0.0,0.0,0.0,0.0,0.0,0.0,0.0,0.0,0.0,0.0,0.0,0.0,0.0,0.0,0.0,0.0,0.0,0.0,0.0,0.0,0.0,0.0,0.0,0.0,0.0,0.0,0.0,0.0,0.0,0.0,0.0,0.0,0.0,0.0,0.0,0.0,0.0,0.0,0.0,0.0,0.0,0.0,0.0,0.0,0.0,0.0,0.0,0.0,0.0,0.0,0.0,0.0,0.0,0.0,0.0,0.0,0.0,-7.6787,-7.9784,-8.4937,-8.783,-8.7058,-8.5657,-8.1594,-7.399,0.0,0.0,0.0,0.0,0.0,0.0,0.0,0.0,0.0,0.0,0.0,0.0,0.0,0.0,0.0,0.0,0.0,0.0,0.0,0.0,0.0,0.0,0.0,0.0,0.0,0.0,0.0,0.0,0.0,0.0,0.0,0.0,0.0,0.0,0.0,0.0,0.0,0.0,0.0,0.0,0.0,0.0,0.0,0.0,0.0,0.0,0.0,0.0,0.0,0.0,0.0,0.0,0.0,0.0,0.0,0.0,0.0,0.0,0.0,0.0,0.0,0.0,0.0,0.0,0.0,0.0,0.0,0.0,0.0,0.0,0.0,0.0,0.0,0.0,0.0,0.0,0.0,0.0,0.0,0.0,0.0,0.0,0.0,0.0,0.0,0.0,0.0,0.0,0.0,0.0,0.0,0.0,0.0,0.0,0.0,0.0,0.0,0.0,0.0,0.0,0.0,0.0,0.0,0.0,-7.6106,-8.4695,-8.7234,-8.8239,-8.7931,-8.493,-8.0331,-7.3913,0.0,0.0,0.0,0.0,0.0,0.0,0.0,0.0,0.0,0.0,0.0,0.0,0.0,0.0,0.0,0.0,0.0,0.0,0.0,0.0,0.0,0.0,0.0,0.0,0.0,0.0,0.0,0.0,0.0,0.0,0.0,0.0,0.0,0.0,0.0,0.0,0.0,0.0,0.0,0.0,0.0,0.0,0.0,0.0,0.0,0.0,0.0,0.0,0.0,0.0,0.0,0.0,0.0,0.0,0.0,0.0,0.0,0.0,0.0,0.0,0.0,0.0,0.0,0.0,0.0,0.0,0.0,0.0,0.0,0.0,0.0,0.0,0.0,0.0,0.0,0.0,0.0,0.0,0.0,0.0,0.0,0.0,0.0,0.0,0.0,0.0,0.0,0.0,0.0,0.0,0.0,0.0,0.0,0.0,0.0,0.0,0.0,0.0,0.0,0.0,0.0,0.0,0.0,-7.4297,-7.8787,-8.603,-8.7876,-8.8064,-8.6818,-8.4755,-8.0489,-7.3248,-7.1552,0.0,0.0,0.0,0.0,0.0,0.0,0.0,0.0,0.0,0.0,0.0,0.0,0.0,0.0,0.0,0.0,0.0,0.0,0.0,0.0,0.0,0.0,0.0,0.0,0.0,0.0,0.0,0.0,0.0,0.0,0.0,0.0,0.0,0.0,0.0,0.0,0.0,0.0,0.0,0.0,0.0,0.0,0.0,0.0,0.0,0.0,0.0,0.0,0.0,0.0,0.0,0.0,0.0,0.0,0.0,0.0,0.0,0.0,0.0,0.0,0.0,0.0,0.0,0.0,0.0,0.0,0.0,0.0,0.0,0.0,0.0,0.0,0.0,0.0,0.0,0.0,0.0,0.0,0.0,0.0,0.0,0.0,0.0,0.0,0.0,0.0,0.0,0.0,0.0,0.0,0.0,0.0,0.0,0.0,0.0,0.0,0.0,0.0,0.0,0.0,0.0,0.0,-7.8486,-8.2355,-8.6669,-8.8071,-8.7906,-8.5969,-8.4185,-8.0016,-7.266,-6.9887,0.0,0.0,0.0,0.0,0.0,0.0,0.0,0.0,0.0,0.0,0.0,0.0,0.0,0.0,0.0,0.0,0.0,0.0,0.0,0.0,0.0,0.0,0.0,0.0,0.0,0.0,0.0,0.0,0.0,0.0,0.0,0.0,0.0,0.0,0.0,0.0,0.0,0.0,0.0,0.0,0.0,0.0,0.0,0.0,0.0,0.0,0.0,0.0,0.0,0.0,0.0,0.0,0.0,0.0,0.0,0.0,0.0,0.0,0.0,0.0,0.0,0.0,0.0,0.0,0.0,0.0,0.0,0.0,0.0,0.0,0.0,0.0,0.0,0.0,0.0,0.0,0.0,0.0,0.0,0.0,0.0,0.0,0.0,0.0,0.0,0.0,0.0,0.0,0.0,0.0,0.0,0.0,0.0,0.0,0.0,0.0,0.0,0.0,0.0,0.0,0.0,0.0,-8.0337,-8.5837,-8.7798,-8.8422,-8.8141,-8.6826,-8.2413,-7.7591,-7.2519,-6.7768,0.0,0.0,0.0,0.0,0.0,0.0,0.0,0.0,0.0,0.0,0.0,0.0,0.0,0.0,0.0,0.0,0.0,0.0,0.0,0.0,0.0,0.0,0.0,0.0,0.0,0.0,0.0,0.0,0.0,0.0,0.0,0.0,0.0,0.0,0.0,0.0,0.0,0.0,0.0,0.0,0.0,0.0,0.0,0.0,0.0,0.0,0.0,0.0,0.0,0.0,0.0,0.0,0.0,0.0,0.0,0.0,0.0,0.0,0.0,0.0,0.0,0.0,0.0,0.0,0.0,0.0,0.0,0.0,0.0,0.0,0.0,0.0,0.0,0.0,0.0,0.0,0.0,0.0,0.0,0.0,0.0,0.0,0.0,0.0,0.0,0.0,0.0,0.0,0.0,0.0,0.0,0.0,0.0,0.0,0.0,0.0,0.0,0.0,0.0,0.0,0.0,0.0,-7.8204,-8.3034,-8.6864,-8.7681,-8.7203,-8.5392,-8.3045,-7.869,-7.1813,0.0,0.0,0.0,0.0,0.0,0.0,0.0,0.0,0.0,0.0,0.0,0.0,0.0,0.0,0.0,0.0,0.0,0.0,0.0,0.0,0.0,0.0,0.0,0.0,0.0,0.0,0.0,0.0,0.0,0.0,0.0,0.0,0.0,0.0,0.0,0.0,0.0,0.0,0.0,0.0,0.0,0.0,0.0,0.0,0.0,0.0,0.0,0.0,0.0,0.0,0.0,0.0,0.0,0.0,0.0,0.0,0.0,0.0,0.0,0.0,0.0,0.0,0.0,0.0,0.0,0.0,0.0,0.0,0.0,0.0,0.0,0.0,0.0,0.0,0.0,0.0,0.0,0.0,0.0,0.0,0.0,0.0,0.0,0.0,0.0,0.0,0.0,0.0,0.0,0.0,0.0,0.0,0.0,0.0,0.0,0.0,0.0,0.0,0.0,0.0,0.0,0.0,-7.2937,-7.7722,-8.2254,-8.6341,-8.7143,-8.6555,-8.4497,-8.2571,-7.834,-7.1004,0.0,0.0,0.0,0.0,0.0,0.0,0.0,0.0,0.0,0.0,0.0,0.0,0.0,0.0,0.0,0.0,0.0,0.0,0.0,0.0,0.0,0.0,0.0,0.0,0.0,0.0,0.0,0.0,0.0,0.0,0.0,0.0,0.0,0.0,0.0,0.0,0.0,0.0,0.0,0.0,0.0,0.0,0.0,0.0,0.0,0.0,0.0,0.0,0.0,0.0,0.0,0.0,0.0,0.0,0.0,0.0,0.0,0.0,0.0,0.0,0.0,0.0,0.0,0.0,0.0,0.0,0.0,0.0,0.0,0.0,0.0,0.0,0.0,0.0,0.0,0.0,0.0,0.0,0.0,0.0,0.0,0.0,0.0,0.0,0.0,0.0,0.0,0.0,0.0,0.0,0.0,0.0,0.0,0.0,0.0,0.0,0.0,0.0,0.0,0.0,0.0,0.0,-7.3168,-7.9559,-8.4643,-8.6558,-8.6947,-8.6317,-8.4443,-8.0558,-7.5781,0.0,0.0,0.0,0.0,0.0,0.0,0.0,0.0,0.0,0.0,0.0,0.0,0.0,0.0,0.0,0.0,0.0,0.0,0.0,0.0,0.0,0.0,0.0,0.0,0.0,0.0,0.0,0.0,0.0,0.0,0.0,0.0,0.0,0.0,0.0,0.0,0.0,0.0,0.0,0.0,0.0,0.0,0.0,0.0,0.0,0.0,0.0,0.0,0.0,0.0,0.0,0.0,0.0,0.0,0.0,0.0,0.0,0.0,0.0,0.0,0.0,0.0,0.0,0.0,0.0,0.0,0.0,0.0,0.0,0.0,0.0,0.0,0.0,0.0,0.0,0.0,0.0,0.0,0.0,0.0,0.0,0.0,0.0,0.0,0.0,0.0,0.0,0.0,0.0,0.0,0.0,0.0,0.0,0.0,0.0,0.0,0.0,0.0,0.0,0.0,0.0,0.0,0.0,-7.2322,-7.8722,-8.3751,-8.5486,-8.5352,-8.4817,-8.4065,-8.0747,-7.6118,-7.0092,0.0,0.0,0.0,0.0,0.0,0.0,0.0,0.0,0.0,0.0,0.0,0.0,0.0,0.0,0.0,0.0,0.0,0.0,0.0,0.0,0.0,0.0,0.0,0.0,0.0,0.0,0.0,0.0,0.0,0.0,0.0,0.0,0.0,0.0,0.0,0.0,0.0,0.0,0.0,0.0,0.0,0.0,0.0,0.0,0.0,0.0,0.0,0.0,0.0,0.0,0.0,0.0,0.0,0.0,0.0,0.0,0.0,0.0,0.0,0.0,0.0,0.0,0.0,0.0,0.0,0.0,0.0,0.0,0.0,0.0,0.0,0.0,0.0,0.0,0.0,0.0,0.0,0.0,0.0,0.0,0.0,0.0,0.0,0.0,0.0,0.0,0.0,0.0,0.0,0.0,0.0,0.0,0.0,0.0,0.0,0.0,0.0,0.0,0.0,0.0,0.0,0.0,-7.1898,-7.7973,-8.2742,-8.4505,-8.4376,-8.3951,-8.3456,-8.0938,-7.6746,-7.0579,0.0,0.0,0.0,0.0,0.0,0.0,0.0,0.0,0.0,0.0,0.0,0.0,0.0,0.0,0.0,0.0,0.0,0.0,0.0,0.0,0.0,0.0,0.0,0.0,0.0,0.0,0.0,0.0,0.0,0.0,0.0,0.0,0.0,0.0,0.0,0.0,0.0,0.0,0.0,0.0,0.0,0.0,0.0,0.0,0.0,0.0,0.0,0.0,0.0,0.0,0.0,0.0,0.0,0.0,0.0,0.0,0.0,0.0,0.0,0.0,0.0,0.0,0.0,0.0,0.0,0.0,0.0,0.0,0.0,0.0,0.0,0.0,0.0,0.0,0.0,0.0,0.0,0.0,0.0,0.0,0.0,0.0,0.0,0.0,0.0,0.0,0.0,0.0,0.0,0.0,0.0,0.0,0.0,0.0,0.0,0.0,0.0,0.0,0.0,0.0,0.0,0.0,-7.1629,-7.7284,-8.1706,-8.3553,-8.3667,-8.3358,-8.27,-8.0954,-7.7326,-7.1441,0.0,0.0,0.0,0.0,0.0,0.0,0.0,0.0,0.0,0.0,0.0,0.0,0.0,0.0,0.0,0.0,0.0,0.0,0.0,0.0,0.0,0.0,0.0,0.0,0.0,0.0,0.0,0.0,0.0,0.0,0.0,0.0,0.0,0.0,0.0,0.0,0.0,0.0,0.0,0.0,0.0,0.0,0.0,0.0,0.0,0.0,0.0,0.0,0.0,0.0,0.0,0.0,0.0,0.0,0.0,0.0,0.0,0.0,0.0,0.0,-6.6743,-6.4283,0.0,0.0,0.0,0.0,0.0,0.0,0.0,0.0,0.0,0.0,0.0,0.0,0.0,0.0,0.0,0.0,0.0,0.0,0.0,0.0,0.0,0.0,0.0,0.0,0.0,0.0,0.0,0.0,0.0,0.0,0.0,0.0,0.0,0.0,0.0,0.0,0.0,0.0,0.0,0.0,-7.0821,-7.6399,-8.0739,-8.2447,-8.2077,-8.1884,-8.2347,-7.979,-7.6416,-7.2402,-6.9033,0.0,0.0,0.0,0.0,0.0,0.0,0.0,0.0,0.0,0.0,0.0,0.0,0.0,0.0,0.0,0.0,0.0,0.0,0.0,0.0,0.0,0.0,0.0,0.0,0.0,0.0,0.0,0.0,0.0,0.0,0.0,0.0,0.0,0.0,0.0,0.0,0.0,0.0,0.0,0.0,0.0,0.0,0.0,0.0,0.0,0.0,0.0,0.0,0.0,0.0,0.0,0.0,0.0,0.0,0.0,0.0,0.0,0.0,0.0,-6.8744,-6.7382,0.0,0.0,0.0,0.0,0.0,0.0,0.0,0.0,0.0,0.0,0.0,0.0,0.0,0.0,0.0,0.0,0.0,0.0,0.0,0.0,0.0,0.0,0.0,0.0,0.0,0.0,0.0,0.0,0.0,0.0,0.0,0.0,0.0,0.0,0.0,0.0,0.0,0.0,0.0,0.0,-7.1668,-7.6245,-7.9823,-8.1554,-8.1362,-8.1285,-8.1708,-7.9533,-7.7058,-7.4474,-7.0615,0.0,0.0,0.0,0.0,0.0,0.0,0.0,0.0,0.0,0.0,0.0,0.0,0.0,0.0,0.0,0.0,0.0,0.0,0.0,0.0,0.0,0.0,0.0,0.0,0.0,0.0,0.0,0.0,0.0,0.0,0.0,0.0,0.0,0.0,0.0,0.0,0.0,0.0,0.0,0.0,0.0,0.0,0.0,0.0,0.0,0.0,0.0,0.0,0.0,0.0,0.0,0.0,0.0,-7.1276,-7.1703,-7.1915,-7.2592,-7.2899,-7.2822,-7.1898,-7.1703,-7.1816,-6.8618,0.0,0.0,0.0,0.0,0.0,0.0,0.0,0.0,0.0,0.0,0.0,0.0,0.0,0.0,0.0,0.0,0.0,0.0,0.0,0.0,0.0,0.0,-7.0437,-7.2399,-7.3514,-7.2976,-6.859,0.0,0.0,0.0,0.0,0.0,0.0,0.0,0.0,0.0,0.0,0.0,-7.2899,-7.6438,-7.9169,-8.09,-8.1093,-8.1054,-8.09,-7.9636,-7.8142,-7.6447,-7.2217,-6.8656,0.0,0.0,0.0,0.0,0.0,0.0,0.0,0.0,0.0,0.0,0.0,0.0,0.0,0.0,0.0,0.0,0.0,0.0,0.0,0.0,0.0,0.0,0.0,0.0,0.0,0.0,0.0,0.0,0.0,0.0,0.0,0.0,-6.2106,-6.3612,0.0,0.0,0.0,0.0,0.0,0.0,0.0,0.0,0.0,0.0,0.0,0.0,0.0,-6.8413,-7.1454,-7.1152,-7.2618,-7.5742,-7.7326,-7.8214,-7.8608,-8.0115,-8.0785,-8.0708,-7.9169,0.0,-7.4196,-7.3297,0.0,0.0,0.0,0.0,0.0,0.0,0.0,0.0,0.0,0.0,0.0,0.0,0.0,0.0,0.0,0.0,0.0,0.0,0.0,0.0,0.0,0.0,-7.6015,-7.5592,-7.6169,-7.6399,-7.4976,-7.1091,-6.7167,-6.4589,-6.4089,-6.3281,0.0,0.0,0.0,0.0,0.0,0.0,-7.3129,-7.6438,-7.9169,-8.09,-8.1093,-8.0785,-8.0054,-7.9399,-7.8357,-7.6684,-7.4151,-7.1766,-6.9646,-6.4938,0.0,0.0,0.0,0.0,0.0,0.0,0.0,0.0,0.0,0.0,0.0,0.0,0.0,0.0,0.0,0.0,0.0,0.0,0.0,0.0,0.0,0.0,0.0,0.0,0.0,0.0,0.0,0.0,0.0,-6.1319,-6.4184,-6.5361,-6.5846,-6.5312,0.0,0.0,0.0,0.0,0.0,0.0,0.0,0.0,0.0,-7.165,-7.1485,-7.2894,-7.617,-7.6495,-7.7777,-8.0068,-8.0828,-8.1461,-8.1939,-8.2708,-8.3016,-8.3016,-8.2785,-8.1554,-7.95,-7.6901,-7.519,-7.3896,0.0,0.0,0.0,0.0,-6.8115,-6.8014,-6.9882,-7.1629,-7.2717,-7.0746,0.0,0.0,0.0,0.0,0.0,0.0,0.0,-6.8744,-7.0167,-7.3168,-7.6092,-7.7169,-7.8438,-7.9208,-7.8323,-7.6015,-7.2899,-6.8898,-6.8129,-6.7205,-6.4166,-6.3858,0.0,0.0,0.0,-7.1668,-7.5168,-7.7746,-7.9708,-8.0977,-8.1093,-8.0746,-7.9862,-7.9354,-7.8591,-7.7346,-7.523,-7.3348,-7.1833,-6.8138,-6.493,0.0,0.0,0.0,0.0,0.0,0.0,0.0,0.0,0.0,0.0,0.0,0.0,0.0,0.0,0.0,0.0,0.0,0.0,0.0,0.0,0.0,0.0,0.0,0.0,0.0,0.0,0.0,0.0,-6.3647,-6.5935,-6.6709,-6.7694,-6.7279,0.0,0.0,0.0,0.0,0.0,0.0,-7.0846,-7.1044,-7.2494,-7.56,-7.5632,-7.7068,-8.0087,-8.0572,-8.1545,-8.3005,-8.3005,-8.3313,-8.3939,-8.4132,-8.4247,-8.4286,-8.4939,-8.4824,-8.3939,-8.0362,-7.8068,-7.6629,-7.508,-7.2946,-7.0907,-7.1852,-7.1822,-7.1552,-7.3245,-7.463,-7.5432,-7.4018,-7.3538,-7.2895,-6.9735,0.0,0.0,0.0,0.0,-7.0206,-7.2283,-7.4399,-7.6476,-7.8361,-7.9977,-8.0862,-7.9977,-7.9285,-7.7515,-7.3053,-7.2014,-7.086,-6.7705,-6.7013,0.0,-6.8821,-7.086,-7.3437,-7.6861,-7.8746,-8.0131,-8.1016,-8.09,-8.0431,-7.9611,-7.9022,-7.8379,-7.7548,-7.5581,-7.4056,-7.3251,-7.0603,-6.7789,-6.4889,0.0,0.0,0.0,0.0,0.0,0.0,0.0,0.0,0.0,0.0,0.0,0.0,0.0,0.0,0.0,0.0,0.0,0.0,0.0,0.0,0.0,0.0,0.0,0.0,0.0,0.0,0.0,0.0,0.0,-6.686,-7.0872,0.0,0.0,0.0,0.0,-6.723,-6.8613,-7.0906,-7.3989,-7.3773,-7.5521,-7.9958,-7.9009,-7.9526,-8.1848,-8.1168,-8.1809,-8.3824,-8.3844,-8.4193,-8.4863,-8.5632,-8.5978,-8.5978,-8.6017,-8.6017,-8.5824,-8.4016,-8.2324,-8.0577,-7.8092,-7.6515,-7.5639,-7.5707,-7.5707,-7.5938,-7.7592,-7.8246,-7.8438,-7.9154,-7.8308,-7.6399,-7.3,-7.1385,0.0,0.0,-7.1398,-7.3437,-7.4361,-7.7053,-7.9592,-7.9708,-8.0439,-8.0862,-7.9977,-7.9785,-7.8938,-7.6245,-7.5091,-7.3707,-7.1091,0.0,-7.2552,-7.1014,-7.3591,-7.613,-7.7169,-7.8746,-8.0131,-8.1016,-8.0362,-7.9586,-7.8897,-7.8142,-7.7389,-7.6684,-7.5001,-7.3955,-7.3762,-7.1252,-6.9325,-6.8193,-6.414,0.0,0.0,0.0,0.0,0.0,0.0,0.0,0.0,0.0,0.0,0.0,0.0,0.0,0.0,0.0,0.0,0.0,0.0,0.0,0.0,0.0,0.0,0.0,0.0,0.0,0.0,0.0,0.0,-6.8526,-7.1419,0.0,-6.9326,-7.076,-7.1664,-7.1206,-7.3676,-7.6106,-7.8171,-7.8591,-7.9598,-8.1319,-8.0934,-8.1568,-8.3411,-8.3136,-8.3771,-8.5315,-8.5315,-8.5441,-8.567,-8.5978,-8.6094,-8.6094,-8.6094,-8.6094,-8.6017,-8.4901,-8.4093,-8.3324,-8.1323,-8.0015,-7.9323,-7.9862,-7.9361,-7.8631,-7.9785,-8.0169,-8.0131,-7.99,-7.9015,-7.7823,-7.663,-7.5668,-7.4976,-7.4668,-7.5245,-7.6015,-7.6284,-7.8092,-7.9823,-7.9823,-8.0477,-8.1016,-8.0708,-8.0208,-7.9515,-7.8631,-7.7323,-7.5745,-7.3707,-7.386,-7.4245,-7.4207,-7.5707,-7.7323,-7.8746,-7.9939,-8.0746,-8.1054,-8.0428,-7.9636,-7.8693,-7.8053,-7.7157,-7.5836,-7.4629,-7.3752,-7.3176,-7.1591,-7.0279,-6.9369,-6.737,-6.3903,0.0,0.0,0.0,0.0,0.0,0.0,0.0,0.0,0.0,0.0,0.0,0.0,0.0,0.0,0.0,0.0,0.0,0.0,0.0,0.0,0.0,0.0,0.0,0.0,0.0,-6.6608,-6.9417,-6.9569,-7.2696,-7.4008,-7.192,-7.37,-7.5034,-7.517,-7.7615,-7.9653,-8.0893,-8.1237,-8.1669,-8.2304,-8.2341,-8.2927,-8.4179,-8.4396,-8.5037,-8.6094,-8.6094,-8.6094,-8.6094,-8.6094,-8.6094,-8.6094,-8.6094,-8.6094,-8.6055,-8.5247,-8.4901,-8.4747,-8.2978,-8.2131,-8.1939,-8.19,-8.1362,-8.0708,-8.0977,-8.1093,-8.0977,-8.0092,-7.94,-7.8861,-7.8592,-7.813,-7.7707,-7.7707,-7.79,-7.813,-7.813,-7.9208,-8.0246,-8.0246,-8.0669,-8.1093,-8.1093,-8.0669,-8.0169,-7.9862,-7.8438,-7.6746,-7.5014,-7.4476,-7.4399,-7.4668,-7.5476,-7.6515,-7.79,-7.9323,-8.0208,-8.0208,-8.0151,-7.9685,-7.8693,-7.7322,-7.6303,-7.5758,-7.3783,-7.278,-7.3099,-7.127,-6.9993,-6.9458,-6.7542,-6.4364,-5.9972,0.0,0.0,0.0,0.0,0.0,0.0,0.0,0.0,0.0,0.0,0.0,0.0,0.0,0.0,0.0,0.0,0.0,0.0,0.0,0.0,0.0,0.0,0.0,-6.4531,-6.9013,-7.1452,-6.9992,-7.5011,-7.7671,-7.5315,-7.8553,-8.0225,-7.8792,-7.9999,-8.114,-8.1969,-8.1379,-8.1686,-8.3123,-8.3161,-8.3515,-8.4241,-8.4785,-8.5399,-8.6094,-8.6094,-8.6094,-8.6094,-8.6094,-8.6094,-8.6094,-8.6094,-8.6094,-8.6055,-8.5247,-8.4901,-8.4747,-8.3016,-8.2824,-8.3362,-8.1731,-8.1577,-8.2115,-8.1362,-8.1093,-8.0977,-8.0131,-7.9862,-7.9669,-7.8823,-7.8554,-7.8515,-7.8515,-7.9131,-7.9823,-7.9823,-8.0439,-8.1093,-8.1093,-8.1093,-8.1093,-8.1093,-8.1093,-8.0823,-7.9977,-7.8477,-7.6784,-7.5091,-7.413,-7.3322,-7.2514,-7.3129,0.0,-7.4784,-7.7053,-7.8554,-7.8515,-7.9482,-7.9741,-7.8789,-7.5883,-7.4809,-7.6419,-7.2415,-7.1141,-7.3633,-7.0322,-6.8538,-6.8692,-6.4541,-6.2485,-6.262,0.0,0.0,0.0,0.0,0.0,0.0,0.0,0.0,0.0,0.0,0.0,0.0,0.0,0.0,0.0,0.0,0.0,0.0,0.0,0.0,0.0,-6.4347,-6.6859,-6.7642,-6.9915,-7.2392,-7.4896,-7.7212,-7.8762,-7.9129,-7.972,-8.0362,-8.1013,-8.0984,-8.1286,-8.2097,-8.1948,-8.2276,-8.3161,-8.2702,-8.3209,-8.4828,-8.4583,-8.4995,-8.6094,-8.6094,-8.6094,-8.6094,-8.6094,-8.6094,-8.6094,-8.6094,-8.6094,-8.6055,-8.5247,-8.4901,-8.4786,-8.367,-8.2978,-8.2561,-8.1663,-8.1059,-8.0731,-8.1019,-8.1093,-8.1054,-8.0823,-8.0746,-8.0708,-8.0477,-7.9939,-7.9438,-7.9438,-7.9631,-7.9823,-7.9823,-8.0439,-8.1093,-8.1093,-8.1093,-8.1093,-8.1093,-8.1093,-8.0823,-7.9977,-7.89,-7.7823,-7.6784,-7.5861,-7.563,-7.663,-7.6976,-7.7669,-7.9169,-7.9939,-7.99,-7.8631,-7.9469,-7.9209,-7.6968,-7.6653,-7.6002,-7.4577,-7.3249,-7.2327,-7.1908,-7.0811,-7.0285,-7.0465,-6.7019,-6.521,0.0,0.0,0.0,0.0,0.0,0.0,0.0,0.0,0.0,0.0,0.0,0.0,0.0,0.0,0.0,0.0,0.0,0.0,0.0,0.0,0.0,0.0,-6.6769,-6.9779,-7.077,-7.2312,-7.4294,-7.698,-7.8369,-7.9664,-8.1159,-8.1289,-8.157,-8.2416,-8.2445,-8.2386,-8.2219,-8.2517,-8.2866,-8.3161,-8.3074,-8.3693,-8.51,-8.5037,-8.5378,-8.6094,-8.6094,-8.6094,-8.6094,-8.6094,-8.6094,-8.6094,-8.6094,-8.6094,-8.6055,-8.5593,-8.4978,-8.4286,0.0,0.0,0.0,0.0,-8.1244,-8.0591,-8.0975,-8.1093,-8.1093,-8.1093,-8.1093,-8.1093,-8.1093,-8.0746,-8.0323,-8.0323,-8.0323,-8.0323,-8.0323,-8.0708,-8.1093,-8.1093,-8.1093,-8.1093,-8.1093,-8.0823,-8.04,-7.99,-7.8823,0.0,-7.7361,-7.5976,-7.5284,-7.6245,-7.6399,-7.7015,-7.8746,-7.9592,-7.9631,-7.8592,-7.9778,-7.9842,-7.7776,-7.6989,0.0,0.0,0.0,-7.1388,-7.0069,-6.9972,0.0,0.0,0.0,0.0,0.0,0.0,0.0,0.0,-6.402,-6.3377,0.0,0.0,0.0,0.0,0.0,0.0,0.0,0.0,0.0,0.0,0.0,0.0,0.0,0.0,0.0,0.0,-6.7981,-7.1321,-7.3634,-7.5411,-7.6734,-7.7488,-7.9001,-8.0577,-8.2006,-8.2779,-8.3227,-8.3338,-8.3922,-8.3787,-8.2513,-8.3067,0.0,0.0,0.0,-8.4609,-8.5367,-8.5989,-8.6274,-8.6247,-8.6363,-8.6286,-8.6094,-8.6209,-8.6209,-8.6094,-8.6094,-8.6094,-8.6094,-8.6017,-8.4978,-8.3362,-8.2516,-8.2599,-8.3105,-8.2423,-8.1676,-8.0991,-8.1077,0.0,0.0,-8.1093,-8.1093,-8.1093,-8.1093,-8.1093,-8.1093,-8.1093,-8.1093,-8.1093,-8.1093,-8.1093,-8.1093,-8.1093,-8.1093,-8.1093,-8.1093,-8.0477,-7.9939,-7.9823,-7.8515,-7.74,-7.7323,-7.5322,-7.386,-7.4053,-7.4053,-7.4668,-7.6361,-7.7861,-7.8707,-7.853,-8.0215,0.0,-7.9507,-7.7069,-7.6128,-7.7218,-7.2877,-6.9853,-6.8859,-6.8953,-6.8274,-6.666,-6.6811,-6.754,-6.8844,-6.8924,-6.9656,-7.0898,-6.5699,-6.4839,0.0,0.0,0.0,0.0,0.0,0.0,0.0,0.0,0.0,0.0,0.0,0.0,0.0,0.0,0.0,-6.8531,-7.1211,-7.3597,-7.5395,-7.7493,-7.8932,-7.927,-8.0489,-8.1777,-8.2873,-8.3115,-8.345,-8.4092,-8.3787,-8.3746,-8.4095,-8.3691,-8.3935,-8.5105,-8.4637,-8.5259,-8.7121,-8.7305,-8.7294,-8.7171,-8.7863,0.0,-8.6132,-8.6824,-8.6748,-8.6094,-8.6094,-8.6094,-8.6055,-8.5401,-8.4093,-8.2477,-8.1631,-8.1112,-8.0811,-8.1195,-8.0903,-8.037,-8.0888,-8.1093,-8.1093,-8.1093,-8.1093,-8.1093,-8.1093,-8.1093,0.0,-8.1093,-8.1093,-8.1093,-8.1093,-8.1093,-8.1093,-8.1093,-8.1093,-8.1093,-8.1093,-8.0977,-8.0631,-7.9939,-7.8977,-7.8054,-7.74,-7.6322,-7.5976,-7.7323,-7.7515,-7.8169,-7.99,-8.04,-8.0054,-7.8631,-8.0091,-7.9952,-7.6976,-7.7453,-7.7109,-7.5358,-7.3727,-7.2415,-7.1514,-7.1491,-7.103,-6.999,-7.0015,-7.0169,-7.0452,-7.0452,-7.0965,-7.1898,-7.0067,-6.9951,0.0,0.0,0.0,0.0,0.0,0.0,0.0,0.0,0.0,0.0,0.0,-6.3085,-6.4321,0.0,-6.9449,-7.1027,-7.367,-7.5912,-7.702,-7.8871,-8.004,-7.9816,-8.1028,-8.2372,-8.3665,-8.3507,-8.375,-8.4919,-8.4769,-8.4609,-8.4609,-8.4609,-8.4894,-8.5589,-8.5536,-8.6178,-8.7578,-8.756,-8.7481,-8.7401,-8.7401,-8.694,-8.6094,-8.6555,-8.6517,-8.6094,-8.6094,-8.6094,-8.6017,-8.4747,-8.3747,-8.2824,-8.1593,-8.0888,-8.0626,-8.0975,-8.0871,-8.0643,-8.0975,-8.1093,-8.1093,-8.1093,-8.1093,-8.1093,-8.1093,-8.1093,-8.1093,-8.1093,-8.1093,-8.1093,-8.1093,-8.1093,-8.1093,-8.1093,-8.1093,-8.1093,-8.1093,-8.0746,-8.0323,-7.99,-7.8784,-7.7746,-7.7361,-7.6592,-7.6438,-7.7707,-7.79,-7.8361,-7.9631,-7.9785,-7.9477,-7.8592,-7.9285,-7.9092,-7.74,-7.763,-7.6976,-7.4861,-7.4322,-7.3514,-7.2245,-7.2206,-7.1783,-7.0937,-7.0991,-7.0991,-7.0898,-7.0991,-7.1454,-7.2168,-7.1745,-7.2014,0.0,0.0,0.0,0.0,0.0,0.0,0.0,-6.0165,-6.1271,-6.2491,-6.4076,-6.5665,-6.7178,-6.993,-7.2312,-7.3303,-7.5586,-7.759,-7.8443,-7.9977,-8.0716,-8.0079,-8.131,-8.2706,-8.4072,-8.3835,-8.4147,-8.5534,-8.5742,-8.56,-8.5086,-8.5527,-8.589,-8.6073,-8.6567,-8.7179,-8.7845,-8.7885,-8.7709,-8.7401,-8.6863,-8.644,-8.6094,-8.6286,-8.6247,-8.6094,-8.6094,-8.594,-8.5517,-8.417,-8.3401,-8.2978,-8.1631,-8.1093,-8.1093,-8.1093,-8.1093,-8.1093,-8.1093,-8.1093,-8.1093,-8.1093,-8.1093,-8.1093,-8.1093,-8.1093,-8.1093,-8.1093,-8.1093,-8.1093,-8.1093,-8.1093,-8.1093,-8.1093,-8.1093,-8.1093,-8.1093,-8.0554,-8.0015,-7.9823,-7.8554,-7.7476,-7.7323,-7.6707,-7.6476,-7.7169,-7.7284,-7.7592,-7.84,-7.8477,-7.8477,-7.8477,-7.8477,-7.8438,-7.8284,-7.7515,-7.6438,-7.5053,-7.4938,-7.4284,-7.2745,-7.2552,-7.2052,-7.1168,-7.1166,-7.105,-7.0898,-7.105,-7.1591,-7.2437,-7.2437,-7.2899,-5.2527,-5.3115,-5.4766,-5.6308,-5.779,-5.9859,0.0,-6.382,-6.4208,-6.7046,-6.9039,-7.0554,-7.1391,-7.3172,-7.4992,-7.6503,-7.7053,-7.7849,-7.9412,-8.0896,-8.1599,-8.0924,-8.1997,-8.2998,-8.3438,-8.3985,-8.4707,-8.5692,-8.5778,-8.6077,-8.6701,-8.6151,-8.6406,-8.7779,-8.7797,-8.805,-8.876,-8.9343,-8.8863,-8.7401,-8.8094,-8.7594,-8.6132,-8.6901,-8.6824,-8.6094,-8.6094,-8.5247,-8.3862,-8.367,-8.2708,-8.1362,-8.117,-8.1093,-8.1093,-8.1093,-8.1093,-8.1093,-8.1093,-8.1093,-8.1093,-8.1093,-8.1093,-8.1093,-8.1093,-8.1093,-8.1093,-8.1093,-8.1093,-8.1093,-8.1093,-8.1093,-8.1093,-8.1093,-8.1093,-8.1093,-8.1093,-8.1016,-8.0746,-7.9939,-7.9015,-7.813,-7.74,-7.7207,-7.7169,-7.7284,-7.7284,-7.7592,-7.84,-7.8477,-7.8477,-7.8477,-7.8477,-7.8207,-7.7476,-7.663,-7.6053,-7.5861,-7.5861,-7.5438,-7.4476,-7.3745,-7.2937,-7.2052,-7.1324,-7.0939,-7.0898,-7.0939,-7.1786,-7.336,-7.336,-7.3783,-5.6638,-5.6712,-5.7336,-6.086,-6.2622,-6.3847,-6.5445,-6.6196,-6.6865,-6.8034,-7.0132,-7.1904,-7.2655,-7.5139,-7.7268,-7.7965,-7.8846,-7.981,-8.0955,-8.1673,-8.2129,-8.2281,-8.2423,-8.2904,-8.3978,-8.4792,-8.5595,-8.6442,-8.6518,-8.6664,-8.6995,-8.6701,-8.6996,-8.8076,-8.7957,-8.8177,-8.8875,-8.8614,-8.8094,-8.7401,-8.7248,-8.6824,-8.6094,-8.6478,-8.644,-8.6094,-8.6094,-8.544,-8.4324,-8.3824,-8.2901,-8.1747,-8.1285,-8.1093,-8.1093,-8.1093,-8.1093,-8.1093,-8.1093,-8.1093,-8.1093,-8.1093,-8.1093,-8.1093,-8.1093,-8.1093,-8.1093,-8.1093,-8.1093,-8.1093,-8.1093,-8.1093,-8.1093,-8.1093,-8.1093,-8.1093,-8.1093,-8.1093,-8.0977,-8.0631,-7.9438,-7.84,-7.8054,-7.7592,-7.713,-7.663,-7.6976,-7.7246,-7.7053,-7.7053,-7.7053,-7.7053,-7.7053,-7.6899,-7.6553,-7.6207,-7.6015,-7.6015,-7.6015,-7.563,-7.4745,-7.3937,-7.3091,-7.2206,-7.1321,-7.0898,-7.0898,-7.0898,-7.1552,-7.2745,-7.3283,-7.3937,-5.8988,-5.9208,-5.9685,-6.3906,-6.5925,-6.6784,-6.6618,-6.7563,-6.8468,-6.8438,-7.0409,-7.2401,-7.3321,-7.6319,-7.8662,-7.8883,-8.0277,-8.1492,-8.1993,-8.2493,-8.2906,-8.3169,-8.2985,-8.3277,-8.4456,-8.511,-8.5894,-8.6921,-8.6995,-8.6995,-8.6995,-8.7197,-8.7614,-8.8367,-8.8187,-8.8364,-8.8838,-8.7881,-8.7286,-8.7017,-8.6401,-8.6094,-8.6094,-8.6094,-8.6094,-8.6094,-8.6094,-8.5517,-8.4478,-8.3862,-8.2939,-8.19,-8.1323,-8.1093,-8.1093,-8.1093,-8.1093,-8.1093,-8.1093,-8.1093,-8.1093,-8.1093,-8.1093,-8.1093,-8.1093,-8.1093,-8.1093,-8.1093,-8.1093,-8.1093,-8.1093,-8.1093,-8.1093,-8.1093,-8.1093,-8.1093,-8.1093,-8.1093,-8.1093,-8.1108,-8.0069,-7.903,-7.84,-7.813,-7.763,-7.6515,-7.7092,-7.7246,-7.613,-7.6015,-7.6015,-7.6015,-7.6015,-7.6015,-7.6015,-7.6015,-7.6015,-7.6015,-7.6015,-7.5707,-7.5091,-7.4284,-7.3437,-7.2591,-7.1706,-7.1129,-7.0898,-7.0898,-7.1475,-7.2552,-7.3206,-7.4053,-5.7629,-5.9171,-6.0933,-6.3503,-6.5888,-6.7595,-6.7352,-6.7903,-6.8603,-6.8973,-7.067,-7.2543,-7.3991,-7.6646,-7.8846,-7.9617,-8.1085,-8.215,-8.2182,-8.3429,-8.4054,-8.3301,-8.3868,-8.436,-8.4398,-8.4548,-8.5306,-8.6885,-8.6995,-8.6995,-8.6995,-8.7683,-8.8359,-8.9069,-8.8956,-8.882,-8.8692,-8.7825,-8.6978,-8.6132,-8.6094,-8.6094,-8.6094,-8.6094,-8.6094,-8.6094,-8.6094,-8.517,-8.3632,-8.3593,-8.2631,-8.1131,-8.1093,-8.1093,-8.1093,-8.1093,-8.1093,-8.1093,-8.1093,-8.1093,-8.1093,-8.1093,-8.1093,-8.1093,-8.1093,-8.1093,-8.1093,-8.1093,-8.1093,-8.1093,-8.1093,-8.1093,-8.1093,-8.1093,-8.1093,-8.1093,-8.1093,-8.1093,-8.1093,-8.1085,-8.1047,-8.03,-7.8115,-7.8846,-7.9169,-7.7515,-7.7938,-7.7861,-7.6207,-7.6015,-7.6015,-7.6015,-7.6015,-7.6015,-7.6015,-7.6015,-7.6015,-7.6015,-7.6015,-7.5976,-7.5976,-7.513,-7.4284,-7.3476,-7.2591,-7.1745,-7.0898,-7.0898,-7.1783,-7.3476,-7.35,-7.4399,-6.1153,-6.2438,-6.3429,-6.5852,-6.7907,-6.8945,-6.7603,-6.8363,-6.9095,-6.8463,-6.9906,-7.1798,-7.3285,-7.6355,-7.8846,-7.9653,-8.1599,-8.281,-8.226,-8.3549,-8.4041,-8.2707,-8.3229,-8.3746,-8.3746,-8.4663,-8.5745,-8.6851,-8.6894,-8.7116,-8.7709,-8.7991,-8.8426,-8.9095,-8.841,-8.8229,-8.8709,-8.7248,-8.6401,-8.6094,-8.6094,-8.6094,-8.6094,-8.6094,-8.5824,-8.5286,-8.5286,-8.4324,-8.2747,-8.2747,-8.2093,-8.1093,-8.1093,-8.1093,-8.1093,-8.1093,-8.1093,-8.1093,-8.1093,-8.1093,-8.1093,-8.1093,-8.1093,-8.1093,-8.1093,-8.1093,-8.1093,-8.1093,-8.1093,-8.1093,-8.1093,-8.1093,-8.1093,-8.1093,-8.1093,-8.1093,-8.1093,-8.1093,-8.1093,-8.1108,-8.1124,-8.0854,-8.0069,-7.9708,-7.9385,-7.9015,-7.7746,-7.663,-7.6053,-7.6015,-7.6015,-7.6015,-7.6015,-7.6015,-7.6015,-7.6015,-7.6015,-7.6015,-7.6015,-7.6015,-7.6015,-7.5168,-7.4591,-7.4322,-7.2937,-7.2322,-7.2629,-7.1475,-7.1783,-7.3514,-7.3514,-7.4091,-6.3429,-6.453,-6.5118,-6.754,-6.9119,-6.9675,-6.8099,-6.8752,-6.9377,-6.8156,-6.9524,-7.1266,-7.2541,-7.5487,-7.8075,-7.9176,-8.1415,-8.2884,-8.2663,-8.3954,-8.4479,-8.315,-8.3187,-8.3335,-8.3335,-8.4167,-8.512,-8.5998,-8.651,-8.7034,-8.7623,-8.8151,-8.8634,-8.9035,-8.8362,-8.8079,-8.8209,-8.6824,-8.6094,-8.6094,-8.6094,-8.6094,-8.6094,-8.6094,-8.567,-8.4901,-8.4901,-8.3901,-8.2285,-8.2285,-8.1823,-8.1093,-8.1093,-8.1093,-8.1093,-8.1093,-8.1093,-8.1093,-8.1093,-8.1093,-8.1093,-8.1093,-8.1093,-8.1093,-8.1093,-8.1093,-8.1093,-8.1093,-8.1093,-8.1093,-8.1093,-8.1093,-8.1093,-8.1093,-8.1093,-8.1093,-8.1093,-8.1093,-8.1093,-8.1093,-8.1108,-8.1108,-8.1108,-8.0208,-7.95,-7.9361,-7.7707,-7.6476,-7.6476,-7.6207,-7.6015,-7.6015,-7.6015,-7.6015,-7.6015,-7.6015,-7.6015,-7.6015,-7.6015,-7.6015,-7.6015,-7.5476,-7.5014,-7.4707,-7.363,-7.3245,-7.3514,-7.2399,-7.2552,-7.3937,-7.3937,-7.4361,-6.4347,-6.5411,-6.5999,-6.8311,-6.9486,-6.9821,-6.8808,-6.9141,-6.931,-6.811,-6.9358,-7.0877,-7.1586,-7.404,-7.6497,-7.8148,-8.0571,-8.2549,-8.3353,-8.4725,-8.5358,-8.4501,-8.3748,-8.3227,-8.3132,-8.3189,-8.3574,-8.4448,-8.5893,-8.6825,-8.6988,-8.8275,-8.8997,-8.8891,-8.8729,-8.8248,-8.7401,-8.6555,-8.6094,-8.6094,-8.6094,-8.6094,-8.6094,-8.6094,-8.5632,-8.4824,-8.4824,-8.3862,-8.2247,-8.2247,-8.1785,-8.1093,-8.1093,-8.1093,-8.1093,-8.1093,-8.1093,-8.1093,-8.1093,-8.1093,-8.1093,-8.1093,-8.1093,-8.1093,-8.1093,-8.1093,-8.1093,-8.1093,-8.1093,-8.1093,-8.1093,-8.1093,-8.1093,-8.1093,-8.1093,-8.1093,-8.1093,-8.1093,-8.1093,-8.1093,-8.1093,-8.1093,-8.1093,-8.04,-7.9592,-7.8746,-7.79,-7.7323,-7.7246,-7.6515,-7.6015,-7.6015,-7.6015,-7.6015,-7.6015,-7.6015,-7.6015,-7.6015,-7.6015,-7.6015,-7.6015,-7.6015,-7.563,-7.4784,-7.4707,-7.4361,-7.363,-7.3538,-7.3937,-7.4784,-7.4707,-7.5168,-6.6329,-6.71,-6.7393,-6.8605,-6.9486,-7.0002,-6.9629,-6.9265,-6.8687,-6.7655,-6.7472,-6.7514,-6.7729,-7.1338,-7.4661,-7.5689,-7.9947,-8.3332,-8.4063,-8.5499,-8.5991,-8.4568,-8.4232,-8.3663,-8.2534,-8.2906,-8.3289,-8.3529,-8.4928,-8.6543,-8.8284,-8.8106,-8.8264,-8.8875,-8.8153,-8.7632,-8.7401,-8.6555,-8.6094,-8.6094,-8.6094,-8.6094,-8.6094,-8.6094,-8.5324,-8.3939,-8.3939,-8.2978,-8.14,-8.14,-8.1285,-8.1093,-8.1093,-8.1093,-8.1093,-8.1093,-8.1093,-8.1093,-8.1093,-8.1093,-8.1093,-8.1093,-8.1093,-8.1093,-8.1093,-8.1093,-8.1093,-8.1093,-8.1093,-8.1093,-8.1093,-8.1093,-8.1093,-8.1093,-8.1093,-8.1093,-8.1093,-8.1093,-8.1093,-8.1093,-8.1093,-8.1093,-8.1093,-8.0939,-8.0708,-8.0477,-7.9169,-7.7746,-7.6476,-7.613,-7.6015,-7.6015,-7.6015,-7.6015,-7.6015,-7.6015,-7.6015,-7.6015,-7.6015,-7.6015,-7.6015,-7.6015,-7.5899,-7.5668,-7.5014,-7.4938,-7.5361,-7.413,-7.4245,-7.5668,-7.5014,-7.5168,-6.7577,-6.8238,-6.8495,-6.9669,-7.0293,-7.0229,-6.8674,-6.8215,-6.7478,-6.516,-6.5219,-6.5845,-6.6241,-6.9784,-7.3266,-7.5139,-7.9323,-8.2955,-8.4666,-8.6021,-8.6623,-8.5984,-8.5021,-8.4057,-8.3263,-8.3217,-8.3331,-8.3624,-8.4743,-8.6109,-8.7709,-8.7376,-8.7376,-8.7769,-8.6976,-8.6488,-8.6392,-8.6184,-8.6094,-8.6094,-8.6094,-8.6094,-8.6094,-8.6094,-8.5209,-8.3593,-8.3593,-8.2631,-8.1093,-8.1093,-8.1093,-8.1131,-8.1477,-8.14,-8.1131,-8.1516,-8.14,-8.1093,-8.1093,-8.1093,-8.1093,-8.1093,-8.1093,-8.1093,-8.1093,-8.1093,-8.1093,-8.1093,-8.1093,-8.1093,-8.1093,-8.1093,-8.1093,-8.1093,-8.1093,-8.1093,-8.1093,-8.1093,-8.1093,-8.1093,-8.1093,-8.1093,-8.1093,-8.1093,-8.0977,-8.0592,-7.9708,-7.8592,-7.7284,-7.6476,-7.6015,-7.6015,-7.6015,-7.6015,-7.6015,-7.6015,-7.6015,-7.6015,-7.6015,-7.6015,-7.6015,-7.6015,-7.6015,-7.6015,-7.5515,-7.5515,-7.6015,-7.5053,-7.5091,-7.5976,-7.5515,-7.5515,-6.8458,-6.9082,-6.9412,-7.0889,-7.1293,-7.0435,-6.7218,-6.694,-6.6243,-6.2188,-6.2955,-6.4694,-6.5633,-6.8434,-7.1691,-7.5029,-7.829,-8.1605,-8.503,-8.619,-8.7004,-8.7903,-8.6041,-8.4629,-8.4545,-8.3807,-8.3624,-8.4276,-8.4981,-8.5673,-8.6358,-8.6388,-8.6294,-8.6121,-8.5551,-8.521,-8.51,-8.5682,-8.5988,-8.6094,-8.6094,-8.6094,-8.6094,-8.6094,-8.5247,-8.3747,-8.3632,-8.2708,-8.1246,-8.1131,-8.1093,-8.117,-8.1862,-8.1708,-8.117,-8.1862,-8.1708,-8.1093,-8.1093,-8.1093,-8.1093,-8.1093,-8.1093,-8.1093,-8.1093,-8.1093,-8.1093,-8.1093,-8.1093,-8.1093,-8.1093,-8.1093,-8.1093,-8.1093,-8.1093,-8.1093,-8.1093,-8.1093,-8.1093,-8.1093,-8.1093,-8.1093,-8.1093,-8.1093,-8.0823,-8.0092,-7.9862,-7.9515,-7.8746,-7.7284,-7.6284,-7.6169,-7.6169,-7.613,-7.6015,-7.6015,-7.6015,-7.6015,-7.6015,-7.6015,-7.6015,-7.6015,-7.6015,-7.6015,-7.6015,-7.6015,-7.6015,-7.6015,-7.6015,-7.6015,-7.6015,-7.6015,-6.9596,-6.9889,-7.011,-7.1064,-7.1293,-7.0645,-6.8138,-6.7092,-6.5715,-6.2335,-6.1398,-6.1652,-6.3152,-6.5324,-6.8246,-7.2209,-7.5384,-7.9212,-8.4468,-8.5332,-8.6251,-8.8461,-8.7154,-8.5819,-8.5285,-8.4519,-8.4276,-8.4893,-8.5088,-8.5512,-8.6341,-8.5761,-8.5104,-8.4599,-8.4479,-8.4642,-8.51,-8.5202,-8.5551,-8.6094,-8.6094,-8.6094,-8.6094,-8.6094,-8.5593,-8.4632,-8.3901,-8.3016,-8.2054,-8.1362,-8.1093,-8.1093,-8.1246,-8.1208,-8.1131,-8.1246,-8.1208,-8.1093,-8.1093,-8.1093,-8.1093,-8.1093,-8.1093,-8.1093,-8.1093,-8.1093,-8.1093,-8.1093,-8.1093,-8.1093,-8.1093,-8.1093,-8.1093,-8.1093,-8.1093,-8.1093,-8.1093,-8.1093,-8.1093,-8.1093,-8.1093,-8.1093,-8.1093,-8.1093,-8.1054,-8.09,-8.0246,-7.9746,-7.9592,-7.8669,-7.7823,-7.713,-7.7053,-7.6784,-7.6053,-7.6015,-7.6015,-7.6015,-7.6015,-7.6015,-7.6015,-7.6015,-7.6015,-7.6015,-7.6015,-7.6015,-7.6015,-7.6015,-7.6015,-7.6015,-7.6015,-7.6015,-6.9376,-7.011,-7.0917,-7.1725,-7.1553,-7.0247,-6.6714,-6.5488,-6.3947,-6.0015,-5.9502,-6.0367,-6.2244,-6.447,-6.7276,-7.1275,-7.4905,-7.8784,-8.3188,-8.5291,-8.7149,-8.919,-8.8418,-8.74,-8.6655,-8.5835,-8.5167,-8.4666,-8.4915,-8.5273,-8.5693,-8.4703,-8.3824,-8.3189,-8.3488,-8.3979,-8.4628,-8.4936,-8.5418,-8.6094,-8.6094,-8.6094,-8.6094,-8.6094,-8.567,-8.4901,-8.4478,-8.3785,-8.2901,-8.2054,-8.1708,-8.1708,-8.1708,-8.1477,-8.1131,-8.1554,-8.1477,-8.1093,-8.1093,-8.1093,-8.1093,-8.1093,-8.1093,-8.1093,-8.1093,-8.1093,-8.1093,-8.1093,-8.1093,-8.1093,-8.1093,-8.1093,-8.1093,-8.1093,-8.1093,-8.1093,-8.1093,-8.1093,-8.1093,-8.1093,-8.1093,-8.1093,-8.1093,-8.1093,-8.1093,-8.1093,-8.0746,-8.0477,-8.0477,-8.0092,-7.9361,-7.8054,-7.7553,-7.713,-7.6707,-7.6245,-7.6015,-7.6015,-7.6015,-7.6015,-7.6015,-7.6015,-7.6015,-7.6015,-7.6015,-7.6015,-7.6015,-7.6015,-7.6015,-7.6015,-7.6015,-7.6015,-6.9486,-7.0587,-7.1668,-7.2109,-7.1635,-6.9832,-6.4914,-6.3804,-6.2501,-5.7861,-5.7984,-5.9688,-6.2203,-6.4,-6.6555,-7.0897,-7.4124,-7.7476,-8.1494,-8.4591,-8.7197,-8.9186,-8.9094,-8.8492,-8.7527,-8.6629,-8.5638,-8.4481,-8.4718,-8.485,-8.4718,-8.3613,-8.2732,-8.2219,-8.2702,-8.335,-8.4179,-8.4673,-8.532,-8.6094,-8.6094,-8.6094,-8.6094,-8.6094,-8.5747,-8.517,-8.4978,-8.4401,-8.3516,-8.267,-8.2208,-8.2054,-8.2054,-8.167,-8.117,-8.1823,-8.1631,-8.1093,-8.1093,-8.1093,-8.1093,-8.1093,-8.1093,-8.1093,-8.1093,-8.1093,-8.1093,-8.1093,-8.1093,-8.1093,-8.1093,-8.1093,-8.1131,-8.1323,-8.1362,-8.1362,-8.1362,-8.1362,-8.1323,-8.1131,-8.1093,-8.1093,-8.1093,-8.1093,-8.1093,-8.1093,-8.1093,-8.1093,-8.1093,-8.1093,-8.0592,-7.9208,-7.8323,-7.7746,-7.7553,-7.6938,-7.6476,-7.6284,-7.6284,-7.6207,-7.6015,-7.6015,-7.6015,-7.6015,-7.6015,-7.6015,-7.6015,-7.6015,-7.6015,-7.6015,-7.6015,-7.6015,-7.1394,-7.2275,-7.2212,-7.1412,-7.1159,-6.9673,-6.4081,-6.3351,-6.2501,-5.7861,-5.7547,-5.9232,-6.2814,-6.2816,-6.4273,-7.034,-7.0821,-7.2747,-7.94,-8.1757,-8.4045,-8.7478,-8.8385,-8.8133,-8.667,-8.5731,-8.5176,-8.5037,-8.456,-8.4029,-8.3405,-8.2708,-8.2284,-8.2186,-8.2284,-8.2913,-8.4179,-8.4252,-8.491,-8.6094,-8.6094,-8.6094,-8.6094,-8.6094,-8.6055,-8.594,-8.5209,-8.4401,-8.3516,-8.267,-8.1862,-8.1208,-8.1208,-8.117,-8.1093,-8.117,-8.117,-8.1093,-8.1093,-8.1093,-8.1093,-8.1093,-8.1093,-8.1093,-8.1093,-8.1093,-8.1093,-8.1093,-8.1093,-8.1093,-8.1093,-8.1093,-8.1285,-8.2016,-8.217,-8.217,-8.217,-8.217,-8.1977,-8.1246,-8.1093,-8.1093,-8.1093,-8.1093,-8.1093,-8.1093,-8.1093,-8.1093,-8.1093,-8.1093,-8.1054,-8.0862,-8.0092,-7.9246,-7.8438,-7.8323,-7.7938,-7.7207,-7.7169,-7.6823,-7.6015,-7.6015,-7.6015,-7.6015,-7.6015,-7.6015,-7.6015,-7.6015,-7.6015,-7.6015,-7.6015,-7.6015,-6.8678,-7.0991,-7.2871,-7.1463,-7.1488,-7.0346,-6.4655,-6.3591,-6.2614,-5.8432,-5.845,-5.9892,-6.2141,-6.2854,-6.4389,-6.8405,-6.954,-7.1784,-7.7111,-7.97,-8.2465,-8.6276,-8.7452,-8.7131,-8.5146,-8.5523,-8.5339,-8.4029,-8.335,-8.2883,-8.2616,-8.2343,-8.2186,-8.2186,-8.2585,-8.3246,-8.4216,-8.456,-8.522,-8.6094,-8.6094,-8.6094,-8.6094,-8.6094,-8.6094,-8.6055,-8.5247,-8.4709,-8.4286,-8.2862,-8.2093,-8.1785,-8.1285,-8.1093,-8.1093,-8.1093,-8.1093,-8.1093,-8.1093,-8.1093,-8.1093,-8.1093,-8.1093,-8.1093,-8.1093,-8.1093,-8.1246,-8.1862,-8.1593,-8.1246,-8.19,-8.1593,-8.1439,-8.2747,-8.267,-8.2439,-8.2978,-8.3093,-8.2824,-8.1977,-8.1423,-8.1115,-8.1093,-8.1093,-8.1093,-8.1093,-8.1093,-8.1093,-8.1093,-8.1093,-8.1093,-8.1093,-8.0323,-7.9669,-7.9323,-7.8784,-7.8361,-7.8015,-7.8015,-7.763,-7.6823,-7.6784,-7.6553,-7.6015,-7.6015,-7.6015,-7.6015,-7.6015,-7.6015,-7.6015,-7.6015,-7.6015,-6.7026,-6.9853,-7.2395,-7.1354,-7.1167,-6.9909,-6.495,-6.3624,-6.2482,-5.9042,-5.9434,-6.0763,-6.2013,-6.3166,-6.4619,-6.6875,-6.8455,-7.0861,-7.5152,-7.7759,-8.0469,-8.3916,-8.4954,-8.4748,-8.3088,-8.4468,-8.4733,-8.3032,-8.2647,-8.2439,-8.2219,-8.2186,-8.2186,-8.2186,-8.2853,-8.3515,-8.4216,-8.4785,-8.5418,-8.6094,-8.6094,-8.6094,-8.6094,-8.6094,-8.6094,-8.6055,-8.5517,-8.5132,-8.4786,-8.3593,-8.2785,-8.2247,-8.167,-8.1323,-8.1093,-8.1093,-8.1093,-8.1093,-8.1093,-8.1093,-8.1093,-8.1093,-8.1093,-8.1093,-8.1093,-8.1093,-8.1246,-8.2032,-8.1862,-8.167,-8.2724,-8.2401,-8.2208,-8.3632,-8.3516,-8.3247,-8.3862,-8.3978,-8.3747,-8.307,-8.1962,-8.133,-8.1939,-8.1516,-8.1154,-8.1439,-8.1246,-8.1093,-8.1093,-8.1093,-8.1093,-8.1093,-8.0554,-8.0169,-8.0169,-7.9631,-7.9169,-7.89,-7.8861,-7.8515,-7.7669,-7.7438,-7.7015,-7.6399,-7.613,-7.6015,-7.6015,-7.6015,-7.6015,-7.6015,-7.6015,-7.6015,-6.7797,-6.9486,-7.0307,-7.0956,-6.994,-6.7858,-6.4554,-6.3192,-6.1948,-5.9664,-6.0263,-6.1603,-6.2843,-6.3546,-6.4444,-6.6129,-6.7104,-6.9181,-7.3699,-7.5771,-7.7652,-7.9912,-8.0477,-8.0612,-8.0448,-8.2147,-8.2935,-8.2284,-8.2823,-8.2876,-8.2251,-8.2186,-8.2186,-8.2186,-8.2853,-8.3515,-8.4179,-8.4806,-8.5418,-8.6094,-8.6094,-8.6094,-8.6094,-8.6094,-8.6094,-8.6094,-8.6094,-8.5632,-8.4901,-8.4901,-8.3862,-8.2285,-8.2285,-8.1785,-8.1093,-8.1093,-8.1093,-8.1093,-8.1093,-8.1093,-8.1093,-8.1093,-8.1093,-8.1093,-8.1093,-8.1093,-8.1093,-8.1093,-8.167,-8.2477,-8.3362,-8.3555,-8.3785,-8.467,-8.4901,-8.4901,-8.4901,-8.4901,-8.4786,-8.4433,-8.2615,-8.1814,-8.3994,-8.2554,-8.1369,-8.217,-8.1593,-8.1093,-8.1093,-8.1093,-8.1093,-8.1093,-8.1093,-8.1093,-8.1093,-8.1093,-8.0708,-7.9862,-7.9785,-7.94,-7.8515,-7.7707,-7.7284,-7.7284,-7.6438,-7.6015,-7.6015,-7.6015,-7.6015,-7.6015,-7.6015,-7.6015,-6.3122,-6.5742,-6.7387,-6.6342,-6.7048,-6.6834,-6.237,-6.2531,-6.2793,-5.9797,-6.096,-6.2636,-6.3011,-6.4267,-6.5695,-6.7,-6.7447,-6.9302,-7.422,-7.5856,-7.8027,-8.2019,-8.1807,-8.1606,-8.2243,-8.1429,-8.1255,-8.2145,-8.2407,-8.2402,-8.2219,-8.2186,-8.2439,-8.2883,-8.3543,-8.4203,-8.4806,-8.5475,-8.5902,-8.6094,-8.6094,-8.6094,-8.6094,-8.6094,-8.6094,-8.6055,-8.5517,-8.5132,-8.4824,-8.3593,-8.2785,-8.2247,-8.1708,-8.1323,-8.1093,-8.1093,-8.1093,-8.1093,-8.1093,-8.1077,-8.1231,-8.1939,-8.2477,-8.2785,-8.2785,-8.2801,-8.2894,-8.3263,-8.3725,-8.4132,-8.4439,-8.3593,-8.3208,-8.5247,-8.4863,-8.4324,-8.5478,-8.5709,-8.5517,-8.4863,-8.4632,-8.4362,-8.3917,-8.4202,-8.4202,-8.334,-8.2631,-8.2192,-8.2192,-8.2192,-8.2192,-8.2192,-8.2016,-8.1708,-8.1131,-8.1093,-8.0977,-8.0708,-8.0708,-8.0285,-7.9438,-7.9131,-7.8477,-7.7323,-7.7015,-7.6592,-7.6015,-7.6015,-7.6015,-7.6015,-7.6015,-7.6015,-6.0921,-6.3319,-6.4987,-6.4503,-6.5113,-6.4951,-6.1505,-6.1755,-6.2034,-5.9661,-6.1162,-6.288,-6.3087,-6.4296,-6.5834,-6.7365,-6.7199,-6.8572,-7.3563,-7.4466,-7.6141,-8.0199,-8.1208,-8.1541,-8.1487,-8.1229,-8.1396,-8.2145,-8.2186,-8.2186,-8.2186,-8.2186,-8.2468,-8.3094,-8.3828,-8.449,-8.51,-8.5737,-8.6094,-8.6094,-8.6094,-8.6094,-8.6094,-8.6094,-8.6094,-8.6055,-8.5555,-8.5363,0.0,-8.3862,-8.3093,-8.2708,-8.1862,-8.1362,-8.1093,-8.1093,-8.1093,-8.1131,-8.1439,-8.1538,-8.1769,-8.2955,-8.3609,-8.3917,-8.4055,-8.3878,-8.374,-8.4379,-8.4747,-8.4978,-8.5286,-8.4324,-8.3747,-8.567,-8.5055,-8.4439,-8.5824,-8.6094,-8.594,-8.544,-8.5747,-8.5764,-8.4709,-8.5395,-8.5758,-8.4686,-8.3478,-8.2692,-8.2692,-8.3077,-8.317,-8.2747,-8.2477,-8.1977,-8.117,-8.1093,-8.1093,-8.1093,-8.1093,-8.0862,-8.0323,-7.9977,-7.9323,-7.8246,-7.763,-7.7015,-7.6476,-7.6169,-7.6015,-7.6015,-7.6015,-7.6015,0.0,-6.1887,-6.2817,-6.4383,-6.3649,-6.2328,-6.152,-6.0884,0.0,-5.9402,-6.0944,-6.2545,-6.3087,-6.3916,-6.5196,-6.7235,-6.659,-6.7392,-7.1887,-7.2338,-7.3191,-7.5844,-7.932,-8.0847,-7.9081,-8.1459,-8.2883,-8.2251,-8.2186,-8.2186,-8.2186,-8.215,-8.2348,-8.286,-8.3613,-8.4324,-8.4971,-8.5601,-8.594,-8.594,-8.594,-8.594,-8.6017,-8.594,-8.5978,-8.6017,-8.594,-8.594,-8.5863,-8.5055,-8.4247,-8.3401,-8.2554,-8.1747,-8.1093,-8.1093,-8.1093,-8.1208,-8.1977,-8.2324,-8.267,-8.4071,-8.451,-8.4587,-8.4901,-8.4362,-8.3862,-8.4747,-8.4978,-8.517,-8.5901,-8.5517,-8.5093,-8.5901,-8.5478,-8.5132,-8.594,-8.6094,-8.6094,-8.6094,-8.6094,-8.6094,-8.6094,-8.611,-8.6088,-8.6088,-8.4286,-8.2962,-8.2962,-8.3878,-8.4125,-8.307,-8.2593,-8.2093,-8.1323,-8.117,-8.1093,-8.1093,-8.1093,-8.1093,-8.1093,-8.0323,-7.9862,-7.9823,-7.813,-7.7284,-7.7207,-7.6399,-7.6015,-7.6015,-7.6015,-7.6015,-5.8694,0.0,-5.9208,-5.9612,-5.9905,-5.9845,0.0,-5.9922,-6.0713,-5.9897,-6.1225,-6.2753,-6.3514,-6.4828,-6.6157,-6.7055,-6.769,-6.8701,-7.051,-7.4539,-7.7949,-7.9777,-8.2089,-8.3163,-8.2227,-8.2314,-8.2375,-8.2219,-8.2186,-8.2186,-8.2186,-8.1636,-8.1793,-8.286,-8.2519,-8.2819,-8.3926,-8.4121,-8.417,-8.417,-8.417,-8.4555,-8.517,-8.4478,-8.4555,-8.5132,-8.4478,-8.417,-8.4132,-8.3247,-8.2785,-8.2516,-8.1708,-8.1285,-8.1093,-8.1093,-8.1093,-8.1131,-8.1308,-8.2477,-8.4109,-8.5302,-8.5709,-8.5709,-8.5786,-8.5247,-8.4786,-8.5593,-8.5824,-8.5863,-8.6055,-8.5517,-8.5093,-8.5901,-8.5478,-8.5132,-8.594,-8.6094,-8.6094,-8.6094,-8.6094,-8.6094,-8.6094,-8.6094,-8.6094,-8.6094,-8.5632,-8.5324,-8.5324,-8.5517,-8.5593,-8.5324,-8.4093,-8.3208,-8.3016,-8.1823,-8.1093,-8.1093,-8.1093,-8.1093,-8.1093,-8.09,-8.0477,-7.9823,-7.813,-7.6976,-7.6322,-7.6092,-7.6015,-7.6015,-7.6015,-7.6015,-5.7997,-5.8253,-5.8547,-5.8547,-5.8854,-5.9168,-5.8925,-5.9452,-5.9946,-5.9719,-6.0748,-6.1874,-6.259,-6.3878,-6.5513,-6.7561,-6.7871,-6.8696,-7.1124,-7.5832,-7.9516,-8.0743,-8.286,-8.3928,-8.3275,-8.2883,-8.2528,-8.2219,-8.2186,-8.2039,-8.1672,-8.1232,-8.1237,-8.1729,-8.1325,-8.1934,-8.3593,-8.3593,-8.3593,-8.3593,-8.3593,-8.3862,-8.4286,-8.3824,-8.3862,-8.4286,-8.3785,-8.3593,-8.3516,-8.267,-8.2285,-8.2208,-8.14,-8.1323,-8.1593,-8.1246,-8.1323,-8.1631,-8.1654,-8.2978,-8.4802,-8.5786,-8.6094,-8.6094,-8.6094,-8.5786,-8.5555,-8.5978,-8.6094,-8.6094,-8.6094,-8.5517,-8.5093,-8.5901,-8.5478,-8.5132,-8.594,-8.6094,-8.6094,-8.6094,-8.6094,-8.6094,-8.6094,-8.6094,-8.6094,-8.6094,-8.6094,-8.6094,-8.6094,-8.6094,-8.5901,-8.5385,-8.467,-8.3862,-8.3054,-8.217,-8.1477,-8.1131,-8.1093,-8.1093,-8.1093,-8.1093,-8.0708,-7.9823,-7.89,-7.8015,-7.713,-7.713,-7.713,-7.713,-7.713,-7.713,-5.801,-5.8634,-5.9294,-5.9368,-5.9294,-5.9348,-5.9924,-5.9424,-5.8951,-5.9407,-6.0299,-6.1245,-6.194,-6.3137,-6.5217,-6.8743,-6.8337,-6.8799,-7.2397,-7.6195,-7.8945,-7.9906,-8.2195,-8.3486,-8.2902,-8.2731,-8.2453,-8.1884,-8.1819,-8.1525,-8.0865,-8.0718,-8.0541,-8.041,-8.0307,-8.1191,-8.3208,-8.3208,-8.3208,-8.3208,-8.3208,-8.3285,-8.3401,-8.3247,-8.3285,-8.3401,-8.3247,-8.3208,-8.317,-8.2401,-8.2131,-8.2054,-8.1516,-8.1708,-8.2208,-8.1516,-8.1747,-8.2324,-8.217,-8.3439,-8.517,-8.5747,-8.6017,-8.6094,-8.6094,-8.6094,-8.6094,-8.6094,-8.6094,-8.6094,-8.6094,-8.5593,-8.5247,-8.594,-8.5593,-8.5286,-8.594,-8.6094,-8.6094,-8.6094,-8.6094,-8.6094,-8.6094,-8.6094,-8.6094,-8.6094,-8.6094,-8.6094,-8.6094,-8.6094,-8.5747,-8.4769,-8.4808,-8.4247,-8.2631,-8.2362,-8.1939,-8.1131,-8.1093,-8.1093,-8.1093,-8.1093,-8.0708,-7.9823,-7.9823,-7.9361,-7.8477,-7.8477,-7.8477,-7.8477,-7.8477,-7.8477,-5.799,-5.876,-5.965,-6.0102,-5.9698,-5.9495,-6.063,-6.0076,-5.9424,-5.9901,-6.1534,-6.3373,-6.4936,-6.6878,-6.9001,-7.1313,-7.1289,-7.148,-7.273,-7.4905,-7.6855,-7.8125,-8.0104,-8.1279,-8.1168,-8.0674,-8.0289,-8.0199,-8.0167,-8.0094,-7.9984,-7.9323,-7.9422,-8.0372,-7.9741,-8.0072,-8.1477,-8.1477,-8.1477,-8.1477,-8.1477,-8.1823,-8.2477,-8.1785,-8.1862,-8.2439,-8.1785,-8.1477,-8.1477,-8.1323,-8.1285,-8.1323,-8.19,-8.217,-8.2285,-8.217,-8.2362,-8.25,-8.1584,-8.333,-8.5824,-8.5286,-8.5555,-8.6094,-8.6094,-8.6094,-8.6094,-8.6094,-8.6094,-8.6094,-8.6094,-8.6017,-8.594,-8.6055,-8.6017,-8.594,-8.6055,-8.6094,-8.6094,-8.6094,-8.6094,-8.6094,-8.6094,-8.6094,-8.6094,-8.6094,-8.6094,-8.6094,-8.6094,-8.6094,-8.6017,-8.5863,-8.5286,-8.4478,-8.3478,-8.2708,-8.1939,-8.1131,-8.1093,-8.1093,-8.1093,-8.1093,-8.0708,-7.9823,-7.9823,-7.9361,-7.8477,-7.8477,-7.8477,-7.8477,-7.8477,-7.8477,-5.8,-5.866,-5.9894,-6.2096,-6.2242,-6.2058,-6.2836,-6.3014,-6.248,-6.0749,-6.1831,-6.3366,-6.4181,-6.5877,-6.8425,-7.2177,-7.3555,-7.4268,-7.4588,-7.619,-7.771,-7.8628,-7.9661,-8.0414,-8.074,-8.0184,-7.98,-7.98,-7.98,-7.958,-7.9176,-7.8809,-7.894,-7.9755,-7.9387,-7.9806,-8.1077,-8.1093,-8.1093,-8.1093,-8.1093,-8.1285,-8.1631,-8.1285,-8.1285,-8.1631,-8.1246,-8.1093,-8.1093,-8.1093,-8.1093,-8.1131,-8.1516,-8.19,-8.2324,-8.2439,-8.2247,-8.1846,-8.1923,-8.2885,-8.4055,-8.417,-8.4786,-8.5363,-8.4901,-8.5363,-8.6017,-8.5555,-8.5747,-8.6094,-8.6094,-8.6094,-8.6094,-8.6094,-8.6094,-8.6094,-8.6094,-8.6094,-8.6094,-8.6094,-8.6094,-8.6094,-8.6094,-8.6094,-8.6094,-8.6094,-8.6094,-8.6094,-8.6094,-8.6094,-8.6094,-8.6094,-8.5786,-8.5016,-8.3708,-8.3208,-8.2439,-8.117,-8.1093,-8.1093,-8.1093,-8.1093,-8.09,-8.0516,-8.0516,-8.0323,-7.99,-7.99,-7.99,-7.99,-7.99,-7.99,-5.8194,-5.9024,-6.0529,-6.2473,-6.3321,-6.4068,-6.5441,-6.5851,-6.5218,-6.2728,-6.3517,-6.4671,-6.4728,-6.6311,-6.8774,-7.2492,-7.4783,-7.6118,-7.6343,-7.7488,-7.8467,-7.8935,-7.9134,-7.9425,-7.9937,-7.951,-7.9213,-7.9213,-7.9213,-7.8956,-7.8332,-7.8295,-7.8483,-7.8975,-7.9128,-7.9744,-8.0855,-8.1007,-8.1093,-8.1093,-8.1093,-8.1093,-8.1093,-8.1093,-8.1093,-8.1093,-8.1093,-8.1093,-8.1093,-8.1093,-8.1093,-8.1131,-8.1323,-8.1747,-8.2362,-8.2763,-8.2247,-8.1477,-8.2093,-8.2439,-8.267,-8.3131,-8.3901,-8.4478,-8.3785,-8.4478,-8.544,-8.5016,-8.5363,-8.5863,-8.6055,-8.6094,-8.6094,-8.6094,-8.6094,-8.6094,-8.6094,-8.6094,-8.6094,-8.6094,-8.6094,-8.6094,-8.6094,-8.6094,-8.6094,-8.6094,-8.6094,-8.6094,-8.6094,-8.6094,-8.6094,-8.6094,-8.6094,-8.5517,-8.4016,-8.3516,-8.2747,-8.1477,-8.1208,-8.1093,-8.1093,-8.1093,-8.1093,-8.1093,-8.1093,-8.1093,-8.1093,-8.1093,-8.1093,-8.1093,-8.1093,-8.1093,-5.8807,-6.0236,-6.1875,-5.9138,-6.0508,-6.3633,-6.7881,-6.7213,-6.5899,-6.6806,-6.8392,-6.9659,-6.9899,-7.197,-7.3409,-7.2696,-7.4468,-7.6226,-7.7102,-7.731,-7.7414,-7.7439,-7.7482,-7.7488,-7.7549,-7.7518,-7.7457,-7.7457,-7.7457,-7.742,-7.7384,-7.7384,-7.7695,-7.8363,-7.8889,-7.9513,-8.0163,-8.0767,-8.1093,-8.1093,-8.1093,-8.1093,-8.1093,-8.1093,-8.1093,-8.1093,-8.1093,-8.1093,-8.1093,-8.1093,-8.1093,-8.117,-8.19,-8.2247,-8.2401,-8.3208,-8.2978,-8.2131,-8.1446,-8.2231,-8.3362,-8.2631,-8.2978,-8.367,-8.3593,-8.367,-8.3939,-8.4709,-8.4939,-8.517,-8.5901,-8.6094,-8.6094,-8.6094,-8.6094,-8.6094,-8.6094,-8.6094,-8.6094,-8.6094,-8.6094,-8.6094,-8.6094,-8.6094,-8.6094,-8.6094,-8.6094,-8.6094,-8.6094,-8.6094,-8.6094,-8.6094,-8.6094,-8.5747,-8.4901,-8.3324,-8.2324,-8.2208,-8.1516,-8.1093,-8.1093,-8.1093,-8.1093,-8.1093,-8.1093,-8.1093,-8.1093,-8.1093,-8.1093,-8.1093,-8.1093,-8.1093,-6.0789,-6.1506,-6.1887,-6.1163,-6.2493,-6.4672,-6.7395,-6.9245,-6.9979,-6.8478,-6.9192,-7.0113,-7.0239,-7.1464,-7.2939,-7.4493,-7.463,-7.5195,-7.7041,-7.7273,-7.7273,-7.7273,-7.7273,-7.7273,-7.7273,-7.7273,-7.7273,-7.7273,-7.7273,-7.7273,-7.7273,-7.7273,-7.7629,-7.8282,-7.8902,-7.9491,-8.0067,-8.075,-8.1093,-8.1093,-8.1093,-8.1093,-8.1093,-8.1093,-8.1093,-8.1093,-8.1093,-8.1093,-8.1093,-8.1093,-8.1093,-8.1131,-8.1439,-8.1554,-8.1593,-8.19,-8.1823,-8.1516,-8.1192,-8.1516,-8.1977,-8.167,-8.2131,-8.2708,-8.2208,-8.3131,-8.4362,-8.4132,-8.4824,-8.5709,-8.6017,-8.6094,-8.6094,-8.6094,-8.6094,-8.6094,-8.6094,-8.6094,-8.6094,-8.6094,-8.6094,-8.6094,-8.6094,-8.6094,-8.6094,-8.6094,-8.6094,-8.6094,-8.6094,-8.6094,-8.6094,-8.6094,-8.567,-8.5247,-8.4939,-8.3785,-8.2862,-8.2324,-8.1554,-8.1093,-8.1093,-8.1093,-8.1093,-8.1093,-8.1093,-8.1093,-8.1093,-8.1093,-8.1093,-8.1093,-8.1093,-8.1093,-6.0799,-6.1603,-6.2487,-6.4586,-6.5393,-6.6023,-6.7351,-6.9429,-7.0796,-6.9937,-7.0513,-7.1148,-7.0816,-7.1269,-7.2422,-7.4625,-7.4478,-7.4845,-7.698,-7.7273,-7.7273,-7.7273,-7.7273,-7.7273,-7.7273,-7.7273,-7.7273,-7.7273,-7.7273,-7.7273,-7.7273,-7.7273,-7.7629,-7.8282,-7.8902,-7.9491,-8.0067,-8.075,-8.1093,-8.1093,-8.1093,-8.1093,-8.1093,-8.1093,-8.1093,-8.1093,-8.1093,-8.1093,-8.1093,-8.1093,-8.1093,-8.1093,-8.1093,-8.1093,-8.1093,-8.1093,-8.1093,-8.1093,-8.1093,-8.1093,-8.1093,-8.1093,-8.1477,-8.1862,-8.1554,-8.2708,-8.4055,-8.4016,-8.4824,-8.5786,-8.6017,-8.6094,-8.6094,-8.6094,-8.6094,-8.6094,-8.6094,-8.6094,-8.6094,-8.6094,-8.6094,-8.6094,-8.6094,-8.6094,-8.6094,-8.6094,-8.6094,-8.6094,-8.6094,-8.6094,-8.6094,-8.6094,-8.5632,-8.5286,-8.5286,-8.4516,-8.3747,-8.317,-8.2362,-8.1631,-8.1131,-8.1093,-8.1093,-8.1093,-8.1093,-8.1093,-8.1093,-8.1093,-8.1093,-8.1093,-8.1093,-8.1093,-5.8437,-6.0382,-6.4008,-6.8876,-6.8697,-6.7505,-6.8334,-6.729,-6.7267,-7.1367,-7.299,-7.3386,-7.2371,-7.2334,-7.2496,-7.2532,-7.3854,-7.5439,-7.7053,-7.7273,-7.7273,-7.7273,-7.7273,-7.7273,-7.7273,-7.7273,-7.7273,-7.7273,-7.7273,-7.7273,-7.7273,-7.7273,-7.7629,-7.8282,-7.8902,-7.9491,-8.0067,-8.075,-8.1093,-8.1093,-8.1093,-8.1093,-8.1093,-8.1093,-8.1093,-8.1093,-8.1093,-8.1093,-8.1093,-8.1093,-8.1093,-8.1093,-8.1093,-8.1093,-8.1093,-8.1093,-8.1093,-8.1093,-8.1093,-8.1093,-8.1093,-8.1093,-8.1093,-8.1246,-8.2054,-8.2324,-8.267,-8.4401,-8.4901,-8.5093,-8.5901,-8.6094,-8.6094,-8.6094,-8.6094,-8.6094,-8.6094,-8.6094,-8.6094,-8.6094,-8.6094,-8.6094,-8.6094,-8.6094,-8.6094,-8.6094,-8.6094,-8.6094,-8.6094,-8.6094,-8.6094,-8.6094,-8.6094,-8.6094,-8.6094,-8.5363,-8.4901,-8.4901,-8.4093,-8.2862,-8.117,-8.1093,-8.1093,-8.1093,-8.1093,-8.1093,-8.1093,-8.1093,-8.1093,-8.1093,-8.1093,-8.1093,-5.8434,-6.1615,-6.6176,-6.9292,-6.8823,-6.7782,-6.8594,-6.9137,-6.9558,-6.9806,-7.1931,-7.3096,-7.1111,-7.1204,-7.2239,-7.3927,-7.4111,-7.4808,-7.698,-7.7273,-7.7273,-7.7273,-7.7273,-7.7273,-7.7273,-7.7273,-7.7273,-7.7273,-7.7273,-7.7273,-7.7273,-7.7273,-7.7629,-7.8282,-7.8902,-7.9491,-8.0067,-8.075,-8.1093,-8.1093,-8.1093,-8.1093,-8.1093,-8.1093,-8.1093,-8.1093,-8.1093,-8.1093,-8.1093,-8.1093,-8.1093,-8.1093,-8.1093,-8.1093,-8.1093,-8.1093,-8.1093,-8.1093,-8.1093,-8.1093,-8.1093,-8.1093,-8.1477,-8.1977,-8.2247,-8.317,-8.4247,-8.4747,-8.5324,-8.5786,-8.6055,-8.6094,-8.6094,-8.6094,-8.6094,-8.6094,-8.6094,-8.6094,-8.6094,-8.6094,-8.6094,-8.6094,-8.6094,-8.6094,-8.6094,-8.6094,-8.6094,-8.6094,-8.6094,-8.6094,-8.6094,-8.6094,-8.6094,-8.6094,-8.6094,-8.5901,-8.5517,-8.4939,-8.467,-8.3747,-8.2016,-8.1939,-8.167,-8.1093,-8.1093,-8.1093,-8.1093,-8.1093,-8.1093,-8.1093,-8.1093,-8.1093,-6.0188,-6.3119,-6.7106,-6.9505,-6.963,-6.9155,-6.9339,-7.0253,-7.0819,-7.0009,-7.1908,-7.3266,-7.1798,-7.2202,-7.323,-7.4661,-7.5028,-7.5652,-7.709,-7.7273,-7.7273,-7.7273,-7.7273,-7.7273,-7.7273,-7.7273,-7.7273,-7.7273,-7.7273,-7.7273,-7.7273,-7.7273,-7.7739,-7.8628,-7.901,-7.96,-8.0481,-8.0888,-8.1093,-8.1093,-8.1093,-8.1093,-8.1093,-8.1093,-8.1093,-8.1093,-8.1093,-8.1093,-8.1093,-8.1093,-8.1093,-8.1093,-8.1093,-8.1093,-8.1093,-8.1093,-8.1093,-8.1093,-8.1093,-8.1093,-8.1093,-8.1093,-8.1439,-8.1939,-8.2593,-8.3555,-8.4516,-8.5209,-8.5747,-8.6094,-8.6094,-8.6094,-8.6094,-8.6094,-8.6094,-8.6094,-8.6094,-8.6094,-8.6094,-8.6094,-8.6094,-8.6094,-8.6094,-8.6094,-8.6094,-8.6094,-8.6094,-8.6094,-8.6094,-8.6094,-8.6094,-8.6094,-8.6094,-8.6094,-8.6094,-8.6094,-8.5901,-8.5401,-8.5401,-8.4747,-8.3401,-8.267,-8.19,-8.1131,-8.1093,-8.1093,-8.1093,-8.1093,-8.1093,-8.1093,-8.1093,-8.1093,-6.3137,-6.4841,-6.7179,-6.9848,-7.1039,-7.1321,-7.0513,-7.0881,-7.1329,-7.0999,-7.2386,-7.356,-7.3377,-7.4221,-7.4918,-7.4918,-7.6246,-7.7273,-7.7273,-7.7273,-7.7273,-7.7273,-7.7273,-7.7273,-7.7273,-7.7273,-7.7273,-7.7273,-7.7273,-7.7273,-7.7273,-7.7273,-7.7866,-7.9152,-7.9198,-7.9806,-8.1077,-8.1093,-8.1093,-8.1093,-8.1093,-8.1093,-8.1093,-8.1093,-8.1093,-8.1093,-8.1093,-8.1093,-8.1093,-8.1093,-8.1093,-8.1093,-8.1093,-8.1093,-8.1093,-8.1093,-8.1093,-8.1093,-8.1093,-8.1093,-8.1093,-8.1093,-8.1131,-8.1516,-8.3093,-8.367,-8.4055,-8.5632,-8.6094,-8.6094,-8.6094,-8.6094,-8.6094,-8.6094,-8.6094,-8.6094,-8.6094,-8.6094,-8.6094,-8.6094,-8.6094,-8.6094,-8.6094,-8.6094,-8.6094,-8.6094,-8.6094,-8.6094,-8.6094,-8.6094,-8.6094,-8.6094,-8.6094,-8.6094,-8.6094,-8.6094,-8.6094,-8.6094,-8.6094,-8.5747,-8.4939,-8.3285,-8.2054,-8.1246,-8.1131,-8.1093,-8.1093,-8.1093,-8.1093,-8.1093,-8.1093,-8.1093,-6.5577,-6.6555,-6.7704,-7.2641,-7.3521,-7.2973,-7.2165,-7.2129,-7.1541,-6.9009,-7.077,-7.2386,-7.1101,-7.3083,-7.4918,-7.4918,-7.6246,-7.7273,-7.7273,-7.7273,-7.7273,-7.7273,-7.7273,-7.7273,-7.7273,-7.7273,-7.7273,-7.7273,-7.7273,-7.7273,-7.7273,-7.7273,-7.7866,-7.9152,-7.9198,-7.9806,-8.1077,-8.1093,-8.1093,-8.1093,-8.1093,-8.1093,-8.1093,-8.1093,-8.1093,-8.1093,-8.1093,-8.1093,-8.1093,-8.1093,-8.1093,-8.1093,-8.1093,-8.1093,-8.1093,-8.1093,-8.1093,-8.1093,-8.1093,-8.1093,-8.1093,-8.1093,-8.1516,-8.2247,-8.3285,-8.4093,-8.4824,-8.5824,-8.6094,-8.6094,-8.6094,-8.6094,-8.6094,-8.6094,-8.6094,-8.6094,-8.6094,-8.6094,-8.6094,-8.6094,-8.6094,-8.6094,-8.6094,-8.6094,-8.6094,-8.6094,-8.6094,-8.6094,-8.6094,-8.6094,-8.6094,-8.6094,-8.6094,-8.6094,-8.6094,-8.6094,-8.6094,-8.6094,-8.6094,-8.5747,-8.4939,-8.3862,-8.2901,-8.2054,-8.14,-8.1093,-8.1093,-8.1093,-8.1093,-8.1093,-8.1093,-8.1093,-6.4028,-6.5433,-6.7623,-7.3145,-7.4117,-7.3487,-7.2679,-7.2496,-7.2018,-7.033,-7.1321,-7.2239,-7.1394,-7.3266,-7.4918,-7.4918,-7.6246,-7.7273,-7.7273,-7.7273,-7.7273,-7.7273,-7.7273,-7.7273,-7.7273,-7.7273,-7.7273,-7.7273,-7.7273,-7.7273,-7.7273,-7.7273,-7.7866,-7.9152,-7.9198,-7.9806,-8.1077,-8.1093,-8.1093,-8.1093,-8.1093,-8.1093,-8.1093,-8.1093,-8.1093,-8.1093,-8.1093,-8.1093,-8.1093,-8.1093,-8.1093,-8.1093,-8.1093,-8.1093,-8.1093,-8.1093,-8.1093,-8.1093,-8.1093,-8.1093,-8.1093,-8.1093,-8.1362,-8.1939,-8.3208,-8.3901,-8.4516,-8.5747,-8.6094,-8.6094,-8.6094,-8.6094,-8.6094,-8.6094,-8.6094,-8.6094,-8.6094,-8.6094,-8.6094,-8.6094,-8.6094,-8.6094,-8.6094,-8.6094,-8.6094,-8.6094,-8.6094,-8.6094,-8.6094,-8.6094,-8.6094,-8.6094,-8.6094,-8.6094,-8.6094,-8.6094,-8.6094,-8.6094,-8.6094,-8.5901,-8.5478,-8.467,-8.3632,-8.2324,-8.1516,-8.1093,-8.1093,-8.1093,-8.1093,-8.1093,-8.1093,-8.1093,-6.0884,-6.3591,-6.7835,-7.2831,-7.3905,-7.3487,-7.2679,-7.2496,-7.2496,-7.2496,-7.2496,-7.2496,-7.2496,-7.3817,-7.4918,-7.4918,-7.6246,-7.7273,-7.7273,-7.7273,-7.7273,-7.7273,-7.7273,-7.7273,-7.7273,-7.7273,-7.7273,-7.7273,-7.7273,-7.7273,-7.7273,-7.7273,-7.7866,-7.9152,-7.9047,-7.9578,-8.0846,-8.09,-8.09,-8.09,-8.1016,-8.1093,-8.1093,-8.1093,-8.1093,-8.1093,-8.1093,-8.1093,-8.1093,-8.1093,-8.1093,-8.1093,-8.1093,-8.1093,-8.1093,-8.1093,-8.1093,-8.1093,-8.1093,-8.1093,-8.1093,-8.1093,-8.1093,-8.14,-8.3093,-8.3593,-8.3939,-8.5632,-8.6094,-8.6094,-8.6094,-8.6094,-8.6094,-8.6094,-8.6094,-8.6094,-8.6094,-8.6094,-8.6094,-8.6094,-8.6094,-8.6094,-8.6094,-8.6094,-8.6094,-8.6094,-8.6094,-8.6094,-8.6094,-8.6094,-8.6094,-8.6094,-8.6094,-8.6094,-8.6094,-8.6094,-8.6094,-8.6094,-8.6094,-8.6094,-8.6094,-8.5324,-8.4209,-8.2785,-8.1939,-8.1477,-8.1323,-8.1323,-8.1246,-8.1093,-8.1093,-8.117,-5.8495,-6.3539,-6.9724,-7.3227,-7.3905,-7.3487,-7.2679,-7.2496,-7.2496,-7.2496,-7.2496,-7.2496,-7.2496,-7.3817,-7.4918,-7.4918,-7.6246,-7.7273,-7.7273,-7.7273,-7.7273,-7.7273,-7.7273,-7.7273,-7.7273,-7.7273,-7.7273,-7.7273,-7.7273,-7.7273,-7.7273,-7.7273,-7.7866,-7.9152,-7.8458,-7.8684,-7.9962,-7.9977,-7.9977,-7.9977,-8.0746,-8.1093,-8.1093,-8.1093,-8.1093,-8.1093,-8.1093,-8.1093,-8.1093,-8.1093,-8.1093,-8.1093,-8.1093,-8.1093,-8.1093,-8.1093,-8.1093,-8.1093,-8.1093,-8.1093,-8.1093,-8.1093,-8.1093,-8.14,-8.3093,-8.3593,-8.3939,-8.5632,-8.6094,-8.6094,-8.6094,-8.6094,-8.6094,-8.6094,-8.6094,-8.6094,-8.6094,-8.6094,-8.6094,-8.6094,-8.6094,-8.6094,-8.6094,-8.6094,-8.6094,-8.6094,-8.6094,-8.6094,-8.6094,-8.6094,-8.6094,-8.6094,-8.6094,-8.6094,-8.6094,-8.6094,-8.6094,-8.6094,-8.6094,-8.6094,-8.6094,-8.5324,-8.4786,-8.4555,-8.3708,-8.2901,-8.2131,-8.2131,-8.1785,-8.1093,-8.1093,-8.1477,-5.8726,-6.4448,-7.0413,-7.1202,-7.2561,-7.3487,-7.2679,-7.2496,-7.2496,-7.2496,-7.2496,-7.2496,-7.2496,-7.3817,-7.4918,-7.4918,-7.6246,-7.7273,-7.7273,-7.7273,-7.7273,-7.7273,-7.7273,-7.7273,-7.7273,-7.7273,-7.7273,-7.7273,-7.7273,-7.7273,-7.7273,-7.7273,-7.7792,-7.885,-7.8307,-7.8207,-7.8623,-7.9423,-8.0054,-8.0516,-8.0939,-8.1093,-8.1093,-8.1093,-8.1093,-8.1093,-8.1093,-8.1093,-8.1093,-8.1093,-8.1093,-8.1093,-8.1093,-8.1093,-8.1093,-8.1093,-8.1093,-8.1093,-8.1093,-8.1093,-8.1093,-8.1093,-8.14,-8.2016,-8.3208,-8.3939,-8.4593,-8.5786,-8.6094,-8.6094,-8.6094,-8.6094,-8.6094,-8.6094,-8.6094,-8.6094,-8.6094,-8.6094,-8.6094,-8.6094,-8.6094,-8.6094,-8.6094,-8.6094,-8.6094,-8.6094,-8.6094,-8.6094,-8.6094,-8.6094,-8.6094,-8.6094,-8.6094,-8.6094,-8.6094,-8.6094,-8.6094,-8.6094,-8.6094,-8.6094,-8.6094,-8.5747,-8.5555,-8.5555,-8.4286,-8.3401,-8.3016,-8.3016,-8.2862,-8.2477,-8.2477,-8.267,-5.8981,-6.3533,-6.8172,-6.877,-7.0677,-7.2459,-7.2496,-7.2496,-7.2496,-7.2496,-7.2496,-7.2496,-7.2496,-7.3817,-7.4918,-7.4918,-7.6246,-7.7273,-7.7273,-7.7273,-7.7273,-7.7273,-7.7273,-7.7273,-7.7273,-7.7273,-7.7273,-7.7273,-7.7273,-7.7273,-7.7273,-7.7273,-7.7689,-7.8563,-7.8557,-7.8342,-7.7916,-7.8923,-7.99,-8.0785,-8.0977,-8.1093,-8.1093,-8.1093,-8.1093,-8.1093,-8.1093,-8.1093,-8.1093,-8.1093,-8.1093,-8.1093,-8.1093,-8.1093,-8.1093,-8.1093,-8.1093,-8.1093,-8.1093,-8.1093,-8.1093,-8.1093,-8.1631,-8.2439,-8.3324,-8.4209,-8.5093,-8.5863,-8.6094,-8.6094,-8.6094,-8.6094,-8.6094,-8.6094,-8.6094,-8.6094,-8.6094,-8.6094,-8.6094,-8.6094,-8.6094,-8.6094,-8.6094,-8.6094,-8.6094,-8.6094,-8.6094,-8.6094,-8.6094,-8.6094,-8.6094,-8.6094,-8.6094,-8.6094,-8.6094,-8.6094,-8.6094,-8.6094,-8.6094,-8.6094,-8.6094,-8.6094,-8.6094,-8.6094,-8.4863,-8.4132,-8.3939,-8.3939,-8.3824,-8.3593,-8.3593,-8.3708,-5.8069,-5.9115,-6.1396,-6.6499,-6.8449,-6.9743,-7.1982,-7.2496,-7.2496,-7.2496,-7.2496,-7.2496,-7.2496,-7.3817,-7.4918,-7.4918,-7.6246,-7.7273,-7.7273,-7.7273,-7.7273,-7.7273,-7.7273,-7.7273,-7.7273,-7.7273,-7.7273,-7.7273,-7.7273,-7.7273,-7.7273,-7.7273,-7.7689,-7.8563,-7.932,-7.9315,-7.8477,-7.8515,-7.9015,-7.99,-8.0708,-8.1093,-8.1093,-8.1093,-8.1093,-8.1093,-8.1093,-8.1093,-8.1093,-8.1093,-8.1093,-8.1093,-8.1093,-8.1093,-8.1093,-8.1093,-8.1093,-8.1093,-8.1093,-8.1093,-8.1093,-8.1093,-8.1631,-8.2439,-8.3324,-8.4209,-8.5093,-8.5863,-8.6094,-8.6094,-8.6094,-8.6094,-8.6094,-8.6094,-8.6094,-8.6094,-8.6094,-8.6094,-8.6094,-8.6094,-8.6094,-8.6094,-8.6094,-8.6094,-8.6094,-8.6094,-8.6094,-8.6094,-8.6094,-8.6094,-8.6094,-8.6094,-8.6094,-8.6094,-8.6094,-8.6094,-8.6094,-8.6094,-8.6094,-8.6094,-8.6094,-8.6094,-8.6094,-8.6094,-8.6017,-8.5593,-8.4824,-8.4824,-8.4401,-8.3593,-8.3593,-8.4055,-5.8014,-5.8275,-5.9517,-6.3548,-6.5972,-6.7577,-6.8458,-6.9853,-7.0954,-7.0954,-7.1798,-7.2496,-7.2496,-7.3377,-7.4294,-7.4845,-7.5836,-7.6717,-7.7237,-7.7273,-7.7273,-7.7273,-7.7273,-7.7273,-7.7273,-7.7273,-7.7273,-7.7273,-7.7273,-7.7273,-7.7273,-7.7273,-7.743,-7.7748,-7.9607,-7.9771,-7.8008,-7.8885,-7.9785,-8.0631,-8.0939,-8.1093,-8.1093,-8.1093,-8.1093,-8.1093,-8.1093,-8.1093,-8.1093,-8.1093,-8.1093,-8.1093,-8.1093,-8.1093,-8.1093,-8.1093,-8.1093,-8.1093,-8.1093,-8.1093,-8.1208,-8.1708,-8.2439,-8.3285,-8.417,-8.5016,-8.5747,-8.6017,-8.6094,-8.6094,-8.6094,-8.6094,-8.6094,-8.6094,-8.6094,-8.6094,-8.6094,-8.6094,-8.6094,-8.6094,-8.6094,-8.6094,-8.6094,-8.6094,-8.6094,-8.6094,-8.6094,-8.6094,-8.6094,-8.6094,-8.6094,-8.6094,-8.6094,-8.6094,-8.6094,-8.6094,-8.6094,-8.6094,-8.6094,-8.6094,-8.6094,-8.6094,-8.6094,-8.6094,-8.6094,-8.5978,-8.567,-8.567,-8.5517,-8.5209,-8.5209,-8.5363,-5.7556,-5.7784,-5.8713,-6.1655,-6.3649,-6.5081,-6.5925,-6.776,-6.9376,-6.9633,-7.0991,-7.2202,-7.2459,-7.2936,-7.3634,-7.4735,-7.5579,-7.6387,-7.7163,-7.7273,-7.7273,-7.7273,-7.7273,-7.7273,-7.7273,-7.751,-7.754,-7.7304,-7.751,-7.754,-7.7304,-7.7268,-7.7162,-7.6858,-7.9626,-8.0391,-7.8885,-7.9462,-8.0092,-8.0669,-8.0977,-8.1093,-8.1093,-8.1093,-8.1093,-8.1093,-8.1093,-8.1093,-8.1093,-8.1093,-8.1093,-8.1093,-8.1093,-8.1093,-8.1093,-8.1093,-8.1093,-8.1093,-8.1093,-8.1093,-8.1246,-8.2054,-8.2901,-8.3747,-8.4632,-8.5478,-8.6094,-8.6094,-8.6094,-8.6094,-8.6094,-8.6094,-8.6094,-8.6094,-8.6094,-8.6094,-8.6094,-8.6094,-8.6094,-8.6094,-8.6094,-8.6094,-8.6094,-8.6094,-8.6094,-8.6094,-8.6094,-8.6094,-8.6094,-8.6094,-8.6094,-8.6094,-8.6094,-8.6094,-8.6094,-8.6094,-8.6094,-8.6094,-8.6094,-8.6094,-8.6094,-8.6094,-8.6094,-8.6094,-8.6094,-8.6094,-8.6094,-8.6094,-8.6094,-8.6094,-8.6094,-8.6094,0.0,0.0,0.0,-6.0896,-6.152,-6.2181,-6.464,-6.6402,-6.7797,-6.8715,-7.0146,-7.1505,-7.2349,-7.2496,-7.3046,-7.4661,-7.5579,-7.635,-7.7163,-7.7273,-7.7273,-7.7273,-7.7273,-7.7273,-7.7273,-7.7875,-7.8016,-7.7372,-7.794,-7.7988,-7.7335,-7.7279,-7.6866,-7.6052,-7.9257,-8.1054,-8.1054,-8.0238,-7.9862,-7.9862,-8.0708,-8.1093,-8.1093,-8.1093,-8.1093,-8.1093,-8.1093,-8.1093,-8.1093,-8.1093,-8.1093,-8.1093,-8.1093,-8.1093,-8.1093,-8.1093,-8.1093,-8.1093,-8.1093,-8.1093,-8.1246,-8.2054,-8.2901,-8.3747,-8.467,-8.5478,-8.6094,-8.6094,-8.6094,-8.6094,-8.6094,-8.6094,-8.6094,-8.6094,-8.6094,-8.6094,-8.6094,-8.6094,-8.6094,-8.6094,-8.6094,-8.6094,-8.6094,-8.6094,-8.6094,-8.6094,-8.6094,-8.6094,-8.6094,-8.6094,-8.6094,-8.6094,-8.6094,-8.6094,-8.6094,-8.6094,-8.6094,-8.6094,-8.6094,-8.6094,-8.6094,-8.6094,-8.6094,-8.6094,-8.6094,-8.6094,-8.6094,-8.6094,-8.6094,-8.6094,-8.6094,-8.6094,-5.6059,0.0,0.0,0.0,0.0,0.0,-6.2218,-6.3429,-6.5081,-6.8238,-6.9265,-7.0183,-7.2129,-7.2496,-7.3046,-7.4661,-7.5102,-7.5726,-7.709,-7.7273,-7.7273,-7.7273,-7.7273,-7.7273,-7.7273,-7.745,-7.7871,-7.8633,-7.7989,-7.748,-7.7304,-7.6696,-7.6252,-7.5999,-7.8512,-7.9854,-7.9877,-8.0439,-8.0746,-8.0746,-8.0977,-8.1093,-8.1093,-8.1093,-8.1093,-8.1093,-8.1093,-8.1093,-8.1093,-8.1093,-8.1093,-8.1093,-8.1093,-8.1093,-8.1093,-8.1093,-8.1093,-8.1093,-8.1093,-8.1093,-8.1323,-8.2747,-8.3401,-8.3862,-8.5324,-8.594,-8.6094,-8.6094,-8.6094,-8.6094,-8.6094,-8.6094,-8.6094,-8.6094,-8.6094,-8.6094,-8.6094,-8.6094,-8.6094,-8.6094,-8.6094,-8.6094,-8.6094,-8.6094,-8.6094,-8.6094,-8.6094,-8.6094,-8.6094,-8.6094,-8.6094,-8.6094,-8.6094,-8.6094,-8.6094,-8.6094,-8.6094,-8.6094,-8.6094,-8.6094,-8.6094,-8.6094,-8.6094,-8.6094,-8.6094,-8.6094,-8.6094,-8.6094,-8.6094,-8.6094,-8.6094,-8.6094,-5.6066,-5.6847,-5.7507,-5.8156,0.0,0.0,-5.994,-6.097,-6.2768,-6.6182,-6.7173,-6.8164,-7.055,-7.0734,-7.1248,-7.3523,-7.3891,-7.4698,-7.698,-7.7604,-7.7855,-7.7855,-7.7934,-7.8131,-7.853,-7.7799,-7.7968,-7.9549,-7.8462,-7.7592,-7.7329,-7.6467,-7.5977,-7.6006,-7.8206,-7.9392,-7.94,-8.0516,-8.1093,-8.1093,-8.1093,-8.1093,-8.1093,-8.1093,-8.1093,-8.1093,-8.1093,-8.1093,-8.1093,-8.1093,-8.1093,-8.1093,-8.1093,-8.1093,-8.1093,-8.1093,-8.1093,-8.1093,-8.1093,-8.1093,-8.1362,-8.3054,-8.3593,-8.3901,-8.5593,-8.6094,-8.6094,-8.6094,-8.6094,-8.6094,-8.6094,-8.6094,-8.6094,-8.6094,-8.6094,-8.6094,-8.6094,-8.6094,-8.6094,-8.6094,-8.6094,-8.6094,-8.6094,-8.6094,-8.6094,-8.6094,-8.6094,-8.6094,-8.6094,-8.6094,-8.6094,-8.6094,-8.6094,-8.6094,-8.6094,-8.6094,-8.6094,-8.6094,-8.6094,-8.6094,-8.6094,-8.6094,-8.6094,-8.6094,-8.6094,-8.6094,-8.6094,-8.6094,-8.6094,-8.6094,-8.6094,-8.6094,-5.6603,-5.7541,-5.8621,-5.8756,-5.8716,0.0,-5.8408,-5.9255,-6.0896,-6.3539,-6.453,-6.5632,-6.8054,-6.7907,-6.8385,-7.1358,-7.2129,-7.345,-7.6576,-7.7781,-7.8332,-7.8332,-7.8846,-7.9486,-8.0275,-7.8601,-7.823,-8.0067,-7.8952,-7.7979,-7.7459,-7.6543,-7.6022,-7.6025,-7.8164,-7.9315,-7.9315,-8.0416,-8.0977,-8.0939,-8.0862,-8.09,-8.1108,-8.1093,-8.1093,-8.1093,-8.1093,-8.1093,-8.1093,-8.1093,-8.1093,-8.1093,-8.1093,-8.1093,-8.1093,-8.1093,-8.1093,-8.1093,-8.1093,-8.1093,-8.1362,-8.3054,-8.3593,-8.3901,-8.5593,-8.6094,-8.6094,-8.6094,-8.6094,-8.6094,-8.6094,-8.6094,-8.6094,-8.6094,-8.6094,-8.6094,-8.6094,-8.6094,-8.6094,-8.6094,-8.6094,-8.6094,-8.6094,-8.6094,-8.6094,-8.6094,-8.6094,-8.6094,-8.6094,-8.6094,-8.6094,-8.6094,-8.6094,-8.6094,-8.6094,-8.6094,-8.6094,-8.6094,-8.6094,-8.6094,-8.6094,-8.6094,-8.6094,-8.6094,-8.6094,-8.6094,-8.6094,-8.6094,-8.6094,-8.6094,-8.6094,-8.6094,-5.7796,-5.8065,-5.7974,-5.9007,-5.899,0.0,-6.0221,-5.9442,-5.9538,-6.3319,-6.3135,-6.3062,-6.5558,-6.5888,-6.6182,-6.7467,-6.9853,-7.243,-7.5028,-7.6093,-7.6607,-7.6607,-7.8781,-8.0399,-8.0675,-7.9453,-7.8921,-7.964,-7.8335,-7.7747,-7.8339,-7.7078,-7.6333,-7.6313,-7.784,-7.8684,-7.8684,-7.9592,-8.0054,-8.0054,-7.9323,-7.9738,-8.1077,-8.11,-8.1085,-8.1124,-8.1108,-8.1093,-8.1093,-8.1093,-8.1093,-8.1093,-8.1093,-8.1093,-8.1093,-8.1093,-8.1093,-8.1093,-8.1093,-8.1093,-8.1362,-8.3054,-8.3593,-8.3901,-8.5593,-8.6094,-8.6094,-8.6094,-8.6094,-8.6094,-8.6094,-8.6094,-8.6094,-8.6094,-8.6094,-8.6094,-8.6094,-8.6094,-8.6094,-8.6094,-8.6094,-8.6094,-8.6094,-8.6094,-8.6094,-8.6094,-8.6094,-8.6094,-8.6094,-8.6094,-8.6094,-8.6094,-8.6094,-8.6094,-8.6094,-8.6094,-8.6094,-8.6094,-8.6094,-8.6094,-8.6094,-8.6094,-8.6094,-8.6094,-8.6094,-8.6094,-8.6094,-8.6094,-8.6094,-8.6094,-8.6094,-8.6094,-5.8165,-5.8502,-5.8669,-5.955,-5.9559,0.0,0.0,-5.9452,-5.9512,-6.2358,-6.1804,-6.147,-6.3721,-6.3416,-6.3603,-6.5866,-6.7395,-6.9009,-7.1027,-7.4771,-7.7378,-7.7555,-7.981,-8.1218,-8.0749,-7.9667,-7.8817,-7.8454,-7.7701,-7.7666,-7.8549,-7.785,-7.7311,-7.7017,-7.7604,-7.79,-7.79,-7.903,-7.9608,-7.9608,-7.8838,-7.8953,-7.9792,-7.9531,-7.9723,-8.0262,-8.04,-8.0708,-8.1093,-8.1093,-8.1093,-8.1093,-8.1093,-8.1093,-8.1093,-8.1093,-8.1093,-8.1093,-8.1093,-8.1362,-8.19,-8.317,-8.3901,-8.4478,-8.5709,-8.6094,-8.6094,-8.6094,-8.6094,-8.6094,-8.6094,-8.6094,-8.6094,-8.6094,-8.6094,-8.6094,-8.6094,-8.6094,-8.6094,-8.6094,-8.6094,-8.6094,-8.6094,-8.6094,-8.6094,-8.6094,-8.6094,-8.6094,-8.6094,-8.6094,-8.6094,-8.6094,-8.6094,-8.6094,-8.6094,-8.6094,-8.6094,-8.6094,-8.6094,-8.6094,-8.6094,-8.6094,-8.6094,-8.6094,-8.6094,-8.6094,-8.6094,-8.6094,-8.6094,-8.6094,-8.6094,-8.6094,-5.8293,-5.8929,-5.9625,-6.0118,-6.0161,-5.9991,0.0,0.0,0.0,-6.1089,-6.051,-6.0317,-6.2015,-6.1076,-6.108,-6.4107,-6.4721,-6.5338,-6.6806,-7.2818,-7.7218,-7.7433,-7.9443,-8.0812,-8.087,-8.0067,-7.8922,-7.7414,-7.7304,-7.7688,-7.8682,-7.8336,-7.8019,-7.7795,-7.7461,-7.7323,-7.7376,-7.8492,-7.9122,-7.9199,-7.8415,-7.8015,-7.8015,-7.7808,-7.8308,-7.9423,-7.9862,-8.0439,-8.1093,-8.1093,-8.1093,-8.1093,-8.1093,-8.1093,-8.1093,-8.1093,-8.1208,-8.1323,-8.1323,-8.1862,-8.267,-8.3555,-8.4439,-8.5247,-8.5901,-8.6094,-8.6094,-8.6094,-8.6094,-8.6094,-8.6094,-8.6094,-8.6094,-8.6094,-8.6094,-8.6094,-8.6094,-8.6094,-8.6094,-8.6094,-8.6094,-8.6094,-8.6094,-8.6094,-8.6094,-8.6094,-8.6094,-8.6094,-8.6094,-8.6094,-8.6094,-8.6094,-8.6094,-8.6094,-8.6094,-8.6094,-8.617,-8.6324,-8.6192,-8.6192,-8.6401,-8.6209,-8.6094,-8.6094,-8.6094,-8.6094,-8.6094,-8.6094,-8.6094,-8.6094,-8.6094,-8.6094,-5.8816,-5.9409,-6.0132,-6.061,-6.043,-6.0103,-6.0006,0.0,-5.9465,-5.9616,0.0,-5.9508,-5.9749,0.0,0.0,-5.9475,-6.1532,-6.3429,-6.4347,-6.8676,-7.1775,-7.1812,-7.4106,-7.7376,-8.1623,-8.1628,-8.0265,-7.7512,-7.7292,-7.7857,-7.9071,-7.7733,-7.7369,-7.8384,-7.7692,-7.7414,-7.7645,-7.7799,-7.8122,-7.8599,-7.703,-7.6284,-7.6322,-7.7269,-7.8323,-7.9469,-8.0477,-8.1016,-8.1093,-8.1093,-8.1093,-8.1093,-8.1093,-8.1093,-8.1093,-8.1093,-8.1554,-8.217,-8.217,-8.2708,-8.3593,-8.4478,-8.5286,-8.5978,-8.6055,-8.6094,-8.6094,-8.6094,-8.6094,-8.6094,-8.6094,-8.6094,-8.6094,-8.6094,-8.6094,-8.6094,-8.6094,-8.6094,-8.6094,-8.6094,-8.6094,-8.6094,-8.6094,-8.6094,-8.6094,-8.6094,-8.6094,-8.6094,-8.6094,-8.6094,-8.6094,-8.6094,-8.6094,-8.6094,-8.6094,-8.6115,-8.6423,-8.7209,-8.6522,-8.656,-8.7572,-8.6632,-8.6094,-8.6094,-8.6094,-8.6094,-8.6094,-8.6094,-8.6094,-8.6094,-8.6094,-8.6094,-6.1055,-6.1484,-6.1655,-6.2119,-6.2106,-6.1684,-6.0725,-6.0351,-6.0203,-6.0203,0.0,0.0,0.0,0.0,0.0,0.0,-6.0922,-6.1815,-6.2673,-6.456,-6.6979,-7.0082,-7.1425,-7.4394,-8.0237,-7.9809,-7.7877,-7.4725,-7.625,-7.7431,-7.7666,-7.6927,-7.7123,-7.8462,-7.7207,-7.6592,-7.6722,-7.6722,-7.6837,-7.703,-7.6322,-7.6361,-7.6991,-7.7476,-7.84,-7.9646,-8.0131,-8.0631,-8.1093,-8.1093,-8.1093,-8.1093,-8.1093,-8.1093,-8.117,-8.1631,-8.2016,-8.2362,-8.2862,-8.3632,-8.4478,-8.5324,-8.5824,-8.6094,-8.6094,-8.6094,-8.6094,-8.6094,-8.6094,-8.6094,-8.6094,-8.6094,-8.6094,-8.6094,-8.6094,-8.6094,-8.6094,-8.6094,-8.6094,-8.6094,-8.6094,-8.6094,-8.6094,-8.6094,-8.6094,-8.6094,-8.6094,-8.6094,-8.6094,-8.6094,-8.6094,-8.6094,-8.6555,-8.6863,-8.6863,-8.7325,-8.7786,-8.8132,-8.8726,-8.8363,-8.6885,-8.6978,-8.6786,-8.6094,-8.6094,-8.6094,-8.6094,-8.6094,-8.6094,-8.6094,-8.6094,-8.6094,-6.3711,-6.3694,-6.3211,-6.3835,-6.332,-6.2435,-6.1666,-6.1127,-6.0858,-6.1089,-6.0904,0.0,0.0,0.0,-6.0524,-6.121,0.0,-6.0825,-6.1373,-6.1523,-6.3171,-6.759,-6.8098,-6.9954,-7.4679,-7.6467,-7.5226,-7.0223,-7.2438,-7.4623,-7.6051,-7.5713,-7.6227,-7.7867,-7.6647,-7.6015,-7.6015,-7.6015,-7.6015,-7.6015,-7.6015,-7.6683,-7.7929,-7.8068,-7.8761,-7.9823,-8.0054,-8.0516,-8.1093,-8.1093,-8.1093,-8.1093,-8.1093,-8.1246,-8.1516,-8.2093,-8.2439,-8.2785,-8.3632,-8.4516,-8.5324,-8.5901,-8.6094,-8.6094,-8.6094,-8.6094,-8.6094,-8.6094,-8.6094,-8.6094,-8.6094,-8.6094,-8.6094,-8.6094,-8.6094,-8.6094,-8.6094,-8.6094,-8.6094,-8.6094,-8.6094,-8.6094,-8.6094,-8.6094,-8.6094,-8.6094,-8.6077,-8.6192,-8.644,-8.6517,-8.6632,-8.6786,-8.7363,-8.7748,-8.7748,-8.8479,-8.9056,-8.9363,-9.0531,-8.9936,-8.7137,-8.7825,-8.7688,-8.6478,-8.6478,-8.6324,-8.6094,-8.6094,-8.6094,-8.6094,-8.6094,-8.6094,-6.6582,-6.58,-6.4397,-6.5551,-6.332,-6.1281,-6.2858,-6.1973,-6.105,-6.187,-6.205,-6.2269,-6.3077,-6.2804,-6.2239,-6.1529,-6.0996,0.0,0.0,-6.0261,-6.0736,-6.279,-6.3038,-6.3106,-6.3311,-7.182,-7.3351,-6.3828,-6.4712,-6.8409,-7.4611,-7.3786,-7.4134,-7.6406,-7.6146,-7.6015,-7.6015,-7.6015,-7.6015,-7.6015,-7.6015,-7.6876,-7.8483,-7.9084,-7.9492,-7.9862,-8.0708,-8.1054,-8.1093,-8.1093,-8.1093,-8.1093,-8.1093,-8.1593,-8.2247,-8.2285,-8.2824,-8.367,-8.4555,-8.5401,-8.6055,-8.6094,-8.6094,-8.6094,-8.6094,-8.6094,-8.6094,-8.6094,-8.6094,-8.6094,-8.6094,-8.6094,-8.6094,-8.6094,-8.6094,-8.6094,-8.6094,-8.6094,-8.6094,-8.6094,-8.6094,-8.6094,-8.6094,-8.6094,-8.6094,-8.6094,-8.6099,-8.6389,-8.7269,-8.7577,-8.7962,-8.8556,-8.8632,-8.8671,-8.8671,-8.9154,-8.9962,-9.1056,-9.115,-9.065,-8.9423,-8.9419,-8.8803,-8.7401,-8.7363,-8.694,-8.6094,-8.6094,-8.6094,-8.6094,-8.6094,-8.6094,-6.8674,-6.8114,-6.6538,-6.6923,-6.6179,-6.496,-6.3628,-6.2589,-6.1947,-6.2101,-6.2512,-6.332,-6.4743,-6.3963,-6.3347,-6.4243,-6.2831,-6.1639,0.0,-6.0963,-6.0491,-6.0555,-6.1892,-6.2815,-6.2788,-6.5794,-6.6345,-6.3057,-6.3347,-6.6187,-7.1999,-7.2748,-7.4038,-7.6349,-7.6146,-7.6015,-7.6015,-7.6015,-7.6015,-7.6015,-7.6015,-7.6861,-7.8492,-7.8723,-7.9492,-8.0669,-8.0977,-8.1093,-8.1093,-8.1093,-8.1093,-8.1093,-8.1093,-8.1593,-8.2362,-8.2939,-8.3708,-8.4593,-8.5401,-8.5863,-8.6094,-8.6094,-8.6094,-8.6094,-8.6094,-8.6094,-8.6094,-8.6094,-8.6094,-8.6094,-8.6094,-8.6094,-8.6094,-8.6094,-8.6094,-8.6094,-8.6094,-8.6094,-8.6094,-8.6094,-8.6572,-8.6957,-8.6957,-8.7435,-8.7435,-8.6291,-8.612,-8.662,-8.806,-8.9304,-8.9705,-8.8803,-8.9017,-8.9231,-8.9231,-9.0077,-9.0787,-9.1171,-9.121,-9.0671,-8.9538,-8.9671,-8.9286,-8.8286,-8.8248,-8.7825,-8.6978,-8.6978,-8.6671,-8.6094,-8.6094,-8.6094,-7.0117,-6.9296,-6.7795,-6.8564,-6.759,-6.6102,-6.5077,-6.4243,-6.382,-6.4243,-6.4512,-6.5166,-6.6756,-6.5513,-6.4474,-6.5179,-6.3909,-6.2526,0.0,-6.1019,-6.0491,-5.9897,-6.1615,-6.2794,-6.2812,-6.2277,-6.2178,-6.2741,-6.2438,-6.4618,-7.009,-7.1231,-7.2917,-7.5588,-7.5874,-7.6015,-7.6015,-7.6015,-7.6015,-7.6015,-7.6399,-7.7376,-7.88,-7.8915,-7.9746,-8.1093,-8.1093,-8.1093,-8.1093,-8.1093,-8.1093,-8.1093,-8.1093,-8.1785,-8.2824,-8.3401,-8.4324,-8.5401,-8.594,-8.6094,-8.6094,-8.6094,-8.6094,-8.6094,-8.6094,-8.6094,-8.6094,-8.6094,-8.6094,-8.6094,-8.6094,-8.6094,-8.6094,-8.6094,-8.6094,-8.617,-8.6495,-8.6572,-8.6632,-8.6962,-8.7495,-8.7858,-8.7863,-8.8342,-8.8342,-8.7192,-8.7005,-8.7487,-8.8829,-9.0265,-9.0783,-8.971,-8.9902,-9.0115,-9.0115,-9.0787,-9.121,-9.121,-9.121,-9.0864,-9.0115,-9.0269,-8.9979,-8.9133,-8.9133,-8.8709,-8.7863,-8.7555,-8.7094,-8.6555,-8.6247,-8.6094]},{"header":{"parameterUnit":"m.s-1","parameterCategory":1,"la1":30.6,"la2":29.2853,"lo1":-89.7004,"lo2":-87.6739,"dy":0.0162,"dx":0.0183,"nx":112,"ny":82,"refTime":"2024-05-17T06:00:00:Z","depth":0,"parameterNumber":3,"parameterNumberName":"V-component_of_WINDS"},"data":[0.0,0.0,0.0,0.0,0.0,0.0,0.0,0.0,0.0,0.0,0.0,0.0,0.0,0.0,0.0,0.0,0.0,0.0,0.0,0.0,0.0,0.0,0.0,0.0,0.0,0.0,0.0,0.0,0.0,0.0,0.0,0.0,0.0,0.0,0.0,0.0,0.0,0.0,0.0,0.0,0.0,0.0,0.0,0.0,0.0,0.0,0.0,0.0,0.0,0.0,0.0,0.0,0.0,0.0,0.0,0.0,0.0,0.0,0.0,0.0,0.0,0.0,0.0,0.0,0.0,0.0,0.0,0.0,0.0,0.0,0.0,0.0,0.0,0.0,0.0,0.0,0.0,0.0,0.0,0.0,0.0,0.0,0.0,0.0,0.0,0.0,0.0,0.0,0.0,0.0,-1.0194,-0.9531,-0.7992,-0.7202,-0.7521,-0.9759,-1.1649,-1.2963,0.0,0.0,0.0,0.0,0.0,0.0,0.0,0.0,0.0,0.0,0.0,0.0,0.0,0.0,0.0,0.0,0.0,0.0,0.0,0.0,0.0,0.0,0.0,0.0,0.0,0.0,0.0,0.0,0.0,0.0,0.0,0.0,0.0,0.0,0.0,0.0,0.0,0.0,0.0,0.0,0.0,0.0,0.0,0.0,0.0,0.0,0.0,0.0,0.0,0.0,0.0,0.0,0.0,0.0,0.0,0.0,0.0,0.0,0.0,0.0,0.0,0.0,0.0,0.0,0.0,0.0,0.0,0.0,0.0,0.0,0.0,0.0,0.0,0.0,0.0,0.0,0.0,0.0,0.0,0.0,0.0,0.0,0.0,0.0,0.0,0.0,0.0,0.0,0.0,0.0,0.0,0.0,0.0,0.0,0.0,0.0,0.0,0.0,0.0,0.0,0.0,0.0,0.0,0.0,-1.112,-0.8062,-0.5718,-0.53,-0.7403,-0.9583,-1.1379,-1.295,0.0,0.0,0.0,0.0,0.0,0.0,0.0,0.0,0.0,0.0,0.0,0.0,0.0,0.0,0.0,0.0,0.0,0.0,0.0,0.0,0.0,0.0,0.0,0.0,0.0,0.0,0.0,0.0,0.0,0.0,0.0,0.0,0.0,0.0,0.0,0.0,0.0,0.0,0.0,0.0,0.0,0.0,0.0,0.0,0.0,0.0,0.0,0.0,0.0,0.0,0.0,0.0,0.0,0.0,0.0,0.0,0.0,0.0,0.0,0.0,0.0,0.0,0.0,0.0,0.0,0.0,0.0,0.0,0.0,0.0,0.0,0.0,0.0,0.0,0.0,0.0,0.0,0.0,0.0,0.0,0.0,0.0,0.0,0.0,0.0,0.0,0.0,0.0,0.0,0.0,0.0,0.0,0.0,0.0,0.0,0.0,0.0,0.0,0.0,0.0,0.0,0.0,0.0,-1.0524,-0.8629,-0.7621,-0.4029,-0.3268,-0.7119,-0.8254,-0.9883,-1.2669,-1.2617,0.0,0.0,0.0,0.0,0.0,0.0,0.0,0.0,0.0,0.0,0.0,0.0,0.0,0.0,0.0,0.0,0.0,0.0,0.0,0.0,0.0,0.0,0.0,0.0,0.0,0.0,0.0,0.0,0.0,0.0,0.0,0.0,0.0,0.0,0.0,0.0,0.0,0.0,0.0,0.0,0.0,0.0,0.0,0.0,0.0,0.0,0.0,0.0,0.0,0.0,0.0,0.0,0.0,0.0,0.0,0.0,0.0,0.0,0.0,0.0,0.0,0.0,0.0,0.0,0.0,0.0,0.0,0.0,0.0,0.0,0.0,0.0,0.0,0.0,0.0,0.0,0.0,0.0,0.0,0.0,0.0,0.0,0.0,0.0,0.0,0.0,0.0,0.0,0.0,0.0,0.0,0.0,0.0,0.0,0.0,0.0,0.0,0.0,0.0,0.0,0.0,0.0,-0.9203,-0.6572,-0.7487,-0.3076,-0.2014,-0.6955,-0.6718,-0.8145,-1.2404,-1.193,0.0,0.0,0.0,0.0,0.0,0.0,0.0,0.0,0.0,0.0,0.0,0.0,0.0,0.0,0.0,0.0,0.0,0.0,0.0,0.0,0.0,0.0,0.0,0.0,0.0,0.0,0.0,0.0,0.0,0.0,0.0,0.0,0.0,0.0,0.0,0.0,0.0,0.0,0.0,0.0,0.0,0.0,0.0,0.0,0.0,0.0,0.0,0.0,0.0,0.0,0.0,0.0,0.0,0.0,0.0,0.0,0.0,0.0,0.0,0.0,0.0,0.0,0.0,0.0,0.0,0.0,0.0,0.0,0.0,0.0,0.0,0.0,0.0,0.0,0.0,0.0,0.0,0.0,0.0,0.0,0.0,0.0,0.0,0.0,0.0,0.0,0.0,0.0,0.0,0.0,0.0,0.0,0.0,0.0,0.0,0.0,0.0,0.0,0.0,0.0,0.0,0.0,-0.9509,-0.7132,-0.7585,-0.3088,-0.2019,-0.7024,-0.5221,-0.6362,-1.2298,-1.0355,0.0,0.0,0.0,0.0,0.0,0.0,0.0,0.0,0.0,0.0,0.0,0.0,0.0,0.0,0.0,0.0,0.0,0.0,0.0,0.0,0.0,0.0,0.0,0.0,0.0,0.0,0.0,0.0,0.0,0.0,0.0,0.0,0.0,0.0,0.0,0.0,0.0,0.0,0.0,0.0,0.0,0.0,0.0,0.0,0.0,0.0,0.0,0.0,0.0,0.0,0.0,0.0,0.0,0.0,0.0,0.0,0.0,0.0,0.0,0.0,0.0,0.0,0.0,0.0,0.0,0.0,0.0,0.0,0.0,0.0,0.0,0.0,0.0,0.0,0.0,0.0,0.0,0.0,0.0,0.0,0.0,0.0,0.0,0.0,0.0,0.0,0.0,0.0,0.0,0.0,0.0,0.0,0.0,0.0,0.0,0.0,0.0,0.0,0.0,0.0,0.0,0.0,-0.9256,-0.69,-0.7504,-0.3062,-0.1998,-0.6814,-0.6262,-0.7664,-1.2259,0.0,0.0,0.0,0.0,0.0,0.0,0.0,0.0,0.0,0.0,0.0,0.0,0.0,0.0,0.0,0.0,0.0,0.0,0.0,0.0,0.0,0.0,0.0,0.0,0.0,0.0,0.0,0.0,0.0,0.0,0.0,0.0,0.0,0.0,0.0,0.0,0.0,0.0,0.0,0.0,0.0,0.0,0.0,0.0,0.0,0.0,0.0,0.0,0.0,0.0,0.0,0.0,0.0,0.0,0.0,0.0,0.0,0.0,0.0,0.0,0.0,0.0,0.0,0.0,0.0,0.0,0.0,0.0,0.0,0.0,0.0,0.0,0.0,0.0,0.0,0.0,0.0,0.0,0.0,0.0,0.0,0.0,0.0,0.0,0.0,0.0,0.0,0.0,0.0,0.0,0.0,0.0,0.0,0.0,0.0,0.0,0.0,0.0,0.0,0.0,0.0,0.0,-1.2861,-0.9974,-0.7739,-0.7649,-0.3805,-0.2834,-0.6743,-0.6317,-0.763,-1.2121,0.0,0.0,0.0,0.0,0.0,0.0,0.0,0.0,0.0,0.0,0.0,0.0,0.0,0.0,0.0,0.0,0.0,0.0,0.0,0.0,0.0,0.0,0.0,0.0,0.0,0.0,0.0,0.0,0.0,0.0,0.0,0.0,0.0,0.0,0.0,0.0,0.0,0.0,0.0,0.0,0.0,0.0,0.0,0.0,0.0,0.0,0.0,0.0,0.0,0.0,0.0,0.0,0.0,0.0,0.0,0.0,0.0,0.0,0.0,0.0,0.0,0.0,0.0,0.0,0.0,0.0,0.0,0.0,0.0,0.0,0.0,0.0,0.0,0.0,0.0,0.0,0.0,0.0,0.0,0.0,0.0,0.0,0.0,0.0,0.0,0.0,0.0,0.0,0.0,0.0,0.0,0.0,0.0,0.0,0.0,0.0,0.0,0.0,0.0,0.0,0.0,0.0,-1.2901,-1.1801,-1.0018,-0.7858,-0.5318,-0.4713,-0.6924,-0.4839,-0.5964,0.0,0.0,0.0,0.0,0.0,0.0,0.0,0.0,0.0,0.0,0.0,0.0,0.0,0.0,0.0,0.0,0.0,0.0,0.0,0.0,0.0,0.0,0.0,0.0,0.0,0.0,0.0,0.0,0.0,0.0,0.0,0.0,0.0,0.0,0.0,0.0,0.0,0.0,0.0,0.0,0.0,0.0,0.0,0.0,0.0,0.0,0.0,0.0,0.0,0.0,0.0,0.0,0.0,0.0,0.0,0.0,0.0,0.0,0.0,0.0,0.0,0.0,0.0,0.0,0.0,0.0,0.0,0.0,0.0,0.0,0.0,0.0,0.0,0.0,0.0,0.0,0.0,0.0,0.0,0.0,0.0,0.0,0.0,0.0,0.0,0.0,0.0,0.0,0.0,0.0,0.0,0.0,0.0,0.0,0.0,0.0,0.0,0.0,0.0,0.0,0.0,0.0,0.0,-1.2752,-1.1589,-1.0562,-1.0212,-0.7749,-0.7141,-0.9578,-0.8665,-0.9262,-1.2123,0.0,0.0,0.0,0.0,0.0,0.0,0.0,0.0,0.0,0.0,0.0,0.0,0.0,0.0,0.0,0.0,0.0,0.0,0.0,0.0,0.0,0.0,0.0,0.0,0.0,0.0,0.0,0.0,0.0,0.0,0.0,0.0,0.0,0.0,0.0,0.0,0.0,0.0,0.0,0.0,0.0,0.0,0.0,0.0,0.0,0.0,0.0,0.0,0.0,0.0,0.0,0.0,0.0,0.0,0.0,0.0,0.0,0.0,0.0,0.0,0.0,0.0,0.0,0.0,0.0,0.0,0.0,0.0,0.0,0.0,0.0,0.0,0.0,0.0,0.0,0.0,0.0,0.0,0.0,0.0,0.0,0.0,0.0,0.0,0.0,0.0,0.0,0.0,0.0,0.0,0.0,0.0,0.0,0.0,0.0,0.0,0.0,0.0,0.0,0.0,0.0,0.0,-1.2678,-1.235,-1.1905,-1.1125,-0.9613,-0.9194,-1.0709,-1.0386,-1.0786,-1.2286,0.0,0.0,0.0,0.0,0.0,0.0,0.0,0.0,0.0,0.0,0.0,0.0,0.0,0.0,0.0,0.0,0.0,0.0,0.0,0.0,0.0,0.0,0.0,0.0,0.0,0.0,0.0,0.0,0.0,0.0,0.0,0.0,0.0,0.0,0.0,0.0,0.0,0.0,0.0,0.0,0.0,0.0,0.0,0.0,0.0,0.0,0.0,0.0,0.0,0.0,0.0,0.0,0.0,0.0,0.0,0.0,0.0,0.0,0.0,0.0,0.0,0.0,0.0,0.0,0.0,0.0,0.0,0.0,0.0,0.0,0.0,0.0,0.0,0.0,0.0,0.0,0.0,0.0,0.0,0.0,0.0,0.0,0.0,0.0,0.0,0.0,0.0,0.0,0.0,0.0,0.0,0.0,0.0,0.0,0.0,0.0,0.0,0.0,0.0,0.0,0.0,0.0,-1.263,-1.3627,-1.349,-1.1464,-1.1201,-1.1159,-1.1071,-1.0568,-1.0867,-1.2115,0.0,0.0,0.0,0.0,0.0,0.0,0.0,0.0,0.0,0.0,0.0,0.0,0.0,0.0,0.0,0.0,0.0,0.0,0.0,0.0,0.0,0.0,0.0,0.0,0.0,0.0,0.0,0.0,0.0,0.0,0.0,0.0,0.0,0.0,0.0,0.0,0.0,0.0,0.0,0.0,0.0,0.0,0.0,0.0,0.0,0.0,0.0,0.0,0.0,0.0,0.0,0.0,0.0,0.0,0.0,0.0,0.0,0.0,0.0,0.0,-1.1994,-1.1552,0.0,0.0,0.0,0.0,0.0,0.0,0.0,0.0,0.0,0.0,0.0,0.0,0.0,0.0,0.0,0.0,0.0,0.0,0.0,0.0,0.0,0.0,0.0,0.0,0.0,0.0,0.0,0.0,0.0,0.0,0.0,0.0,0.0,0.0,0.0,0.0,0.0,0.0,0.0,0.0,-1.2488,-1.3471,-1.4055,-1.3797,-1.3643,-1.3611,-1.3688,-1.1569,-1.0315,-1.0256,-0.6875,0.0,0.0,0.0,0.0,0.0,0.0,0.0,0.0,0.0,0.0,0.0,0.0,0.0,0.0,0.0,0.0,0.0,0.0,0.0,0.0,0.0,0.0,0.0,0.0,0.0,0.0,0.0,0.0,0.0,0.0,0.0,0.0,0.0,0.0,0.0,0.0,0.0,0.0,0.0,0.0,0.0,0.0,0.0,0.0,0.0,0.0,0.0,0.0,0.0,0.0,0.0,0.0,0.0,0.0,0.0,0.0,0.0,0.0,0.0,-1.2121,-1.2412,0.0,0.0,0.0,0.0,0.0,0.0,0.0,0.0,0.0,0.0,0.0,0.0,0.0,0.0,0.0,0.0,0.0,0.0,0.0,0.0,0.0,0.0,0.0,0.0,0.0,0.0,0.0,0.0,0.0,0.0,0.0,0.0,0.0,0.0,0.0,0.0,0.0,0.0,0.0,0.0,-1.2637,-1.3444,-1.4075,-1.438,-1.4346,-1.4333,-1.4407,-1.1975,-1.023,-0.9805,-0.6333,0.0,0.0,0.0,0.0,0.0,0.0,0.0,0.0,0.0,0.0,0.0,0.0,0.0,0.0,0.0,0.0,0.0,0.0,0.0,0.0,0.0,0.0,0.0,0.0,0.0,0.0,0.0,0.0,0.0,0.0,0.0,0.0,0.0,0.0,0.0,0.0,0.0,0.0,0.0,0.0,0.0,0.0,0.0,0.0,0.0,0.0,0.0,0.0,0.0,0.0,0.0,0.0,0.0,-1.7523,-1.6225,-1.4876,-1.3454,-1.2854,-1.284,-1.2678,-1.3532,-1.4774,-1.3028,0.0,0.0,0.0,0.0,0.0,0.0,0.0,0.0,0.0,0.0,0.0,0.0,0.0,0.0,0.0,0.0,0.0,0.0,0.0,0.0,0.0,0.0,-1.242,-1.2766,-1.2963,-1.2868,-1.2094,0.0,0.0,0.0,0.0,0.0,0.0,0.0,0.0,0.0,0.0,0.0,-1.2854,-1.3478,-1.396,-1.4265,-1.4299,-1.4292,-1.4265,-1.1547,-0.9768,-0.9471,-0.6398,-0.4274,0.0,0.0,0.0,0.0,0.0,0.0,0.0,0.0,0.0,0.0,0.0,0.0,0.0,0.0,0.0,0.0,0.0,0.0,0.0,0.0,0.0,0.0,0.0,0.0,0.0,0.0,0.0,0.0,0.0,0.0,0.0,0.0,-1.1932,-1.4102,0.0,0.0,0.0,0.0,0.0,0.0,0.0,0.0,0.0,0.0,0.0,0.0,0.0,-2.1653,-2.2787,-2.4326,-2.3507,-2.0384,-2.0358,-1.8237,-1.4215,-1.4217,-1.4245,-1.4231,-1.396,0.0,-1.3584,-1.4746,0.0,0.0,0.0,0.0,0.0,0.0,0.0,0.0,0.0,0.0,0.0,0.0,0.0,0.0,0.0,0.0,0.0,0.0,0.0,0.0,0.0,0.0,-1.3403,-1.3329,-1.3431,-1.3471,-1.322,-1.2535,-1.1843,-1.1389,-1.1301,-1.1158,0.0,0.0,0.0,0.0,0.0,0.0,-1.2895,-1.3478,-1.396,-1.4265,-1.4299,-1.4245,-1.4116,-1.0101,-0.7459,-0.7299,-0.3156,-0.2114,-0.5252,-0.5325,0.0,0.0,0.0,0.0,0.0,0.0,0.0,0.0,0.0,0.0,0.0,0.0,0.0,0.0,0.0,0.0,0.0,0.0,0.0,0.0,0.0,0.0,0.0,0.0,0.0,0.0,0.0,0.0,0.0,-1.2685,-1.3862,-1.6221,-1.4673,-1.4554,0.0,0.0,0.0,0.0,0.0,0.0,0.0,0.0,0.0,-1.828,-2.109,-2.3158,-2.4199,-2.5224,-2.3501,-1.9223,-1.9405,-1.7687,-1.4448,-1.4584,-1.4638,-1.4638,-1.4597,-1.438,-1.4107,-1.4426,-1.5041,-1.5707,0.0,0.0,0.0,0.0,-1.3163,-1.3067,-1.2637,-1.263,-1.2986,-1.3752,0.0,0.0,0.0,0.0,0.0,0.0,0.0,-1.2121,-1.2372,-1.2901,-1.3417,-1.3607,-1.3831,-1.3966,-1.381,-1.3403,-1.2854,-1.2149,-1.2013,-1.185,-1.1314,-1.126,0.0,0.0,0.0,-1.2637,-1.3254,-1.3709,-1.4055,-1.4278,-1.4299,-1.4238,-1.4082,-0.9831,-0.7049,-0.6937,-0.2545,-0.128,-0.4158,-0.4989,-0.6681,0.0,0.0,0.0,0.0,0.0,0.0,0.0,0.0,0.0,0.0,0.0,0.0,0.0,0.0,0.0,0.0,0.0,0.0,0.0,0.0,0.0,0.0,0.0,0.0,0.0,0.0,0.0,0.0,-1.3384,-1.5678,-1.7875,-1.7035,-1.7399,0.0,0.0,0.0,0.0,0.0,0.0,-1.4253,-1.6647,-1.8917,-2.0611,-2.3303,-2.4855,-2.5155,-2.5308,-2.2998,-1.8307,-1.8307,-1.7045,-1.4801,-1.4835,-1.4855,-1.4862,-1.4977,-1.4957,-1.4801,-1.417,-1.4557,-1.5416,-1.3746,-1.3684,-1.4346,-1.3155,-1.2664,-1.2617,-1.2915,-1.3159,-1.3555,-1.4723,-1.4128,-1.3099,-1.4029,0.0,0.0,0.0,0.0,-1.2379,-1.2745,-1.3119,-1.3485,-1.3817,-1.4102,-1.4258,-1.4102,-1.398,-1.3668,-1.2881,-1.2698,-1.2494,-1.1938,-1.1816,0.0,-1.2135,-1.2494,-1.2949,-1.3553,-1.3885,-1.4129,-1.4285,-1.4265,-1.4001,-1.3233,-0.9965,-0.7633,-0.687,-0.3548,-0.2586,-0.4641,-0.6022,-0.7499,-0.9264,0.0,0.0,0.0,0.0,0.0,0.0,0.0,0.0,0.0,0.0,0.0,0.0,0.0,0.0,0.0,0.0,0.0,0.0,0.0,0.0,0.0,0.0,0.0,0.0,0.0,0.0,0.0,0.0,0.0,-1.7915,-1.9239,0.0,0.0,0.0,0.0,-2.1117,-2.1798,-2.1256,-1.9221,-2.3615,-2.4812,-2.1705,-2.5958,-2.748,-2.5807,-2.5495,-2.3072,-1.8583,-1.8492,-1.7225,-1.4964,-1.5099,-1.516,-1.516,-1.5167,-1.5167,-1.5133,-1.4814,-1.4516,-1.4299,-1.377,-1.3492,-1.3507,-1.3349,-1.3349,-1.339,-1.3682,-1.3797,-1.3831,-1.4046,-1.3896,-1.3471,-1.2954,-1.2667,0.0,0.0,-1.2589,-1.2949,-1.3112,-1.3587,-1.4034,-1.4055,-1.4183,-1.4258,-1.4102,-1.4068,-1.3919,-1.3444,-1.3241,-1.2996,-1.2535,0.0,-1.2793,-1.2522,-1.2976,-1.3424,-1.3607,-1.3885,-1.4129,-1.4285,-1.417,-1.314,-1.0913,-1.0374,-0.916,-0.6878,-0.6397,-0.7121,-0.922,-0.9143,-0.9974,-1.1871,-1.1237,0.0,0.0,0.0,0.0,0.0,0.0,0.0,0.0,0.0,0.0,0.0,0.0,0.0,0.0,0.0,0.0,0.0,0.0,0.0,0.0,0.0,0.0,0.0,0.0,0.0,0.0,0.0,0.0,-2.0624,-2.0479,0.0,-2.3871,-2.2906,-2.2252,-2.2537,-2.3407,-2.3087,-2.1129,-2.2814,-2.3956,-2.4474,-2.6102,-2.5914,-2.3721,-2.3545,-2.1178,-1.639,-1.639,-1.5932,-1.5106,-1.516,-1.5181,-1.5181,-1.5181,-1.5181,-1.5167,-1.497,-1.4828,-1.4692,-1.434,-1.4109,-1.3987,-1.4082,-1.3994,-1.3865,-1.4068,-1.4136,-1.4129,-1.4089,-1.3933,-1.3722,-1.3512,-1.3342,-1.322,-1.3166,-1.3268,-1.3403,-1.3451,-1.377,-1.4075,-1.4075,-1.419,-1.4285,-1.4231,-1.4143,-1.4021,-1.3865,-1.3634,-1.3356,-1.2996,-1.3024,-1.3091,-1.3085,-1.3349,-1.3634,-1.3885,-1.4095,-1.4238,-1.4292,-1.2829,-1.2079,-1.2552,-0.9843,-0.7684,-0.6718,-0.6611,-0.6777,-0.7449,-0.8632,-0.9643,-1.0213,-0.9843,-0.8697,0.0,0.0,0.0,0.0,0.0,0.0,0.0,0.0,0.0,0.0,0.0,0.0,0.0,0.0,0.0,0.0,0.0,0.0,0.0,0.0,0.0,0.0,0.0,0.0,0.0,-1.9257,-2.0645,-2.2269,-2.2747,-2.3779,-2.5911,-2.4839,-2.4289,-2.4878,-2.4938,-2.4447,-2.3291,-2.4064,-2.5066,-2.6049,-2.6061,-2.4958,-2.2556,-2.1728,-1.9242,-1.5181,-1.5181,-1.5181,-1.5181,-1.5181,-1.5181,-1.5181,-1.5181,-1.5181,-1.5174,-1.5031,-1.497,-1.4943,-1.4631,-1.4482,-1.4448,-1.4441,-1.4346,-1.4231,-1.4278,-1.4299,-1.4278,-1.4122,-1.4,-1.3905,-1.3858,-1.3777,-1.3702,-1.3702,-1.3736,-1.3777,-1.3777,-1.3966,-1.415,-1.415,-1.4224,-1.4299,-1.4299,-1.4224,-1.4136,-1.4082,-1.3831,-1.3532,-1.3227,-1.3132,-1.3119,-1.3166,-1.3308,-1.3492,-1.3736,-1.3987,-1.4143,-1.4143,-1.2068,-1.1199,-1.2552,-0.9066,-0.6759,-0.6711,-0.7267,-0.7489,-0.7441,-0.9304,-0.9993,-0.9299,-0.8892,-0.7547,-0.5181,0.0,0.0,0.0,0.0,0.0,0.0,0.0,0.0,0.0,0.0,0.0,0.0,0.0,0.0,0.0,0.0,0.0,0.0,0.0,0.0,0.0,0.0,0.0,-2.0967,-2.234,-2.3302,-2.2742,-2.6195,-2.827,-2.7319,-2.6093,-2.626,-2.8386,-2.6573,-2.5583,-2.5943,-2.822,-2.8526,-2.6308,-2.632,-2.5036,-2.2474,-2.0159,-1.7763,-1.5181,-1.5181,-1.5181,-1.5181,-1.5181,-1.5181,-1.5181,-1.5181,-1.5181,-1.5174,-1.5031,-1.497,-1.4943,-1.4638,-1.4604,-1.4699,-1.4503,-1.4476,-1.4572,-1.4346,-1.4299,-1.4278,-1.4129,-1.4082,-1.4048,-1.3899,-1.3851,-1.3844,-1.3844,-1.3953,-1.4075,-1.4075,-1.4183,-1.4299,-1.4299,-1.4299,-1.4299,-1.4299,-1.4299,-1.4251,-1.4102,-1.3838,-1.3539,-1.3241,-1.3071,-1.2929,-1.2786,-1.2895,0.0,-1.3186,-1.3587,-1.3851,-1.3844,-1.179,-1.0498,-1.0548,-0.8227,-0.6792,-0.677,-0.8651,-0.9682,-0.9612,-1.1217,-1.1239,-0.9425,-0.864,-0.7465,-0.5823,0.0,0.0,0.0,0.0,0.0,0.0,0.0,0.0,0.0,0.0,0.0,0.0,0.0,0.0,0.0,0.0,0.0,0.0,0.0,0.0,0.0,-2.342,-2.417,-2.3953,-2.4672,-2.5635,-2.6522,-2.7817,-2.7891,-2.6093,-2.7158,-2.7573,-2.6616,-2.7687,-2.8486,-2.877,-2.9422,-2.8732,-2.632,-2.7973,-2.6036,-1.9974,-2.0991,-1.9427,-1.5181,-1.5181,-1.5181,-1.5181,-1.5181,-1.5181,-1.5181,-1.5181,-1.5181,-1.5174,-1.5031,-1.497,-1.495,-1.4753,-1.4631,-1.4744,-1.6336,-1.6952,-1.6608,-1.4925,-1.4299,-1.4292,-1.4251,-1.4238,-1.4231,-1.419,-1.4095,-1.4007,-1.4007,-1.4041,-1.4075,-1.4075,-1.4183,-1.4299,-1.4299,-1.4299,-1.4299,-1.4299,-1.4299,-1.4251,-1.4102,-1.3912,-1.3722,-1.3539,-1.3376,-1.3336,-1.3512,-1.3573,-1.3695,-1.396,-1.4095,-1.4089,-1.3865,-1.1877,-1.122,-1.2449,-1.0602,-0.9248,-0.8992,-1.0947,-1.1294,-0.9547,-1.1374,-1.1447,-0.9433,-0.771,-0.6638,0.0,0.0,0.0,0.0,0.0,0.0,0.0,0.0,0.0,0.0,0.0,0.0,0.0,0.0,0.0,0.0,0.0,0.0,0.0,0.0,0.0,0.0,-2.4302,-2.5398,-2.5758,-2.6319,-2.7041,-2.8114,-2.8524,-2.7917,-2.5784,-2.6903,-2.7293,-2.6084,-2.7386,-2.8771,-2.9824,-3.0034,-2.8938,-2.632,-2.6592,-2.4295,-1.8964,-1.9242,-1.805,-1.5181,-1.5181,-1.5181,-1.5181,-1.5181,-1.5181,-1.5181,-1.5181,-1.5181,-1.5174,-1.5092,-1.4984,-1.4862,0.0,0.0,0.0,0.0,-1.6437,-1.6122,-1.4734,-1.4299,-1.4299,-1.4299,-1.4299,-1.4299,-1.4299,-1.4238,-1.4163,-1.4163,-1.4163,-1.4163,-1.4163,-1.4231,-1.4299,-1.4299,-1.4299,-1.4299,-1.4299,-1.4251,-1.4177,-1.4089,-1.3899,0.0,-1.3641,-1.3397,-1.3275,-1.3444,-1.3471,-1.358,-1.3885,-1.4034,-1.4041,-1.3858,-1.1923,-1.1488,-1.3539,-1.0735,0.0,0.0,0.0,-1.1227,-1.055,-1.0926,0.0,0.0,0.0,0.0,0.0,0.0,0.0,0.0,-0.779,-0.8203,0.0,0.0,0.0,0.0,0.0,0.0,0.0,0.0,0.0,0.0,0.0,0.0,0.0,0.0,0.0,0.0,-2.4743,-2.5959,-2.68,-2.7168,-2.7645,-2.8203,-2.8267,-2.7548,-2.5955,-2.61,-2.6241,-2.6276,-2.6763,-2.7933,-2.993,-3.0234,0.0,0.0,0.0,-2.1685,-1.9023,-1.6812,-1.5504,-1.5208,-1.5228,-1.5215,-1.5181,-1.5201,-1.5201,-1.5181,-1.5181,-1.5181,-1.5181,-1.5167,-1.4984,-1.4699,-1.455,-1.475,-1.5028,-1.4626,-1.4586,-1.4646,-1.4387,0.0,0.0,-1.4299,-1.4299,-1.4299,-1.4299,-1.4299,-1.4299,-1.4299,-1.4299,-1.4299,-1.4299,-1.4299,-1.4299,-1.4299,-1.4299,-1.4299,-1.4299,-1.419,-1.4095,-1.4075,-1.3844,-1.3648,-1.3634,-1.3281,-1.3024,-1.3057,-1.3057,-1.3166,-1.3464,-1.3729,-1.3878,-1.3759,-1.2167,0.0,-1.384,-1.0146,-0.8505,-1.0509,-1.0242,-1.0673,-1.2142,-1.0613,-0.9595,-0.9294,-0.7465,-0.7621,-0.9752,-0.9457,-1.041,-1.2501,-1.0185,-1.0125,0.0,0.0,0.0,0.0,0.0,0.0,0.0,0.0,0.0,0.0,0.0,0.0,0.0,0.0,0.0,-2.4943,-2.5919,-2.6787,-2.7442,-2.6305,-2.6315,-2.8559,-2.5571,-2.4029,-2.5931,-2.6206,-2.6312,-2.6615,-2.8544,-2.9965,-3.0608,-3.0461,-2.9311,-2.7038,-2.6179,-2.3644,-1.9414,-1.8756,-1.7463,-1.5371,-1.5493,0.0,-1.5187,-1.5309,-1.5296,-1.5181,-1.5181,-1.5181,-1.5174,-1.5059,-1.4828,-1.4543,-1.4394,-1.5491,-1.6993,-1.5049,-1.5543,-1.6809,-1.4992,-1.4299,-1.4299,-1.4299,-1.4299,-1.4299,-1.4299,-1.4299,0.0,-1.4299,-1.4299,-1.4299,-1.4299,-1.4299,-1.4299,-1.4299,-1.4299,-1.4299,-1.4299,-1.4278,-1.4217,-1.4095,-1.3926,-1.3763,-1.3648,-1.3458,-1.3397,-1.3634,-1.3668,-1.3783,-1.4089,-1.4177,-1.4116,-1.3865,-1.3672,-1.3559,-1.3573,-1.2874,-1.2558,-1.2611,-1.242,-1.2443,-1.261,-1.2284,-1.1966,-1.1791,-1.1403,-1.1428,-1.1869,-1.1869,-1.2114,-1.2678,-1.204,-1.202,0.0,0.0,0.0,0.0,0.0,0.0,0.0,0.0,0.0,0.0,0.0,-2.477,-2.5256,0.0,-2.5277,-2.5852,-2.6814,-2.7162,-2.6239,-2.5627,-2.62,-2.8657,-2.5937,-2.4497,-2.6279,-2.7536,-2.7921,-2.6979,-2.9292,-3.0795,-3.0795,-3.0795,-2.9646,-2.7192,-2.5642,-2.3091,-1.9516,-1.8113,-1.6708,-1.5411,-1.5411,-1.533,-1.5181,-1.5262,-1.5255,-1.5181,-1.5181,-1.5181,-1.5167,-1.4943,-1.4767,-1.4604,-1.4387,-1.4992,-1.5946,-1.4734,-1.508,-1.5858,-1.4734,-1.4299,-1.4299,-1.4299,-1.4299,-1.4299,-1.4299,-1.4299,-1.4299,-1.4299,-1.4299,-1.4299,-1.4299,-1.4299,-1.4299,-1.4299,-1.4299,-1.4299,-1.4299,-1.4238,-1.4163,-1.4089,-1.3892,-1.3709,-1.3641,-1.3505,-1.3478,-1.3702,-1.3736,-1.3817,-1.4041,-1.4068,-1.4014,-1.3858,-1.398,-1.3946,-1.3648,-1.3688,-1.3573,-1.32,-1.3105,-1.2963,-1.2739,-1.2732,-1.2657,-1.2508,-1.1482,-1.1482,-1.2501,-1.1482,-1.1557,-1.2725,-1.2651,-1.2698,0.0,0.0,0.0,0.0,0.0,0.0,0.0,-2.4079,-2.6008,-2.6929,-2.7198,-2.7451,-2.8084,-2.7107,-2.6319,-2.668,-2.7604,-2.7571,-2.5677,-2.5505,-2.6519,-2.885,-2.6714,-2.5681,-2.7317,-2.8765,-2.9179,-2.7998,-2.9943,-3.1156,-3.0969,-3.1129,-2.9994,-2.7345,-2.4619,-2.2039,-1.9575,-1.6884,-1.5466,-1.5411,-1.5316,-1.5242,-1.5181,-1.5215,-1.5208,-1.5181,-1.5181,-1.5153,-1.5079,-1.4841,-1.4706,-1.4631,-1.4394,-1.4299,-1.4299,-1.4299,-1.4299,-1.4299,-1.4299,-1.4299,-1.4299,-1.4299,-1.4299,-1.4299,-1.4299,-1.4299,-1.4299,-1.4299,-1.4299,-1.4299,-1.4299,-1.4299,-1.4299,-1.4299,-1.4299,-1.4299,-1.4299,-1.4204,-1.4109,-1.4075,-1.3851,-1.3661,-1.3634,-1.3526,-1.3485,-1.3607,-1.3627,-1.3682,-1.3824,-1.3838,-1.3838,-1.3838,-1.3838,-1.3831,-1.3804,-1.3668,-1.3478,-1.3234,-1.3214,-1.3098,-1.2827,-1.2793,-1.2705,-1.2549,-1.0874,-1.0856,-1.2501,-1.0856,-1.0939,-1.2773,-1.2773,-1.2854,-1.9118,-1.9332,-1.9933,-2.0494,-2.1105,-2.238,0.0,-2.6598,-2.7586,-3.0909,-3.0288,-2.9224,-2.9754,-2.8363,-2.7295,-2.7939,-2.814,-2.8239,-2.8512,-2.6969,-2.671,-2.9154,-2.5461,-2.4585,-2.9547,-2.8203,-2.8137,-3.0556,-3.1009,-3.133,-3.1557,-3.1356,-3.0174,-2.7782,-2.4865,-2.226,-1.9779,-1.7164,-1.5669,-1.5411,-1.5533,-1.5445,-1.5187,-1.5323,-1.5309,-1.5181,-1.5181,-1.5031,-1.4787,-1.4753,-1.4584,-1.4346,-1.4312,-1.4299,-1.4299,-1.4299,-1.4299,-1.4299,-1.4299,-1.4299,-1.4299,-1.4299,-1.4299,-1.4299,-1.4299,-1.4299,-1.4299,-1.4299,-1.4299,-1.4299,-1.4299,-1.4299,-1.4299,-1.4299,-1.4299,-1.4299,-1.4299,-1.4285,-1.4238,-1.4095,-1.3933,-1.3777,-1.3648,-1.3614,-1.3607,-1.3627,-1.3627,-1.3682,-1.3824,-1.3838,-1.3838,-1.3838,-1.3838,-1.379,-1.3661,-1.3512,-1.341,-1.3376,-1.3376,-1.3302,-1.3132,-1.3003,-1.2861,-1.2705,-1.2336,-1.2269,-1.2501,-1.2269,-1.2416,-1.2935,-1.2935,-1.301,-2.0615,-2.0641,-2.0869,-2.2151,-2.2792,-2.3872,-2.6858,-2.8697,-3.0649,-3.3643,-3.2889,-3.1826,-3.2253,-2.9977,-2.8123,-2.8377,-2.8698,-2.8557,-2.7284,-2.7724,-2.8079,-2.7631,-2.7079,-2.7739,-3.0358,-2.9819,-2.9891,-3.1355,-3.149,-3.1543,-3.1664,-3.1557,-3.038,-2.7876,-2.5014,-2.2394,-1.9805,-1.7024,-1.5533,-1.5411,-1.5384,-1.5309,-1.5181,-1.5248,-1.5242,-1.5181,-1.5181,-1.5065,-1.4869,-1.478,-1.4618,-1.4414,-1.4333,-1.4299,-1.4299,-1.4299,-1.4299,-1.4299,-1.4299,-1.4299,-1.4299,-1.4299,-1.4299,-1.4299,-1.4299,-1.4299,-1.4299,-1.4299,-1.4299,-1.4299,-1.4299,-1.4299,-1.4299,-1.4299,-1.4299,-1.4299,-1.4299,-1.4299,-1.4278,-1.4217,-1.4007,-1.3824,-1.3763,-1.3682,-1.36,-1.3512,-1.3573,-1.362,-1.3587,-1.3587,-1.3587,-1.3587,-1.3587,-1.3559,-1.3498,-1.3437,-1.3403,-1.3403,-1.3403,-1.3336,-1.318,-1.3037,-1.2888,-1.2732,-1.2576,-1.2501,-1.2501,-1.2501,-1.2617,-1.2827,-1.2922,-1.3037,-2.147,-2.155,-2.1724,-2.326,-2.3995,-2.5052,-2.8106,-3.0435,-3.2933,-3.6198,-3.5009,-3.3569,-3.4093,-3.1126,-2.8631,-2.8711,-2.9219,-2.8958,-2.7136,-2.8103,-2.8344,-2.6423,-2.7867,-2.9183,-2.9597,-3.0558,-3.1263,-3.1637,-3.1664,-3.1664,-3.1664,-3.0985,-2.9421,-2.6806,-2.4043,-2.1316,-1.8681,-1.6486,-1.5391,-1.5343,-1.5235,-1.5181,-1.5181,-1.5181,-1.5181,-1.5181,-1.5181,-1.5079,-1.4896,-1.4787,-1.4624,-1.4441,-1.434,-1.4299,-1.4299,-1.4299,-1.4299,-1.4299,-1.4299,-1.4299,-1.4299,-1.4299,-1.4299,-1.4299,-1.4299,-1.4299,-1.4299,-1.4299,-1.4299,-1.4299,-1.4299,-1.4299,-1.4299,-1.4299,-1.4299,-1.4299,-1.4299,-1.4299,-1.4299,-1.421,-1.4028,-1.3846,-1.3824,-1.3777,-1.3688,-1.3492,-1.3593,-1.362,-1.3424,-1.3403,-1.3403,-1.3403,-1.3403,-1.3403,-1.3403,-1.3403,-1.3403,-1.3403,-1.3403,-1.3349,-1.3241,-1.3098,-1.2949,-1.28,-1.2644,-1.2542,-1.2501,-1.2501,-1.2603,-1.2793,-1.2908,-1.3057,-2.0975,-2.1537,-2.2178,-2.3113,-2.3981,-2.5778,-3.0428,-3.1754,-3.346,-3.8726,-3.6397,-3.3635,-3.4503,-3.1357,-2.8698,-2.8978,-2.9513,-2.99,-2.981,-2.8016,-2.6603,-2.6265,-2.6544,-2.6801,-2.6813,-2.9215,-3.1049,-3.1623,-3.1664,-3.1664,-3.1664,-2.9338,-2.6698,-2.4074,-2.1357,-1.8576,-1.5739,-1.5486,-1.5337,-1.5187,-1.5181,-1.5181,-1.5181,-1.5181,-1.5181,-1.5181,-1.5181,-1.5018,-1.4746,-1.474,-1.457,-1.4306,-1.4299,-1.4299,-1.4299,-1.4299,-1.4299,-1.4299,-1.4299,-1.4299,-1.4299,-1.4299,-1.4299,-1.4299,-1.4299,-1.4299,-1.4299,-1.4299,-1.4299,-1.4299,-1.4299,-1.4299,-1.4299,-1.4299,-1.4299,-1.4299,-1.4299,-1.4299,-1.4299,-1.4115,-1.4108,-1.4069,-1.3862,-1.3991,-1.396,-1.3668,-1.3743,-1.3729,-1.3437,-1.3403,-1.3403,-1.3403,-1.3403,-1.3403,-1.3403,-1.3403,-1.3403,-1.3403,-1.3403,-1.3397,-1.3397,-1.3247,-1.3098,-1.2956,-1.28,-1.2651,-1.2501,-1.2501,-1.2657,-1.2956,-1.3043,-1.3119,-2.2258,-2.2726,-2.3086,-2.3968,-2.4716,-2.6293,-3.0631,-3.1969,-3.37,-3.8439,-3.6004,-3.329,-3.4076,-3.114,-2.8698,-2.8991,-2.97,-3.014,-2.994,-2.9586,-2.9246,-2.868,-2.8963,-2.9143,-2.9143,-2.8636,-2.8482,-2.8744,-2.8864,-2.8938,-2.9135,-2.8272,-2.6613,-2.3977,-2.1123,-1.8352,-1.5642,-1.5384,-1.5235,-1.5181,-1.5181,-1.5181,-1.5181,-1.5181,-1.5133,-1.5038,-1.5038,-1.4869,-1.459,-1.459,-1.4475,-1.4299,-1.4299,-1.4299,-1.4299,-1.4299,-1.4299,-1.4299,-1.4299,-1.4299,-1.4299,-1.4299,-1.4299,-1.4299,-1.4299,-1.4299,-1.4299,-1.4299,-1.4299,-1.4299,-1.4299,-1.4299,-1.4299,-1.4299,-1.4299,-1.4299,-1.4299,-1.4299,-1.4299,-1.421,-1.4122,-1.4075,-1.4028,-1.4055,-1.4087,-1.3933,-1.3709,-1.3512,-1.341,-1.3403,-1.3403,-1.3403,-1.3403,-1.3403,-1.3403,-1.3403,-1.3403,-1.3403,-1.3403,-1.3403,-1.3403,-1.3254,-1.3152,-1.3105,-1.2861,-1.2752,-1.2807,-1.2603,-1.2657,-1.2963,-1.2963,-1.3064,-2.3086,-2.3487,-2.3701,-2.4583,-2.5157,-2.6572,-3.0766,-3.2151,-3.3744,-3.8267,-3.5807,-3.3137,-3.373,-3.0786,-2.8417,-2.8818,-2.9633,-3.0167,-3.0087,-2.973,-2.9295,-2.8834,-2.8847,-2.8898,-2.8898,-2.7652,-2.7247,-2.8462,-2.79,-2.7546,-2.7627,-2.6845,-2.5206,-2.2509,-1.9589,-1.732,-1.5554,-1.5309,-1.5181,-1.5181,-1.5181,-1.5181,-1.5181,-1.5181,-1.5106,-1.497,-1.497,-1.4794,-1.4509,-1.4509,-1.4428,-1.4299,-1.4299,-1.4299,-1.4299,-1.4299,-1.4299,-1.4299,-1.4299,-1.4299,-1.4299,-1.4299,-1.4299,-1.4299,-1.4299,-1.4299,-1.4299,-1.4299,-1.4299,-1.4299,-1.4299,-1.4299,-1.4299,-1.4299,-1.4299,-1.4299,-1.4299,-1.4299,-1.4299,-1.4299,-1.421,-1.421,-1.421,-1.4143,-1.4107,-1.3994,-1.3702,-1.3485,-1.3485,-1.3437,-1.3403,-1.3403,-1.3403,-1.3403,-1.3403,-1.3403,-1.3403,-1.3403,-1.3403,-1.3403,-1.3403,-1.3308,-1.3227,-1.3173,-1.2983,-1.2915,-1.2963,-1.2766,-1.2793,-1.3037,-1.3037,-1.3112,-2.342,-2.3808,-2.4022,-2.4863,-2.5291,-2.6627,-3.0905,-3.2057,-3.3524,-3.7949,-3.5531,-3.2769,-3.3191,-3.0196,-2.7843,-2.8444,-2.9325,-2.9944,-3.0132,-2.8451,-2.7016,-2.6745,-2.6406,-2.6241,-2.6411,-2.6229,-2.7457,-3.032,-2.8531,-2.7168,-2.6907,-2.4896,-2.2499,-1.991,-1.7046,-1.556,-1.5411,-1.5262,-1.5181,-1.5181,-1.5181,-1.5181,-1.5181,-1.5181,-1.5099,-1.4957,-1.4957,-1.4787,-1.4502,-1.4502,-1.4421,-1.4299,-1.4299,-1.4299,-1.4299,-1.4299,-1.4299,-1.4299,-1.4299,-1.4299,-1.4299,-1.4299,-1.4299,-1.4299,-1.4299,-1.4299,-1.4299,-1.4299,-1.4299,-1.4299,-1.4299,-1.4299,-1.4299,-1.4299,-1.4299,-1.4299,-1.4299,-1.4299,-1.4299,-1.4299,-1.4299,-1.4299,-1.4299,-1.4177,-1.4034,-1.3885,-1.3736,-1.3634,-1.362,-1.3492,-1.3403,-1.3403,-1.3403,-1.3403,-1.3403,-1.3403,-1.3403,-1.3403,-1.3403,-1.3403,-1.3403,-1.3403,-1.3336,-1.3186,-1.3173,-1.3112,-1.2983,-1.305,-1.3037,-1.3186,-1.3173,-1.3254,-2.4142,-2.4422,-2.4529,-2.497,-2.5291,-2.626,-2.9109,-2.9669,-3.0312,-3.2998,-3.1105,-2.9093,-2.9186,-2.8011,-2.7175,-2.7549,-2.9098,-2.9612,-2.772,-2.7471,-2.7216,-2.6664,-2.6558,-2.7184,-2.8822,-2.7238,-2.6561,-2.7342,-2.5358,-2.3392,-2.1807,-2.1051,-2.0377,-1.9805,-1.6936,-1.5452,-1.5411,-1.5262,-1.5181,-1.5181,-1.5181,-1.5181,-1.5181,-1.5181,-1.5045,-1.4801,-1.4801,-1.4631,-1.4353,-1.4353,-1.4333,-1.4299,-1.4299,-1.4299,-1.4299,-1.4299,-1.4299,-1.4299,-1.4299,-1.4299,-1.4299,-1.4299,-1.4299,-1.4299,-1.4299,-1.4299,-1.4299,-1.4299,-1.4299,-1.4299,-1.4299,-1.4299,-1.4299,-1.4299,-1.4299,-1.4299,-1.4299,-1.4299,-1.4299,-1.4299,-1.4299,-1.4299,-1.4299,-1.4272,-1.4231,-1.419,-1.396,-1.3709,-1.3485,-1.3424,-1.3403,-1.3403,-1.3403,-1.3403,-1.3403,-1.3403,-1.3403,-1.3403,-1.3403,-1.3403,-1.3403,-1.3403,-1.3383,-1.3342,-1.3227,-1.3214,-1.3288,-1.3071,-1.3091,-1.3342,-1.3227,-1.3254,-2.4596,-2.4836,-2.493,-2.5358,-2.5585,-2.6432,-2.9062,-2.9043,-2.9078,-3.1429,-2.955,-2.7527,-2.7692,-2.705,-2.6667,-2.7348,-2.8871,-2.9274,-2.7,-2.7122,-2.6897,-2.5368,-2.5994,-2.7109,-2.8264,-2.7039,-2.5775,-2.4671,-2.3601,-2.1969,-1.9646,-2.0574,-2.0574,-1.9558,-1.8984,-1.8088,-1.6989,-1.5779,-1.5181,-1.5181,-1.5181,-1.5181,-1.5181,-1.5181,-1.5025,-1.474,-1.474,-1.457,-1.4299,-1.4299,-1.4299,-1.4306,-1.4367,-1.4353,-1.4306,-1.4373,-1.4353,-1.4299,-1.4299,-1.4299,-1.4299,-1.4299,-1.4299,-1.4299,-1.4299,-1.4299,-1.4299,-1.4299,-1.4299,-1.4299,-1.4299,-1.4299,-1.4299,-1.4299,-1.4299,-1.4299,-1.4299,-1.4299,-1.4299,-1.4299,-1.4299,-1.4299,-1.4299,-1.4299,-1.4278,-1.4211,-1.4055,-1.3858,-1.3627,-1.3485,-1.3403,-1.3403,-1.3403,-1.3403,-1.3403,-1.3403,-1.3403,-1.3403,-1.3403,-1.3403,-1.3403,-1.3403,-1.3403,-1.3403,-1.3315,-1.3315,-1.3403,-1.3234,-1.3241,-1.3397,-1.3315,-1.3315,-2.4917,-2.5144,-2.5264,-2.5889,-2.6037,-2.6773,-2.9577,-2.8846,-2.8289,-3.0837,-2.8773,-2.6632,-2.7018,-2.6098,-2.574,-2.6846,-2.782,-2.7801,-2.6098,-2.6043,-2.5359,-2.3143,-2.4469,-2.5672,-2.5949,-2.5822,-2.4671,-2.2188,-2.2274,-2.146,-1.9244,-2.1339,-2.1716,-1.9586,-2.1628,-2.1542,-1.8964,-1.6752,-1.5549,-1.5181,-1.5181,-1.5181,-1.5181,-1.5181,-1.5031,-1.4767,-1.4746,-1.4584,-1.4326,-1.4306,-1.4299,-1.4312,-1.4434,-1.4407,-1.4312,-1.4434,-1.4407,-1.4299,-1.4299,-1.4299,-1.4299,-1.4299,-1.4299,-1.4299,-1.4299,-1.4299,-1.4299,-1.4299,-1.4299,-1.4299,-1.4299,-1.4299,-1.4299,-1.4299,-1.4299,-1.4299,-1.4299,-1.4299,-1.4299,-1.4299,-1.4299,-1.4299,-1.4299,-1.4299,-1.4251,-1.4122,-1.4082,-1.4021,-1.3885,-1.3627,-1.3451,-1.3431,-1.3431,-1.3424,-1.3403,-1.3403,-1.3403,-1.3403,-1.3403,-1.3403,-1.3403,-1.3403,-1.3403,-1.3403,-1.3403,-1.3403,-1.3403,-1.3403,-1.3403,-1.3403,-1.3403,-1.3403,-2.5331,-2.5438,-2.5518,-2.5865,-2.6037,-2.6325,-2.7703,-2.6428,-2.5226,-2.6299,-2.4573,-2.3051,-2.3612,-2.2653,-2.2174,-2.3375,-2.3047,-2.206,-2.0474,-2.0388,-2.0409,-2.022,-2.0322,-2.1198,-2.3251,-2.3241,-2.2188,-1.9697,-1.9546,-1.9447,-1.9141,-1.9406,-2.0334,-2.1879,-2.234,-2.1398,-1.8964,-1.8499,-1.7211,-1.5181,-1.5181,-1.5181,-1.5181,-1.5181,-1.5092,-1.4923,-1.4794,-1.4638,-1.4468,-1.4346,-1.4299,-1.4299,-1.4326,-1.4319,-1.4306,-1.4326,-1.4319,-1.4299,-1.4299,-1.4299,-1.4299,-1.4299,-1.4299,-1.4299,-1.4299,-1.4299,-1.4299,-1.4299,-1.4299,-1.4299,-1.4299,-1.4299,-1.4299,-1.4299,-1.4299,-1.4299,-1.4299,-1.4299,-1.4299,-1.4299,-1.4299,-1.4299,-1.4299,-1.4299,-1.4292,-1.4265,-1.415,-1.4061,-1.4034,-1.3871,-1.3722,-1.36,-1.3587,-1.3539,-1.341,-1.3403,-1.3403,-1.3403,-1.3403,-1.3403,-1.3403,-1.3403,-1.3403,-1.3403,-1.3403,-1.3403,-1.3403,-1.3403,-1.3403,-1.3403,-1.3403,-1.3403,-2.5251,-2.5518,-2.5812,-2.6106,-2.702,-2.7583,-2.6954,-2.6127,-2.5351,-2.4553,-2.299,-2.1674,-2.128,-2.1026,-2.097,-2.1112,-2.1214,-2.065,-1.8919,-1.9006,-1.8922,-1.7741,-1.8592,-1.9777,-2.0904,-2.0805,-2.0742,-2.0816,-1.9604,-1.8905,-1.8998,-2.1315,-2.3838,-2.6229,-2.5127,-2.3289,-2.0806,-1.9511,-1.767,-1.5181,-1.5181,-1.5181,-1.5181,-1.5181,-1.5106,-1.497,-1.4896,-1.4774,-1.4618,-1.4468,-1.4407,-1.4407,-1.4407,-1.4367,-1.4306,-1.438,-1.4367,-1.4299,-1.4299,-1.4299,-1.4299,-1.4299,-1.4299,-1.4299,-1.4299,-1.4299,-1.4299,-1.4299,-1.4299,-1.4299,-1.4299,-1.4299,-1.4299,-1.4299,-1.4299,-1.4299,-1.4299,-1.4299,-1.4299,-1.4299,-1.4299,-1.4299,-1.4299,-1.4299,-1.4299,-1.4299,-1.4238,-1.419,-1.419,-1.4122,-1.3994,-1.3763,-1.3675,-1.36,-1.3526,-1.3444,-1.3403,-1.3403,-1.3403,-1.3403,-1.3403,-1.3403,-1.3403,-1.3403,-1.3403,-1.3403,-1.3403,-1.3403,-1.3403,-1.3403,-1.3403,-1.3403,-2.5291,-2.5692,-2.6262,-2.6871,-2.8218,-2.8925,-2.7221,-2.6837,-2.6209,-2.4041,-2.2476,-2.1137,-1.9911,-1.9796,-1.9715,-1.8997,-1.917,-1.9137,-1.844,-1.8367,-1.7939,-1.6731,-1.7823,-1.8809,-1.9204,-1.9106,-1.9771,-2.1554,-2.0437,-1.9882,-2.0437,-2.4569,-2.7883,-2.9824,-2.7973,-2.5582,-2.2556,-2.0622,-1.8135,-1.5181,-1.5181,-1.5181,-1.5181,-1.5181,-1.512,-1.5018,-1.4984,-1.4882,-1.4726,-1.4577,-1.4496,-1.4468,-1.4468,-1.4401,-1.4312,-1.4428,-1.4394,-1.4299,-1.4299,-1.4299,-1.4299,-1.4299,-1.4299,-1.4299,-1.4299,-1.4299,-1.4299,-1.4299,-1.4299,-1.4299,-1.4299,-1.4299,-1.4306,-1.434,-1.4346,-1.4346,-1.4346,-1.4346,-1.434,-1.4306,-1.4299,-1.4299,-1.4299,-1.4299,-1.4299,-1.4299,-1.4299,-1.4299,-1.4299,-1.4299,-1.4211,-1.3966,-1.381,-1.3709,-1.3675,-1.3566,-1.3485,-1.3451,-1.3451,-1.3437,-1.3403,-1.3403,-1.3403,-1.3403,-1.3403,-1.3403,-1.3403,-1.3403,-1.3403,-1.3403,-1.3403,-1.3403,-2.5985,-2.6306,-2.6819,-2.8671,-2.9293,-2.9306,-2.9035,-2.7793,-2.6209,-2.4041,-2.2306,-2.0903,-2.0182,-1.8309,-1.6697,-1.6401,-1.457,-1.4305,-1.7603,-1.6263,-1.5957,-1.8694,-1.718,-1.6832,-1.8917,-1.9006,-1.8981,-1.9242,-2.1083,-2.3106,-2.54,-2.8076,-2.9644,-2.9913,-2.9644,-2.7341,-2.2556,-2.228,-1.9798,-1.5181,-1.5181,-1.5181,-1.5181,-1.5181,-1.5174,-1.5153,-1.5025,-1.4882,-1.4726,-1.4577,-1.4434,-1.4319,-1.4319,-1.4312,-1.4299,-1.4312,-1.4312,-1.4299,-1.4299,-1.4299,-1.4299,-1.4299,-1.4299,-1.4299,-1.4299,-1.4299,-1.4299,-1.4299,-1.4299,-1.4299,-1.4299,-1.4299,-1.4333,-1.4462,-1.4489,-1.4489,-1.4489,-1.4489,-1.4455,-1.4326,-1.4299,-1.4299,-1.4299,-1.4299,-1.4299,-1.4299,-1.4299,-1.4299,-1.4299,-1.4299,-1.4292,-1.4258,-1.4122,-1.3973,-1.3831,-1.381,-1.3743,-1.3614,-1.3607,-1.3546,-1.3403,-1.3403,-1.3403,-1.3403,-1.3403,-1.3403,-1.3403,-1.3403,-1.3403,-1.3403,-1.3403,-1.3403,-2.4997,-2.5838,-2.7064,-2.8964,-2.952,-2.9318,-2.8029,-2.7239,-2.5936,-2.2723,-2.077,-1.9316,-1.8112,-1.6255,-1.5087,-1.54,-1.4781,-1.4931,-1.6919,-1.6578,-1.631,-1.677,-1.6011,-1.6247,-1.839,-1.8862,-2.0193,-2.3106,-2.5582,-2.7431,-2.8346,-2.9362,-2.9913,-2.9913,-2.8436,-2.6048,-2.2566,-2.1083,-1.86,-1.5181,-1.5181,-1.5181,-1.5181,-1.5181,-1.5181,-1.5174,-1.5031,-1.4936,-1.4862,-1.4611,-1.4475,-1.4421,-1.4333,-1.4299,-1.4299,-1.4299,-1.4299,-1.4299,-1.4299,-1.4299,-1.4299,-1.4299,-1.4299,-1.4299,-1.4299,-1.4299,-1.4326,-1.4434,-1.4387,-1.4326,-1.4441,-1.4387,-1.436,-1.459,-1.4577,-1.4536,-1.4631,-1.4652,-1.4604,-1.4455,-1.4449,-1.4394,-1.4299,-1.4299,-1.4299,-1.4299,-1.4299,-1.4299,-1.4299,-1.4299,-1.4299,-1.4299,-1.4163,-1.4048,-1.3987,-1.3892,-1.3817,-1.3756,-1.3756,-1.3688,-1.3546,-1.3539,-1.3498,-1.3403,-1.3403,-1.3403,-1.3403,-1.3403,-1.3403,-1.3403,-1.3403,-1.3403,-2.4396,-2.5424,-2.6887,-2.892,-2.9479,-2.9047,-2.7236,-2.6761,-2.5642,-2.2001,-1.9958,-1.836,-1.6834,-1.5165,-1.4252,-1.4902,-1.5176,-1.5872,-1.7437,-1.7952,-1.7655,-1.6217,-1.661,-1.7628,-1.9182,-2.0474,-2.2902,-2.6979,-2.8256,-2.9092,-2.9824,-2.9913,-2.9913,-2.9913,-2.7521,-2.5036,-2.2566,-2.0159,-1.767,-1.5181,-1.5181,-1.5181,-1.5181,-1.5181,-1.5181,-1.5174,-1.5079,-1.5011,-1.495,-1.474,-1.4597,-1.4502,-1.4401,-1.434,-1.4299,-1.4299,-1.4299,-1.4299,-1.4299,-1.4299,-1.4299,-1.4299,-1.4299,-1.4299,-1.4299,-1.4299,-1.4326,-1.4372,-1.4434,-1.4401,-1.4493,-1.4529,-1.4496,-1.4746,-1.4726,-1.4679,-1.4787,-1.4808,-1.4767,-1.4554,-1.4544,-1.4524,-1.4448,-1.4373,-1.4401,-1.436,-1.4326,-1.4299,-1.4299,-1.4299,-1.4299,-1.4299,-1.4204,-1.4136,-1.4136,-1.4041,-1.396,-1.3912,-1.3905,-1.3844,-1.3695,-1.3654,-1.358,-1.3471,-1.3424,-1.3403,-1.3403,-1.3403,-1.3403,-1.3403,-1.3403,-1.3403,-2.4676,-2.5291,-2.6112,-2.8758,-2.897,-2.8281,-2.707,-2.658,-2.5502,-2.2233,-2.031,-1.8687,-1.7059,-1.5256,-1.4139,-1.466,-1.4953,-1.621,-1.9403,-2.0126,-1.9721,-1.8174,-1.9693,-2.1223,-2.1838,-2.4431,-2.7148,-2.9644,-2.7612,-2.7328,-2.9734,-2.9913,-2.9913,-2.9913,-2.7521,-2.5036,-2.2556,-2.0067,-1.767,-1.5181,-1.5181,-1.5181,-1.5181,-1.5181,-1.5181,-1.5181,-1.5181,-1.5099,-1.497,-1.497,-1.4787,-1.4509,-1.4509,-1.4421,-1.4299,-1.4299,-1.4299,-1.4299,-1.4299,-1.4299,-1.4299,-1.4299,-1.4299,-1.4299,-1.4299,-1.4299,-1.4299,-1.4299,-1.4401,-1.4543,-1.4699,-1.4733,-1.4774,-1.493,-1.497,-1.497,-1.497,-1.497,-1.495,-1.4698,-1.466,-1.4702,-1.4716,-1.4557,-1.4531,-1.4489,-1.4387,-1.4299,-1.4299,-1.4299,-1.4299,-1.4299,-1.4299,-1.4299,-1.4299,-1.4299,-1.4231,-1.4082,-1.4068,-1.4,-1.3844,-1.3702,-1.3627,-1.3627,-1.3478,-1.3403,-1.3403,-1.3403,-1.3403,-1.3403,-1.3403,-1.3403,-2.3131,-2.3928,-2.5111,-2.7141,-2.675,-2.5906,-2.5914,-2.5106,-2.379,-2.1986,-1.944,-1.737,-1.6884,-1.4395,-1.2919,-1.47,-1.503,-1.5682,-1.7306,-1.7687,-1.7298,-1.5943,-1.9169,-2.2344,-2.4655,-2.6851,-2.8574,-2.9797,-2.9182,-2.9079,-2.9824,-2.9913,-2.9092,-2.7431,-2.4945,-2.2464,-2.0067,-1.7584,-1.6018,-1.5181,-1.5181,-1.5181,-1.5181,-1.5181,-1.5181,-1.5174,-1.5079,-1.5011,-1.4957,-1.474,-1.4597,-1.4502,-1.4407,-1.434,-1.4299,-1.4299,-1.4299,-1.4299,-1.4299,-1.4387,-1.4415,-1.4448,-1.4543,-1.4597,-1.4597,-1.4507,-1.443,-1.4588,-1.4669,-1.4835,-1.4889,-1.474,-1.4672,-1.5031,-1.4964,-1.4869,-1.5072,-1.5113,-1.5079,-1.4964,-1.4923,-1.4875,-1.4702,-1.4658,-1.4658,-1.4601,-1.457,-1.4585,-1.4585,-1.4585,-1.4585,-1.4585,-1.4462,-1.4407,-1.4306,-1.4299,-1.4278,-1.4231,-1.4231,-1.4156,-1.4007,-1.3953,-1.3838,-1.3634,-1.358,-1.3505,-1.3403,-1.3403,-1.3403,-1.3403,-1.3403,-1.3403,-2.2324,-2.3046,-2.4056,-2.5327,-2.4832,-2.4042,-2.4305,-2.3551,-2.2579,-2.1789,-1.9578,-1.766,-1.6904,-1.514,-1.3993,-1.4857,-1.5591,-1.6068,-1.614,-1.7106,-1.7841,-1.8147,-1.9496,-2.2135,-2.6674,-2.7573,-2.8525,-2.9797,-2.9913,-2.9913,-2.9913,-2.9913,-2.8295,-2.4811,-2.3248,-2.136,-1.8964,-1.6471,-1.5181,-1.5181,-1.5181,-1.5181,-1.5181,-1.5181,-1.5181,-1.5174,-1.5086,-1.5052,0.0,-1.4787,-1.4652,-1.4584,-1.4434,-1.4346,-1.4299,-1.4299,-1.4299,-1.4306,-1.436,-1.4469,-1.451,-1.4534,-1.4649,-1.4702,-1.4821,-1.4696,-1.4577,-1.4783,-1.4943,-1.4984,-1.5038,-1.4869,-1.4767,-1.5106,-1.4997,-1.4889,-1.5133,-1.5181,-1.5153,-1.5065,-1.512,-1.5026,-1.4936,-1.4865,-1.4832,-1.4837,-1.4719,-1.4674,-1.4674,-1.4742,-1.4665,-1.459,-1.4543,-1.4455,-1.4312,-1.4299,-1.4299,-1.4299,-1.4299,-1.4258,-1.4163,-1.4102,-1.3987,-1.3797,-1.3688,-1.358,-1.3485,-1.3431,-1.3403,-1.3403,-1.3403,-1.3403,0.0,-2.2525,-2.2941,-2.3434,-2.3166,-2.2686,-2.2392,-2.2085,0.0,-2.1474,-2.0244,-1.8675,-1.6904,-1.6828,-1.6558,-1.4906,-1.6294,-1.7115,-1.5937,-1.7785,-2.0384,-2.3278,-2.0606,-2.1097,-2.781,-2.7256,-2.7431,-2.9734,-2.9913,-2.9913,-2.9913,-2.99,-2.7553,-2.2493,-2.2404,-2.122,-1.8643,-1.6349,-1.5153,-1.5153,-1.5153,-1.5153,-1.5167,-1.5153,-1.516,-1.5167,-1.5153,-1.5153,-1.514,-1.4997,-1.4855,-1.4706,-1.4557,-1.4414,-1.4299,-1.4299,-1.4299,-1.4319,-1.4455,-1.4516,-1.4577,-1.4729,-1.4711,-1.4725,-1.497,-1.4875,-1.4787,-1.4943,-1.4984,-1.5018,-1.5147,-1.5079,-1.5004,-1.5147,-1.5072,-1.5011,-1.5153,-1.5181,-1.5181,-1.5181,-1.5181,-1.5181,-1.5181,-1.5087,-1.4986,-1.4986,-1.4862,-1.4722,-1.4722,-1.4696,-1.4644,-1.4554,-1.4563,-1.4475,-1.434,-1.4312,-1.4299,-1.4299,-1.4299,-1.4299,-1.4299,-1.4163,-1.4082,-1.4075,-1.3777,-1.3627,-1.3614,-1.3471,-1.3403,-1.3403,-1.3403,-1.3403,-2.1363,0.0,-2.155,-2.1697,-2.1804,-2.1856,0.0,-2.0706,-1.9947,-1.9679,-1.7339,-1.5211,-1.4882,-1.5265,-1.4894,-1.2882,-1.4465,-1.5861,-1.547,-1.661,-1.7996,-1.9429,-2.0657,-2.2868,-2.642,-2.8142,-2.9272,-2.9824,-2.9913,-2.9913,-2.9913,-2.9713,-2.7367,-2.2493,-2.2111,-1.9979,-1.5744,-1.5117,-1.4841,-1.4841,-1.4841,-1.4909,-1.5018,-1.4896,-1.4909,-1.5011,-1.4896,-1.4841,-1.4835,-1.4679,-1.4597,-1.455,-1.4407,-1.4333,-1.4299,-1.4299,-1.4299,-1.4306,-1.4428,-1.4543,-1.4736,-1.4945,-1.5113,-1.5113,-1.5126,-1.5031,-1.495,-1.5092,-1.5133,-1.514,-1.5174,-1.5079,-1.5004,-1.5147,-1.5072,-1.5011,-1.5153,-1.5181,-1.5181,-1.5181,-1.5181,-1.5181,-1.5181,-1.5181,-1.5181,-1.5181,-1.5099,-1.5045,-1.5045,-1.5079,-1.5092,-1.5045,-1.4828,-1.4672,-1.4638,-1.4428,-1.4299,-1.4299,-1.4299,-1.4299,-1.4299,-1.4265,-1.419,-1.4075,-1.3777,-1.3573,-1.3458,-1.3417,-1.3403,-1.3403,-1.3403,-1.3403,-2.1109,-2.1203,-2.1309,-2.1309,-2.1494,-2.1316,-2.0361,-1.9532,-1.8757,-1.7761,-1.6277,-1.4855,-1.4019,-1.5041,-1.5426,-1.3745,-1.528,-1.6889,-1.7322,-1.8293,-1.9182,-1.9758,-2.1429,-2.3473,-2.5957,-2.7431,-2.8719,-2.9824,-2.9913,-2.986,-2.9726,-2.9566,-2.7182,-2.2186,-2.1886,-1.9482,-1.474,-1.474,-1.474,-1.474,-1.474,-1.4787,-1.4862,-1.478,-1.4787,-1.4862,-1.4774,-1.474,-1.4726,-1.4577,-1.4509,-1.4496,-1.4353,-1.434,-1.4387,-1.4326,-1.434,-1.4394,-1.449,-1.4631,-1.4857,-1.5126,-1.5181,-1.5181,-1.5181,-1.5126,-1.5086,-1.516,-1.5181,-1.5181,-1.5181,-1.5079,-1.5004,-1.5147,-1.5072,-1.5011,-1.5153,-1.5181,-1.5181,-1.5181,-1.5181,-1.5181,-1.5181,-1.5181,-1.5181,-1.5181,-1.5181,-1.5181,-1.5181,-1.5181,-1.5147,-1.5152,-1.493,-1.4787,-1.4645,-1.4489,-1.4367,-1.4306,-1.4299,-1.4299,-1.4299,-1.4299,-1.4231,-1.4075,-1.3912,-1.3756,-1.36,-1.36,-1.36,-1.36,-1.36,-1.36,-2.1186,-2.1413,-2.1655,-2.1681,-2.1655,-2.1162,-1.947,-1.8594,-1.7602,-1.5848,-1.5524,-1.5128,-1.3519,-1.545,-1.679,-1.5319,-1.688,-1.8676,-1.9738,-2.0952,-2.1708,-2.1598,-2.2409,-2.3742,-2.5841,-2.6383,-2.7488,-2.9601,-2.978,-2.9673,-2.9432,-2.9379,-2.7046,-2.1828,-2.1612,-1.9399,-1.4672,-1.4672,-1.4672,-1.4672,-1.4672,-1.4685,-1.4706,-1.4679,-1.4685,-1.4706,-1.4679,-1.4672,-1.4665,-1.4529,-1.4482,-1.4468,-1.4373,-1.4407,-1.4496,-1.4373,-1.4414,-1.4516,-1.4489,-1.4713,-1.5018,-1.512,-1.5167,-1.5181,-1.5181,-1.5181,-1.5181,-1.5181,-1.5181,-1.5181,-1.5181,-1.5092,-1.5031,-1.5153,-1.5092,-1.5038,-1.5153,-1.5181,-1.5181,-1.5181,-1.5181,-1.5181,-1.5181,-1.5181,-1.5181,-1.5181,-1.5181,-1.5181,-1.5181,-1.5181,-1.512,-1.5042,-1.5049,-1.4855,-1.457,-1.4523,-1.4448,-1.4306,-1.4299,-1.4299,-1.4299,-1.4299,-1.4231,-1.4075,-1.4075,-1.3994,-1.3838,-1.3838,-1.3838,-1.3838,-1.3838,-1.3838,-2.1466,-2.175,-2.1932,-2.1949,-2.1802,-2.1214,-1.97,-1.7795,-1.5784,-1.4036,-1.2799,-1.196,-1.1889,-1.5594,-1.7444,-1.37,-1.6458,-1.9237,-1.9999,-2.1921,-2.2766,-2.1299,-2.3348,-2.514,-2.5495,-2.7385,-2.8728,-2.9091,-2.9179,-2.9152,-2.9112,-2.8871,-2.6574,-2.1818,-2.146,-1.9039,-1.4367,-1.4367,-1.4367,-1.4367,-1.4367,-1.4428,-1.4543,-1.4421,-1.4434,-1.4536,-1.4421,-1.4367,-1.4367,-1.434,-1.4333,-1.434,-1.4441,-1.4489,-1.4509,-1.4489,-1.4523,-1.464,-1.4661,-1.4881,-1.5133,-1.5038,-1.5086,-1.5181,-1.5181,-1.5181,-1.5181,-1.5181,-1.5181,-1.5181,-1.5181,-1.5167,-1.5153,-1.5174,-1.5167,-1.5153,-1.5174,-1.5181,-1.5181,-1.5181,-1.5181,-1.5181,-1.5181,-1.5181,-1.5181,-1.5181,-1.5181,-1.5181,-1.5181,-1.5181,-1.5167,-1.514,-1.5038,-1.4896,-1.4719,-1.4584,-1.4448,-1.4306,-1.4299,-1.4299,-1.4299,-1.4299,-1.4231,-1.4075,-1.4075,-1.3994,-1.3838,-1.3838,-1.3838,-1.3838,-1.3838,-1.3838,-2.1326,-2.1568,-2.1948,-2.2524,-2.2578,-2.2052,-2.0493,-1.9416,-1.8064,-1.5499,-1.4702,-1.4484,-1.4596,-1.6731,-1.8414,-1.8582,-2.1526,-2.3863,-2.4145,-2.54,-2.5531,-2.3384,-2.5595,-2.6809,-2.5554,-2.761,-2.9045,-2.9045,-2.9045,-2.8965,-2.8818,-2.8684,-2.6413,-2.1557,-2.1272,-1.8976,-1.4387,-1.4299,-1.4299,-1.4299,-1.4299,-1.4333,-1.4394,-1.4333,-1.4333,-1.4394,-1.4326,-1.4299,-1.4299,-1.4299,-1.4299,-1.4306,-1.4373,-1.4441,-1.4516,-1.4536,-1.4502,-1.4524,-1.4537,-1.4708,-1.4821,-1.4841,-1.495,-1.5052,-1.497,-1.5052,-1.5167,-1.5086,-1.512,-1.5181,-1.5181,-1.5181,-1.5181,-1.5181,-1.5181,-1.5181,-1.5181,-1.5181,-1.5181,-1.5181,-1.5181,-1.5181,-1.5181,-1.5181,-1.5181,-1.5181,-1.5181,-1.5181,-1.5181,-1.5181,-1.5181,-1.5181,-1.5126,-1.4991,-1.476,-1.4672,-1.4536,-1.4312,-1.4299,-1.4299,-1.4299,-1.4299,-1.4265,-1.4197,-1.4197,-1.4163,-1.4089,-1.4089,-1.4089,-1.4089,-1.4089,-1.4089,-2.1253,-2.1483,-2.2031,-2.297,-2.2812,-2.1982,-2.0555,-2.029,-1.9551,-1.6735,-1.65,-1.7026,-1.7571,-1.8001,-1.9639,-2.3642,-2.5659,-2.7048,-2.7692,-2.8203,-2.7787,-2.5933,-2.7538,-2.8126,-2.6263,-2.7766,-2.8831,-2.8831,-2.8831,-2.8738,-2.8511,-2.8497,-2.6546,-2.218,-2.148,-1.9237,-1.5168,-1.4557,-1.4299,-1.4299,-1.4299,-1.4299,-1.4299,-1.4299,-1.4299,-1.4299,-1.4299,-1.4299,-1.4299,-1.4299,-1.4299,-1.4306,-1.434,-1.4414,-1.4523,-1.45,-1.4502,-1.4367,-1.4475,-1.4536,-1.4577,-1.4658,-1.4794,-1.4896,-1.4774,-1.4896,-1.5065,-1.4991,-1.5052,-1.514,-1.5174,-1.5181,-1.5181,-1.5181,-1.5181,-1.5181,-1.5181,-1.5181,-1.5181,-1.5181,-1.5181,-1.5181,-1.5181,-1.5181,-1.5181,-1.5181,-1.5181,-1.5181,-1.5181,-1.5181,-1.5181,-1.5181,-1.5181,-1.5079,-1.4814,-1.4726,-1.459,-1.4367,-1.4319,-1.4299,-1.4299,-1.4299,-1.4299,-1.4299,-1.4299,-1.4299,-1.4299,-1.4299,-1.4299,-1.4299,-1.4299,-1.4299,-2.1622,-2.1924,-2.2444,-2.2849,-2.1279,-1.953,-1.9065,-1.8403,-1.7427,-1.5731,-1.5633,-1.6563,-1.8648,-1.9369,-2.105,-2.5476,-2.5007,-2.5043,-2.7777,-2.8234,-2.8177,-2.7994,-2.8105,-2.8203,-2.8034,-2.8119,-2.8288,-2.8288,-2.8288,-2.8274,-2.8261,-2.8261,-2.7037,-2.452,-2.2342,-2.0009,-1.7588,-1.5425,-1.4299,-1.4299,-1.4299,-1.4299,-1.4299,-1.4299,-1.4299,-1.4299,-1.4299,-1.4299,-1.4299,-1.4299,-1.4299,-1.4312,-1.4441,-1.4502,-1.4529,-1.4672,-1.4631,-1.4482,-1.4544,-1.4592,-1.4699,-1.457,-1.4631,-1.4753,-1.474,-1.4753,-1.4801,-1.4936,-1.4977,-1.5018,-1.5147,-1.5181,-1.5181,-1.5181,-1.5181,-1.5181,-1.5181,-1.5181,-1.5181,-1.5181,-1.5181,-1.5181,-1.5181,-1.5181,-1.5181,-1.5181,-1.5181,-1.5181,-1.5181,-1.5181,-1.5181,-1.5181,-1.5181,-1.512,-1.497,-1.4692,-1.4516,-1.4496,-1.4373,-1.4299,-1.4299,-1.4299,-1.4299,-1.4299,-1.4299,-1.4299,-1.4299,-1.4299,-1.4299,-1.4299,-1.4299,-1.4299,-2.1303,-2.1856,-2.2525,-2.302,-2.1518,-2.0004,-2.0043,-2.0676,-2.0812,-1.9394,-2.0578,-2.2107,-2.2992,-2.3393,-2.4405,-2.6837,-2.6336,-2.6259,-2.7946,-2.8221,-2.8221,-2.8221,-2.8221,-2.8221,-2.8221,-2.8221,-2.8221,-2.8221,-2.8221,-2.8221,-2.8221,-2.8221,-2.7109,-2.4776,-2.2439,-2.0096,-1.7842,-1.5513,-1.4299,-1.4299,-1.4299,-1.4299,-1.4299,-1.4299,-1.4299,-1.4299,-1.4299,-1.4299,-1.4299,-1.4299,-1.4299,-1.4306,-1.436,-1.438,-1.4387,-1.4441,-1.4428,-1.4373,-1.4408,-1.4373,-1.4455,-1.4401,-1.4482,-1.4584,-1.4496,-1.4658,-1.4875,-1.4835,-1.4957,-1.5113,-1.5167,-1.5181,-1.5181,-1.5181,-1.5181,-1.5181,-1.5181,-1.5181,-1.5181,-1.5181,-1.5181,-1.5181,-1.5181,-1.5181,-1.5181,-1.5181,-1.5181,-1.5181,-1.5181,-1.5181,-1.5181,-1.5181,-1.5106,-1.5031,-1.4977,-1.4774,-1.4611,-1.4516,-1.438,-1.4299,-1.4299,-1.4299,-1.4299,-1.4299,-1.4299,-1.4299,-1.4299,-1.4299,-1.4299,-1.4299,-1.4299,-1.4299,-2.1157,-2.1815,-2.2589,-2.2871,-2.1722,-2.0659,-2.0994,-2.1808,-2.2407,-2.1884,-2.4022,-2.5633,-2.4817,-2.5413,-2.636,-2.7161,-2.7108,-2.7241,-2.8114,-2.8221,-2.8221,-2.8221,-2.8221,-2.8221,-2.8221,-2.8221,-2.8221,-2.8221,-2.8221,-2.8221,-2.8221,-2.8221,-2.7109,-2.4776,-2.2439,-2.0096,-1.7842,-1.5513,-1.4299,-1.4299,-1.4299,-1.4299,-1.4299,-1.4299,-1.4299,-1.4299,-1.4299,-1.4299,-1.4299,-1.4299,-1.4299,-1.4299,-1.4299,-1.4299,-1.4299,-1.4299,-1.4299,-1.4299,-1.4299,-1.4299,-1.4299,-1.4299,-1.4367,-1.4434,-1.438,-1.4584,-1.4821,-1.4814,-1.4957,-1.5126,-1.5167,-1.5181,-1.5181,-1.5181,-1.5181,-1.5181,-1.5181,-1.5181,-1.5181,-1.5181,-1.5181,-1.5181,-1.5181,-1.5181,-1.5181,-1.5181,-1.5181,-1.5181,-1.5181,-1.5181,-1.5181,-1.5181,-1.5099,-1.5038,-1.5038,-1.4903,-1.4767,-1.4665,-1.4523,-1.4394,-1.4306,-1.4299,-1.4299,-1.4299,-1.4299,-1.4299,-1.4299,-1.4299,-1.4299,-1.4299,-1.4299,-1.4299,-2.1269,-2.1977,-2.2745,-2.213,-2.166,-2.1284,-2.1382,-2.1055,-2.1129,-2.2416,-2.4866,-2.5987,-2.3253,-2.473,-2.6386,-2.64,-2.6881,-2.7551,-2.814,-2.8221,-2.8221,-2.8221,-2.8221,-2.8221,-2.8221,-2.8221,-2.8221,-2.8221,-2.8221,-2.8221,-2.8221,-2.8221,-2.7109,-2.4776,-2.2439,-2.0096,-1.7842,-1.5513,-1.4299,-1.4299,-1.4299,-1.4299,-1.4299,-1.4299,-1.4299,-1.4299,-1.4299,-1.4299,-1.4299,-1.4299,-1.4299,-1.4299,-1.4299,-1.4299,-1.4299,-1.4299,-1.4299,-1.4299,-1.4299,-1.4299,-1.4299,-1.4299,-1.4299,-1.4326,-1.4468,-1.4516,-1.4577,-1.4882,-1.497,-1.5004,-1.5147,-1.5181,-1.5181,-1.5181,-1.5181,-1.5181,-1.5181,-1.5181,-1.5181,-1.5181,-1.5181,-1.5181,-1.5181,-1.5181,-1.5181,-1.5181,-1.5181,-1.5181,-1.5181,-1.5181,-1.5181,-1.5181,-1.5181,-1.5181,-1.5181,-1.5052,-1.497,-1.497,-1.4828,-1.4611,-1.4312,-1.4299,-1.4299,-1.4299,-1.4299,-1.4299,-1.4299,-1.4299,-1.4299,-1.4299,-1.4299,-1.4299,-2.2285,-2.3037,-2.376,-2.3606,-2.353,-2.3671,-2.3954,-2.2965,-2.2433,-2.4036,-2.5649,-2.6334,-2.492,-2.5477,-2.6293,-2.6907,-2.6974,-2.7228,-2.8114,-2.8221,-2.8221,-2.8221,-2.8221,-2.8221,-2.8221,-2.8221,-2.8221,-2.8221,-2.8221,-2.8221,-2.8221,-2.8221,-2.7109,-2.4776,-2.2439,-2.0096,-1.7842,-1.5513,-1.4299,-1.4299,-1.4299,-1.4299,-1.4299,-1.4299,-1.4299,-1.4299,-1.4299,-1.4299,-1.4299,-1.4299,-1.4299,-1.4299,-1.4299,-1.4299,-1.4299,-1.4299,-1.4299,-1.4299,-1.4299,-1.4299,-1.4299,-1.4299,-1.4367,-1.4455,-1.4502,-1.4665,-1.4855,-1.4943,-1.5045,-1.5126,-1.5174,-1.5181,-1.5181,-1.5181,-1.5181,-1.5181,-1.5181,-1.5181,-1.5181,-1.5181,-1.5181,-1.5181,-1.5181,-1.5181,-1.5181,-1.5181,-1.5181,-1.5181,-1.5181,-1.5181,-1.5181,-1.5181,-1.5181,-1.5181,-1.5181,-1.5147,-1.5079,-1.4977,-1.493,-1.4767,-1.4462,-1.4448,-1.4401,-1.4299,-1.4299,-1.4299,-1.4299,-1.4299,-1.4299,-1.4299,-1.4299,-1.4299,-2.2504,-2.3364,-2.4176,-2.4187,-2.4657,-2.517,-2.5237,-2.4534,-2.4212,-2.5222,-2.6172,-2.6667,-2.6132,-2.6279,-2.6653,-2.7175,-2.7308,-2.7535,-2.8154,-2.8221,-2.8221,-2.8221,-2.8221,-2.8221,-2.8221,-2.8221,-2.8221,-2.8221,-2.8221,-2.8221,-2.8221,-2.8221,-2.6673,-2.3384,-2.1911,-1.9662,-1.6466,-1.4992,-1.4299,-1.4299,-1.4299,-1.4299,-1.4299,-1.4299,-1.4299,-1.4299,-1.4299,-1.4299,-1.4299,-1.4299,-1.4299,-1.4299,-1.4299,-1.4299,-1.4299,-1.4299,-1.4299,-1.4299,-1.4299,-1.4299,-1.4299,-1.4299,-1.436,-1.4448,-1.4563,-1.4733,-1.4903,-1.5025,-1.512,-1.5181,-1.5181,-1.5181,-1.5181,-1.5181,-1.5181,-1.5181,-1.5181,-1.5181,-1.5181,-1.5181,-1.5181,-1.5181,-1.5181,-1.5181,-1.5181,-1.5181,-1.5181,-1.5181,-1.5181,-1.5181,-1.5181,-1.5181,-1.5181,-1.5181,-1.5181,-1.5181,-1.5147,-1.5059,-1.5059,-1.4943,-1.4706,-1.4577,-1.4441,-1.4306,-1.4299,-1.4299,-1.4299,-1.4299,-1.4299,-1.4299,-1.4299,-1.4299,-2.2281,-2.3201,-2.4203,-2.4392,-2.5243,-2.5959,-2.5665,-2.5798,-2.605,-2.5929,-2.6346,-2.6774,-2.6707,-2.7014,-2.7268,-2.7268,-2.7846,-2.8221,-2.8221,-2.8221,-2.8221,-2.8221,-2.8221,-2.8221,-2.8221,-2.8221,-2.8221,-2.8221,-2.8221,-2.8221,-2.8221,-2.8221,-2.6054,-2.1394,-2.1221,-1.8976,-1.4387,-1.4299,-1.4299,-1.4299,-1.4299,-1.4299,-1.4299,-1.4299,-1.4299,-1.4299,-1.4299,-1.4299,-1.4299,-1.4299,-1.4299,-1.4299,-1.4299,-1.4299,-1.4299,-1.4299,-1.4299,-1.4299,-1.4299,-1.4299,-1.4299,-1.4299,-1.4306,-1.4373,-1.4652,-1.4753,-1.4821,-1.5099,-1.5181,-1.5181,-1.5181,-1.5181,-1.5181,-1.5181,-1.5181,-1.5181,-1.5181,-1.5181,-1.5181,-1.5181,-1.5181,-1.5181,-1.5181,-1.5181,-1.5181,-1.5181,-1.5181,-1.5181,-1.5181,-1.5181,-1.5181,-1.5181,-1.5181,-1.5181,-1.5181,-1.5181,-1.5181,-1.5181,-1.5181,-1.512,-1.4977,-1.4685,-1.4468,-1.4326,-1.4306,-1.4299,-1.4299,-1.4299,-1.4299,-1.4299,-1.4299,-1.4299,-2.3464,-2.3978,-2.4475,-2.5634,-2.6306,-2.656,-2.6266,-2.6253,-2.6039,-2.5117,-2.5758,-2.6346,-2.5879,-2.66,-2.7268,-2.7268,-2.7846,-2.8221,-2.8221,-2.8221,-2.8221,-2.8221,-2.8221,-2.8221,-2.8221,-2.8221,-2.8221,-2.8221,-2.8221,-2.8221,-2.8221,-2.8221,-2.6054,-2.1394,-2.1221,-1.8976,-1.4387,-1.4299,-1.4299,-1.4299,-1.4299,-1.4299,-1.4299,-1.4299,-1.4299,-1.4299,-1.4299,-1.4299,-1.4299,-1.4299,-1.4299,-1.4299,-1.4299,-1.4299,-1.4299,-1.4299,-1.4299,-1.4299,-1.4299,-1.4299,-1.4299,-1.4299,-1.4373,-1.4502,-1.4685,-1.4828,-1.4957,-1.5133,-1.5181,-1.5181,-1.5181,-1.5181,-1.5181,-1.5181,-1.5181,-1.5181,-1.5181,-1.5181,-1.5181,-1.5181,-1.5181,-1.5181,-1.5181,-1.5181,-1.5181,-1.5181,-1.5181,-1.5181,-1.5181,-1.5181,-1.5181,-1.5181,-1.5181,-1.5181,-1.5181,-1.5181,-1.5181,-1.5181,-1.5181,-1.512,-1.4977,-1.4787,-1.4618,-1.4468,-1.4353,-1.4299,-1.4299,-1.4299,-1.4299,-1.4299,-1.4299,-1.4299,-2.3383,-2.3977,-2.4697,-2.6082,-2.6611,-2.6747,-2.6453,-2.6386,-2.6213,-2.5598,-2.5959,-2.6293,-2.5985,-2.6667,-2.7268,-2.7268,-2.7846,-2.8221,-2.8221,-2.8221,-2.8221,-2.8221,-2.8221,-2.8221,-2.8221,-2.8221,-2.8221,-2.8221,-2.8221,-2.8221,-2.8221,-2.8221,-2.6054,-2.1394,-2.1221,-1.8976,-1.4387,-1.4299,-1.4299,-1.4299,-1.4299,-1.4299,-1.4299,-1.4299,-1.4299,-1.4299,-1.4299,-1.4299,-1.4299,-1.4299,-1.4299,-1.4299,-1.4299,-1.4299,-1.4299,-1.4299,-1.4299,-1.4299,-1.4299,-1.4299,-1.4299,-1.4299,-1.4346,-1.4448,-1.4672,-1.4794,-1.4903,-1.512,-1.5181,-1.5181,-1.5181,-1.5181,-1.5181,-1.5181,-1.5181,-1.5181,-1.5181,-1.5181,-1.5181,-1.5181,-1.5181,-1.5181,-1.5181,-1.5181,-1.5181,-1.5181,-1.5181,-1.5181,-1.5181,-1.5181,-1.5181,-1.5181,-1.5181,-1.5181,-1.5181,-1.5181,-1.5181,-1.5181,-1.5181,-1.5147,-1.5072,-1.493,-1.4746,-1.4516,-1.4373,-1.4299,-1.4299,-1.4299,-1.4299,-1.4299,-1.4299,-1.4299,-2.2763,-2.3776,-2.5026,-2.6149,-2.6626,-2.6747,-2.6453,-2.6386,-2.6386,-2.6386,-2.6386,-2.6386,-2.6386,-2.6867,-2.7268,-2.7268,-2.7846,-2.8221,-2.8221,-2.8221,-2.8221,-2.8221,-2.8221,-2.8221,-2.8221,-2.8221,-2.8221,-2.8221,-2.8221,-2.8221,-2.8221,-2.8221,-2.6054,-2.1394,-2.1181,-1.8921,-1.4346,-1.4265,-1.4265,-1.4265,-1.4285,-1.4299,-1.4299,-1.4299,-1.4299,-1.4299,-1.4299,-1.4299,-1.4299,-1.4299,-1.4299,-1.4299,-1.4299,-1.4299,-1.4299,-1.4299,-1.4299,-1.4299,-1.4299,-1.4299,-1.4299,-1.4299,-1.4299,-1.4353,-1.4652,-1.474,-1.4801,-1.5099,-1.5181,-1.5181,-1.5181,-1.5181,-1.5181,-1.5181,-1.5181,-1.5181,-1.5181,-1.5181,-1.5181,-1.5181,-1.5181,-1.5181,-1.5181,-1.5181,-1.5181,-1.5181,-1.5181,-1.5181,-1.5181,-1.5181,-1.5181,-1.5181,-1.5181,-1.5181,-1.5181,-1.5181,-1.5181,-1.5181,-1.5181,-1.5181,-1.5181,-1.5045,-1.4848,-1.4597,-1.4448,-1.4367,-1.434,-1.434,-1.4326,-1.4299,-1.4299,-1.4312,-2.2235,-2.3914,-2.555,-2.6201,-2.6626,-2.6747,-2.6453,-2.6386,-2.6386,-2.6386,-2.6386,-2.6386,-2.6386,-2.6867,-2.7268,-2.7268,-2.7846,-2.8221,-2.8221,-2.8221,-2.8221,-2.8221,-2.8221,-2.8221,-2.8221,-2.8221,-2.8221,-2.8221,-2.8221,-2.8221,-2.8221,-2.8221,-2.6054,-2.1394,-2.1115,-1.88,-1.4189,-1.4102,-1.4102,-1.4102,-1.4238,-1.4299,-1.4299,-1.4299,-1.4299,-1.4299,-1.4299,-1.4299,-1.4299,-1.4299,-1.4299,-1.4299,-1.4299,-1.4299,-1.4299,-1.4299,-1.4299,-1.4299,-1.4299,-1.4299,-1.4299,-1.4299,-1.4299,-1.4353,-1.4652,-1.474,-1.4801,-1.5099,-1.5181,-1.5181,-1.5181,-1.5181,-1.5181,-1.5181,-1.5181,-1.5181,-1.5181,-1.5181,-1.5181,-1.5181,-1.5181,-1.5181,-1.5181,-1.5181,-1.5181,-1.5181,-1.5181,-1.5181,-1.5181,-1.5181,-1.5181,-1.5181,-1.5181,-1.5181,-1.5181,-1.5181,-1.5181,-1.5181,-1.5181,-1.5181,-1.5181,-1.5045,-1.495,-1.4909,-1.476,-1.4618,-1.4482,-1.4482,-1.4421,-1.4299,-1.4299,-1.4367,-2.2396,-2.3936,-2.5368,-2.5828,-2.632,-2.6747,-2.6453,-2.6386,-2.6386,-2.6386,-2.6386,-2.6386,-2.6386,-2.6867,-2.7268,-2.7268,-2.7846,-2.8221,-2.8221,-2.8221,-2.8221,-2.8221,-2.8221,-2.8221,-2.8221,-2.8221,-2.8221,-2.8221,-2.8221,-2.8221,-2.8221,-2.8221,-2.6029,-2.1312,-2.1074,-1.8776,-1.4129,-1.4094,-1.4116,-1.4197,-1.4272,-1.4299,-1.4299,-1.4299,-1.4299,-1.4299,-1.4299,-1.4299,-1.4299,-1.4299,-1.4299,-1.4299,-1.4299,-1.4299,-1.4299,-1.4299,-1.4299,-1.4299,-1.4299,-1.4299,-1.4299,-1.4299,-1.4353,-1.4462,-1.4672,-1.4801,-1.4916,-1.5126,-1.5181,-1.5181,-1.5181,-1.5181,-1.5181,-1.5181,-1.5181,-1.5181,-1.5181,-1.5181,-1.5181,-1.5181,-1.5181,-1.5181,-1.5181,-1.5181,-1.5181,-1.5181,-1.5181,-1.5181,-1.5181,-1.5181,-1.5181,-1.5181,-1.5181,-1.5181,-1.5181,-1.5181,-1.5181,-1.5181,-1.5181,-1.5181,-1.5181,-1.512,-1.5086,-1.5086,-1.4862,-1.4706,-1.4638,-1.4638,-1.4611,-1.4543,-1.4543,-1.4577,-2.2493,-2.3596,-2.456,-2.52,-2.5899,-2.6373,-2.6386,-2.6386,-2.6386,-2.6386,-2.6386,-2.6386,-2.6386,-2.6867,-2.7268,-2.7268,-2.7846,-2.8221,-2.8221,-2.8221,-2.8221,-2.8221,-2.8221,-2.8221,-2.8221,-2.8221,-2.8221,-2.8221,-2.8221,-2.8221,-2.8221,-2.8221,-2.6089,-2.1327,-2.1049,-1.8718,-1.4089,-1.4005,-1.4089,-1.4245,-1.4278,-1.4299,-1.4299,-1.4299,-1.4299,-1.4299,-1.4299,-1.4299,-1.4299,-1.4299,-1.4299,-1.4299,-1.4299,-1.4299,-1.4299,-1.4299,-1.4299,-1.4299,-1.4299,-1.4299,-1.4299,-1.4299,-1.4394,-1.4536,-1.4692,-1.4848,-1.5004,-1.514,-1.5181,-1.5181,-1.5181,-1.5181,-1.5181,-1.5181,-1.5181,-1.5181,-1.5181,-1.5181,-1.5181,-1.5181,-1.5181,-1.5181,-1.5181,-1.5181,-1.5181,-1.5181,-1.5181,-1.5181,-1.5181,-1.5181,-1.5181,-1.5181,-1.5181,-1.5181,-1.5181,-1.5181,-1.5181,-1.5181,-1.5181,-1.5181,-1.5181,-1.5181,-1.5181,-1.5181,-1.4964,-1.4835,-1.4801,-1.4801,-1.478,-1.474,-1.474,-1.476,-2.2145,-2.2471,-2.2955,-2.4698,-2.5167,-2.5384,-2.6199,-2.6386,-2.6386,-2.6386,-2.6386,-2.6386,-2.6386,-2.6867,-2.7268,-2.7268,-2.7846,-2.8221,-2.8221,-2.8221,-2.8221,-2.8221,-2.8221,-2.8221,-2.8221,-2.8221,-2.8221,-2.8221,-2.8221,-2.8221,-2.8221,-2.8221,-2.6089,-2.1327,-2.1068,-1.8676,-1.3838,-1.3844,-1.3933,-1.4089,-1.4231,-1.4299,-1.4299,-1.4299,-1.4299,-1.4299,-1.4299,-1.4299,-1.4299,-1.4299,-1.4299,-1.4299,-1.4299,-1.4299,-1.4299,-1.4299,-1.4299,-1.4299,-1.4299,-1.4299,-1.4299,-1.4299,-1.4394,-1.4536,-1.4692,-1.4848,-1.5004,-1.514,-1.5181,-1.5181,-1.5181,-1.5181,-1.5181,-1.5181,-1.5181,-1.5181,-1.5181,-1.5181,-1.5181,-1.5181,-1.5181,-1.5181,-1.5181,-1.5181,-1.5181,-1.5181,-1.5181,-1.5181,-1.5181,-1.5181,-1.5181,-1.5181,-1.5181,-1.5181,-1.5181,-1.5181,-1.5181,-1.5181,-1.5181,-1.5181,-1.5181,-1.5181,-1.5181,-1.5181,-1.5167,-1.5092,-1.4957,-1.4957,-1.4882,-1.474,-1.474,-1.4821,-2.1402,-2.1933,-2.2623,-2.3444,-2.4093,-2.4596,-2.4917,-2.5424,-2.5825,-2.5825,-2.6132,-2.6386,-2.6386,-2.6707,-2.7041,-2.7241,-2.7602,-2.7923,-2.8207,-2.8221,-2.8221,-2.8221,-2.8221,-2.8221,-2.8221,-2.8221,-2.8221,-2.8221,-2.8221,-2.8221,-2.8221,-2.8221,-2.6002,-2.1197,-2.1052,-1.8784,-1.4018,-1.3998,-1.4068,-1.4217,-1.4272,-1.4299,-1.4299,-1.4299,-1.4299,-1.4299,-1.4299,-1.4299,-1.4299,-1.4299,-1.4299,-1.4299,-1.4299,-1.4299,-1.4299,-1.4299,-1.4299,-1.4299,-1.4299,-1.4299,-1.4319,-1.4407,-1.4536,-1.4685,-1.4841,-1.4991,-1.512,-1.5167,-1.5181,-1.5181,-1.5181,-1.5181,-1.5181,-1.5181,-1.5181,-1.5181,-1.5181,-1.5181,-1.5181,-1.5181,-1.5181,-1.5181,-1.5181,-1.5181,-1.5181,-1.5181,-1.5181,-1.5181,-1.5181,-1.5181,-1.5181,-1.5181,-1.5181,-1.5181,-1.5181,-1.5181,-1.5181,-1.5181,-1.5181,-1.5181,-1.5181,-1.5181,-1.5181,-1.5181,-1.5181,-1.516,-1.5106,-1.5106,-1.5079,-1.5025,-1.5025,-1.5052,-2.0949,-2.1461,-2.2098,-2.2593,-2.3166,-2.3688,-2.3995,-2.4663,-2.5251,-2.5344,-2.5838,-2.6279,-2.6373,-2.6547,-2.68,-2.7201,-2.7509,-2.7802,-2.8181,-2.8221,-2.8221,-2.8221,-2.8221,-2.8221,-2.8221,-2.7448,-2.7363,-2.8136,-2.7448,-2.7363,-2.8136,-2.8123,-2.5818,-2.1044,-1.9392,-1.7088,-1.3998,-1.4101,-1.4122,-1.4224,-1.4278,-1.4299,-1.4299,-1.4299,-1.4299,-1.4299,-1.4299,-1.4299,-1.4299,-1.4299,-1.4299,-1.4299,-1.4299,-1.4299,-1.4299,-1.4299,-1.4299,-1.4299,-1.4299,-1.4299,-1.4326,-1.4468,-1.4618,-1.4767,-1.4923,-1.5072,-1.5181,-1.5181,-1.5181,-1.5181,-1.5181,-1.5181,-1.5181,-1.5181,-1.5181,-1.5181,-1.5181,-1.5181,-1.5181,-1.5181,-1.5181,-1.5181,-1.5181,-1.5181,-1.5181,-1.5181,-1.5181,-1.5181,-1.5181,-1.5181,-1.5181,-1.5181,-1.5181,-1.5181,-1.5181,-1.5181,-1.5181,-1.5181,-1.5181,-1.5181,-1.5181,-1.5181,-1.5181,-1.5181,-1.5181,-1.5181,-1.5181,-1.5181,-1.5181,-1.5181,-1.5181,-1.5181,0.0,0.0,0.0,-2.2164,-2.2392,-2.2632,-2.3527,-2.4168,-2.4676,-2.501,-2.5531,-2.6026,-2.6333,-2.6386,-2.6587,-2.7175,-2.7509,-2.7789,-2.8181,-2.8221,-2.8221,-2.8221,-2.8221,-2.8221,-2.8221,-2.6151,-2.5726,-2.8065,-2.6078,-2.5811,-2.8052,-2.7746,-2.5347,-2.0734,-1.6215,-1.3837,-1.3837,-1.3968,-1.4082,-1.4082,-1.4231,-1.4299,-1.4299,-1.4299,-1.4299,-1.4299,-1.4299,-1.4299,-1.4299,-1.4299,-1.4299,-1.4299,-1.4299,-1.4299,-1.4299,-1.4299,-1.4299,-1.4299,-1.4299,-1.4299,-1.4326,-1.4468,-1.4618,-1.4767,-1.493,-1.5072,-1.5181,-1.5181,-1.5181,-1.5181,-1.5181,-1.5181,-1.5181,-1.5181,-1.5181,-1.5181,-1.5181,-1.5181,-1.5181,-1.5181,-1.5181,-1.5181,-1.5181,-1.5181,-1.5181,-1.5181,-1.5181,-1.5181,-1.5181,-1.5181,-1.5181,-1.5181,-1.5181,-1.5181,-1.5181,-1.5181,-1.5181,-1.5181,-1.5181,-1.5181,-1.5181,-1.5181,-1.5181,-1.5181,-1.5181,-1.5181,-1.5181,-1.5181,-1.5181,-1.5181,-1.5181,-1.5181,-2.0265,0.0,0.0,0.0,0.0,0.0,-2.2645,-2.3086,-2.3688,-2.4836,-2.5211,-2.5545,-2.6253,-2.6386,-2.6587,-2.7175,-2.7335,-2.7562,-2.8154,-2.8221,-2.8221,-2.8221,-2.8221,-2.8221,-2.8221,-2.7617,-2.748,-2.8136,-2.7617,-2.7532,-2.8136,-2.4735,-2.2045,-2.0631,-1.6152,-1.3901,-1.3995,-1.4183,-1.4238,-1.4238,-1.4278,-1.4299,-1.4299,-1.4299,-1.4299,-1.4299,-1.4299,-1.4299,-1.4299,-1.4299,-1.4299,-1.4299,-1.4299,-1.4299,-1.4299,-1.4299,-1.4299,-1.4299,-1.4299,-1.4299,-1.434,-1.459,-1.4706,-1.4787,-1.5045,-1.5153,-1.5181,-1.5181,-1.5181,-1.5181,-1.5181,-1.5181,-1.5181,-1.5181,-1.5181,-1.5181,-1.5181,-1.5181,-1.5181,-1.5181,-1.5181,-1.5181,-1.5181,-1.5181,-1.5181,-1.5181,-1.5181,-1.5181,-1.5181,-1.5181,-1.5181,-1.5181,-1.5181,-1.5181,-1.5181,-1.5181,-1.5181,-1.5181,-1.5181,-1.5181,-1.5181,-1.5181,-1.5181,-1.5181,-1.5181,-1.5181,-1.5181,-1.5181,-1.5181,-1.5181,-1.5181,-1.5181,-1.9305,-1.9436,-1.9801,-1.9954,0.0,0.0,-2.1594,-2.2191,-2.2846,-2.4088,-2.4449,-2.481,-2.5678,-2.5745,-2.5932,-2.676,-2.6894,-2.7188,-2.8114,-2.8341,-2.8337,-2.8337,-2.8462,-2.8148,-2.7136,-2.6978,-2.6847,-2.681,-2.673,-2.7096,-2.7954,-2.3378,-2.0714,-2.0455,-1.6089,-1.382,-1.4,-1.4197,-1.4299,-1.4299,-1.4299,-1.4299,-1.4299,-1.4299,-1.4299,-1.4299,-1.4299,-1.4299,-1.4299,-1.4299,-1.4299,-1.4299,-1.4299,-1.4299,-1.4299,-1.4299,-1.4299,-1.4299,-1.4299,-1.4299,-1.4346,-1.4645,-1.474,-1.4794,-1.5092,-1.5181,-1.5181,-1.5181,-1.5181,-1.5181,-1.5181,-1.5181,-1.5181,-1.5181,-1.5181,-1.5181,-1.5181,-1.5181,-1.5181,-1.5181,-1.5181,-1.5181,-1.5181,-1.5181,-1.5181,-1.5181,-1.5181,-1.5181,-1.5181,-1.5181,-1.5181,-1.5181,-1.5181,-1.5181,-1.5181,-1.5181,-1.5181,-1.5181,-1.5181,-1.5181,-1.5181,-1.5181,-1.5181,-1.5181,-1.5181,-1.5181,-1.5181,-1.5181,-1.5181,-1.5181,-1.5181,-1.5181,-1.8187,-1.8074,-1.8413,-1.8244,-1.8372,0.0,-2.054,-2.1421,-2.2164,-2.3126,-2.3487,-2.3888,-2.477,-2.4716,-2.489,-2.5972,-2.6253,-2.6734,-2.7966,-2.831,-2.8511,-2.8511,-2.8698,-2.7952,-2.56,-2.5444,-2.5324,-2.4957,-2.4988,-2.5714,-2.724,-2.3128,-2.0548,-1.9927,-1.5903,-1.3807,-1.3807,-1.4089,-1.4278,-1.4272,-1.4258,-1.4265,-1.421,-1.4299,-1.4299,-1.4299,-1.4299,-1.4299,-1.4299,-1.4299,-1.4299,-1.4299,-1.4299,-1.4299,-1.4299,-1.4299,-1.4299,-1.4299,-1.4299,-1.4299,-1.4346,-1.4645,-1.474,-1.4794,-1.5092,-1.5181,-1.5181,-1.5181,-1.5181,-1.5181,-1.5181,-1.5181,-1.5181,-1.5181,-1.5181,-1.5181,-1.5181,-1.5181,-1.5181,-1.5181,-1.5181,-1.5181,-1.5181,-1.5181,-1.5181,-1.5181,-1.5181,-1.5181,-1.5181,-1.5181,-1.5181,-1.5181,-1.5181,-1.5181,-1.5181,-1.5181,-1.5181,-1.5181,-1.5181,-1.5181,-1.5181,-1.5181,-1.5181,-1.5181,-1.5181,-1.5181,-1.5181,-1.5181,-1.5181,-1.5181,-1.5181,-1.5181,-1.8431,-1.8099,-1.7863,-1.6711,-1.7474,0.0,-1.9567,-2.054,-2.167,-2.3046,-2.2979,-2.2953,-2.3861,-2.3981,-2.4088,-2.4556,-2.5424,-2.6452,-2.7308,-2.7696,-2.7883,-2.7883,-2.8188,-2.7586,-2.563,-2.6971,-2.7078,-2.5015,-2.6496,-2.677,-2.4982,-2.2284,-1.983,-1.7618,-1.5131,-1.3786,-1.3786,-1.4034,-1.4116,-1.4116,-1.3987,-1.3881,-1.3932,-1.4027,-1.4115,-1.4122,-1.421,-1.4299,-1.4299,-1.4299,-1.4299,-1.4299,-1.4299,-1.4299,-1.4299,-1.4299,-1.4299,-1.4299,-1.4299,-1.4299,-1.4346,-1.4645,-1.474,-1.4794,-1.5092,-1.5181,-1.5181,-1.5181,-1.5181,-1.5181,-1.5181,-1.5181,-1.5181,-1.5181,-1.5181,-1.5181,-1.5181,-1.5181,-1.5181,-1.5181,-1.5181,-1.5181,-1.5181,-1.5181,-1.5181,-1.5181,-1.5181,-1.5181,-1.5181,-1.5181,-1.5181,-1.5181,-1.5181,-1.5181,-1.5181,-1.5181,-1.5181,-1.5181,-1.5181,-1.5181,-1.5181,-1.5181,-1.5181,-1.5181,-1.5181,-1.5181,-1.5181,-1.5181,-1.5181,-1.5181,-1.5181,-1.5181,-1.7506,-1.6914,-1.6615,-1.4985,-1.5265,0.0,0.0,-1.8106,-1.8836,-1.9811,-2.038,-2.0642,-2.0551,-2.1836,-2.2836,-2.276,-2.3948,-2.5117,-2.5852,-2.7215,-2.8163,-2.8132,-2.8557,-2.7966,-2.5654,-2.7432,-2.8201,-2.6632,-2.7611,-2.7122,-2.4578,-2.214,-1.9635,-1.7162,-1.4909,-1.3736,-1.3736,-1.3846,-1.3947,-1.3947,-1.3813,-1.3833,-1.38,-1.3934,-1.3968,-1.4062,-1.4177,-1.4231,-1.4299,-1.4299,-1.4299,-1.4299,-1.4299,-1.4299,-1.4299,-1.4299,-1.4299,-1.4299,-1.4299,-1.4346,-1.4441,-1.4665,-1.4794,-1.4896,-1.5113,-1.5181,-1.5181,-1.5181,-1.5181,-1.5181,-1.5181,-1.5181,-1.5181,-1.5181,-1.5181,-1.5181,-1.5181,-1.5181,-1.5181,-1.5181,-1.5181,-1.5181,-1.5181,-1.5181,-1.5181,-1.5181,-1.5181,-1.5181,-1.5181,-1.5181,-1.5181,-1.5181,-1.5181,-1.5181,-1.5181,-1.5181,-1.5181,-1.5181,-1.5181,-1.5181,-1.5181,-1.5181,-1.5181,-1.5181,-1.5181,-1.5181,-1.5181,-1.5181,-1.5181,-1.5181,-1.5181,-1.5181,-1.6509,-1.5515,-1.5005,-1.3259,-1.3062,-1.3643,0.0,0.0,0.0,-1.6512,-1.7565,-1.8082,-1.7125,-1.9331,-2.1181,-2.0752,-2.2364,-2.3781,-2.4315,-2.6414,-2.7915,-2.7897,-2.8425,-2.7826,-2.5401,-2.6984,-2.8142,-2.8177,-2.8136,-2.694,-2.4149,-2.2001,-1.9543,-1.6713,-1.4619,-1.3634,-1.3556,-1.3752,-1.3774,-1.3787,-1.3738,-1.3756,-1.3756,-1.3807,-1.3896,-1.4094,-1.4082,-1.4183,-1.4299,-1.4299,-1.4299,-1.4299,-1.4299,-1.4299,-1.4299,-1.4299,-1.4319,-1.434,-1.434,-1.4434,-1.4577,-1.4733,-1.4889,-1.5031,-1.5147,-1.5181,-1.5181,-1.5181,-1.5181,-1.5181,-1.5181,-1.5181,-1.5181,-1.5181,-1.5181,-1.5181,-1.5181,-1.5181,-1.5181,-1.5181,-1.5181,-1.5181,-1.5181,-1.5181,-1.5181,-1.5181,-1.5181,-1.5181,-1.5181,-1.5181,-1.5181,-1.5181,-1.5181,-1.5181,-1.5181,-1.5181,-1.5194,-1.5221,-1.5295,-1.5295,-1.5235,-1.5201,-1.5181,-1.5181,-1.5181,-1.5181,-1.5181,-1.5181,-1.5181,-1.5181,-1.5181,-1.5181,-1.638,-1.4743,-1.3193,-1.1439,-1.2157,-1.3325,-1.3578,0.0,-1.5934,-1.5974,0.0,-1.6224,-1.608,0.0,0.0,-1.8824,-2.1187,-2.3086,-2.342,-2.4657,-2.5505,-2.5518,-2.606,-2.5796,-2.4275,-2.4664,-2.5886,-2.8021,-2.7941,-2.5956,-2.1836,-2.1102,-1.8753,-1.4351,-1.3787,-1.3563,-1.3604,-1.3631,-1.3599,-1.3594,-1.3496,-1.3451,-1.3458,-1.3712,-1.381,-1.3834,-1.419,-1.4285,-1.4299,-1.4299,-1.4299,-1.4299,-1.4299,-1.4299,-1.4299,-1.4299,-1.438,-1.4489,-1.4489,-1.4584,-1.474,-1.4896,-1.5038,-1.516,-1.5174,-1.5181,-1.5181,-1.5181,-1.5181,-1.5181,-1.5181,-1.5181,-1.5181,-1.5181,-1.5181,-1.5181,-1.5181,-1.5181,-1.5181,-1.5181,-1.5181,-1.5181,-1.5181,-1.5181,-1.5181,-1.5181,-1.5181,-1.5181,-1.5181,-1.5181,-1.5181,-1.5181,-1.5181,-1.5181,-1.5181,-1.5281,-1.5336,-1.5377,-1.5451,-1.5458,-1.5343,-1.5276,-1.5181,-1.5181,-1.5181,-1.5181,-1.5181,-1.5181,-1.5181,-1.5181,-1.5181,-1.5181,-1.5081,-1.4124,-1.3175,-1.1443,-1.1511,-1.206,-1.1873,-1.2347,-1.2865,-1.2865,0.0,0.0,0.0,0.0,0.0,0.0,-1.7685,-1.9194,-1.946,-1.9969,-2.1521,-2.4903,-2.5556,-2.5707,-2.5588,-2.5259,-2.5774,-2.7568,-2.7376,-2.5252,-2.0901,-2.0792,-1.8605,-1.3923,-1.3614,-1.3505,-1.3442,-1.3442,-1.3462,-1.3496,-1.3458,-1.3464,-1.3489,-1.3661,-1.3824,-1.3954,-1.4129,-1.4217,-1.4299,-1.4299,-1.4299,-1.4299,-1.4299,-1.4299,-1.4312,-1.4394,-1.4462,-1.4523,-1.4611,-1.4746,-1.4896,-1.5045,-1.5133,-1.5181,-1.5181,-1.5181,-1.5181,-1.5181,-1.5181,-1.5181,-1.5181,-1.5181,-1.5181,-1.5181,-1.5181,-1.5181,-1.5181,-1.5181,-1.5181,-1.5181,-1.5181,-1.5181,-1.5181,-1.5181,-1.5181,-1.5181,-1.5181,-1.5181,-1.5181,-1.5181,-1.5181,-1.5181,-1.5262,-1.5316,-1.5316,-1.5398,-1.5479,-1.554,-1.5545,-1.5581,-1.5418,-1.5337,-1.5303,-1.5181,-1.5181,-1.5181,-1.5181,-1.5181,-1.5181,-1.5181,-1.5181,-1.5181,-1.4197,-1.3539,-1.2789,-1.1615,-1.1165,-1.1009,-1.0873,-1.0778,-1.0731,-1.0772,-1.177,0.0,0.0,0.0,-1.495,-1.3921,0.0,-1.644,-1.666,-1.6701,-1.8487,-2.3273,-2.4534,-2.5375,-2.6079,-2.5678,-2.5811,-2.678,-2.6544,-2.4788,-2.118,-2.0642,-1.8653,-1.4783,-1.386,-1.3403,-1.3403,-1.3403,-1.3403,-1.3403,-1.3403,-1.3435,-1.3566,-1.3678,-1.3799,-1.4075,-1.4116,-1.4197,-1.4299,-1.4299,-1.4299,-1.4299,-1.4299,-1.4326,-1.4373,-1.4475,-1.4536,-1.4597,-1.4746,-1.4903,-1.5045,-1.5147,-1.5181,-1.5181,-1.5181,-1.5181,-1.5181,-1.5181,-1.5181,-1.5181,-1.5181,-1.5181,-1.5181,-1.5181,-1.5181,-1.5181,-1.5181,-1.5181,-1.5181,-1.5181,-1.5181,-1.5181,-1.5181,-1.5181,-1.5181,-1.5181,-1.5275,-1.5295,-1.5242,-1.5255,-1.5276,-1.5303,-1.5404,-1.5472,-1.5472,-1.5601,-1.5703,-1.5757,-1.5658,-1.5656,-1.5561,-1.5486,-1.5363,-1.5248,-1.5248,-1.5221,-1.5181,-1.5181,-1.5181,-1.5181,-1.5181,-1.5181,-1.4228,-1.279,-1.1355,-1.1558,-1.1165,-1.0806,-1.1084,-1.0928,-1.0765,-1.084,-1.0941,-1.105,-1.1193,-1.2635,-1.3798,-1.357,-1.4996,0.0,0.0,-1.6429,-1.7201,-1.9347,-2.2091,-2.4066,-2.462,-2.4905,-2.5257,-2.5545,-2.5328,-2.4477,-2.29,-2.0723,-1.8656,-1.6851,-1.4629,-1.3403,-1.3403,-1.3403,-1.3403,-1.3403,-1.3403,-1.3469,-1.3574,-1.3767,-1.3927,-1.4082,-1.4231,-1.4292,-1.4299,-1.4299,-1.4299,-1.4299,-1.4299,-1.4387,-1.4502,-1.4509,-1.4604,-1.4753,-1.4909,-1.5059,-1.5174,-1.5181,-1.5181,-1.5181,-1.5181,-1.5181,-1.5181,-1.5181,-1.5181,-1.5181,-1.5181,-1.5181,-1.5181,-1.5181,-1.5181,-1.5181,-1.5181,-1.5181,-1.5181,-1.5181,-1.5181,-1.5181,-1.5181,-1.5181,-1.5181,-1.5181,-1.5375,-1.5524,-1.5486,-1.5541,-1.5609,-1.5615,-1.5628,-1.5635,-1.5635,-1.5821,-1.5964,-1.6056,-1.597,-1.5882,-1.5868,-1.5666,-1.5559,-1.5411,-1.5404,-1.533,-1.5181,-1.5181,-1.5181,-1.5181,-1.5181,-1.5181,-1.2728,-1.2317,-1.1807,-1.1876,-1.1595,-1.1308,-1.1219,-1.1036,-1.0853,-1.088,-1.1023,-1.1165,-1.1416,-1.1783,-1.2098,-1.2197,-1.2498,-1.2681,0.0,-1.4636,-1.6918,-1.9166,-2.1462,-2.3174,-2.4023,-2.3785,-2.3984,-2.4839,-2.4634,-2.3845,-2.2356,-2.0517,-1.8717,-1.6926,-1.4629,-1.3403,-1.3403,-1.3403,-1.3403,-1.3403,-1.3403,-1.3553,-1.3752,-1.3792,-1.3927,-1.4224,-1.4278,-1.4299,-1.4299,-1.4299,-1.4299,-1.4299,-1.4299,-1.4387,-1.4523,-1.4624,-1.476,-1.4916,-1.5059,-1.514,-1.5181,-1.5181,-1.5181,-1.5181,-1.5181,-1.5181,-1.5181,-1.5181,-1.5181,-1.5181,-1.5181,-1.5181,-1.5181,-1.5181,-1.5181,-1.5181,-1.5181,-1.5181,-1.5181,-1.5181,-1.5168,-1.5235,-1.5235,-1.5221,-1.5221,-1.541,-1.5476,-1.5566,-1.5725,-1.5646,-1.5616,-1.5559,-1.5696,-1.5834,-1.5834,-1.5984,-1.6008,-1.6076,-1.6083,-1.5988,-1.5889,-1.5811,-1.5744,-1.5567,-1.556,-1.5486,-1.5337,-1.5337,-1.5282,-1.5181,-1.5181,-1.5181,-1.2206,-1.2141,-1.2107,-1.2244,-1.1918,-1.1581,-1.1548,-1.1328,-1.1253,-1.1328,-1.1375,-1.1491,-1.1696,-1.1552,-1.1369,-1.142,-1.1197,-1.1166,0.0,-1.4228,-1.6918,-1.9173,-2.1066,-2.2545,-2.3406,-2.3052,-2.3093,-2.3927,-2.3734,-2.336,-2.2943,-2.0425,-1.8688,-1.7973,-1.5006,-1.3403,-1.3403,-1.3403,-1.3403,-1.3403,-1.3471,-1.3556,-1.3806,-1.3826,-1.4061,-1.4299,-1.4299,-1.4299,-1.4299,-1.4299,-1.4299,-1.4299,-1.4299,-1.4421,-1.4604,-1.4706,-1.4869,-1.5059,-1.5153,-1.5181,-1.5181,-1.5181,-1.5181,-1.5181,-1.5181,-1.5181,-1.5181,-1.5181,-1.5181,-1.5181,-1.5181,-1.5181,-1.5181,-1.5181,-1.5181,-1.5194,-1.5154,-1.5168,-1.5276,-1.5431,-1.5329,-1.5294,-1.5493,-1.5478,-1.5478,-1.5472,-1.5635,-1.582,-1.5863,-1.5815,-1.5803,-1.5818,-1.5852,-1.5991,-1.5991,-1.6008,-1.6083,-1.6083,-1.6083,-1.6022,-1.5991,-1.6018,-1.5866,-1.5716,-1.5716,-1.5642,-1.5493,-1.5438,-1.5357,-1.5262,-1.5208,-1.5181]}]]